<?xml version="1.0" encoding="UTF-8" standalone="no" ?>
<gpx xmlns="http://www.topografix.com/GPX/1/1" xmlns:xsi="http://www.w3.org/2001/XMLSchema-instance" xsi:schemaLocation="http://www.topografix.com/GPX/1/1 http://www.topografix.com/GPX/1/1/gpx.xsd" version="1.1" creator="VisuGPX - https://www.visugpx.com">
  <metadata>
    <name>4 têtes</name>
  </metadata>
  <trk>
    <name><![CDATA[2021-12-19 16:29:32-Course TT]]></name>
    <extensions>
      <line xmlns="http://www.topografix.com/GPX/gpx_style/0/2">
        <color>0000FF</color>
        <width>4</width>
      </line>
    </extensions>
    <trkseg>
      <trkpt lat="45.95786" lon="6.61015">
        <ele>1000.87</ele>
        <time>2021-12-19T10:13:44Z</time>
      </trkpt>
      <trkpt lat="45.95785" lon="6.61014">
        <ele>992.22</ele>
        <time>2021-12-19T10:13:45Z</time>
      </trkpt>
      <trkpt lat="45.95785" lon="6.61012">
        <ele>1001.35</ele>
        <time>2021-12-19T10:13:48Z</time>
      </trkpt>
      <trkpt lat="45.95785" lon="6.6101">
        <ele>1001.35</ele>
        <time>2021-12-19T10:13:50Z</time>
      </trkpt>
      <trkpt lat="45.95785" lon="6.61009">
        <ele>1001.35</ele>
        <time>2021-12-19T10:13:52Z</time>
      </trkpt>
      <trkpt lat="45.95786" lon="6.61008">
        <ele>1001.83</ele>
        <time>2021-12-19T10:13:53Z</time>
      </trkpt>
      <trkpt lat="45.95792" lon="6.61002">
        <ele>1002.79</ele>
        <time>2021-12-19T10:14:02Z</time>
      </trkpt>
      <trkpt lat="45.95793" lon="6.61001">
        <ele>1002.79</ele>
        <time>2021-12-19T10:14:03Z</time>
      </trkpt>
      <trkpt lat="45.95795" lon="6.60999">
        <ele>1003.27</ele>
        <time>2021-12-19T10:14:04Z</time>
      </trkpt>
      <trkpt lat="45.95796" lon="6.60998">
        <ele>1003.27</ele>
        <time>2021-12-19T10:14:05Z</time>
      </trkpt>
      <trkpt lat="45.95797" lon="6.60998">
        <ele>1003.75</ele>
        <time>2021-12-19T10:14:06Z</time>
      </trkpt>
      <trkpt lat="45.95801" lon="6.60995">
        <ele>1004.23</ele>
        <time>2021-12-19T10:14:09Z</time>
      </trkpt>
      <trkpt lat="45.95802" lon="6.60994">
        <ele>1004.23</ele>
        <time>2021-12-19T10:14:10Z</time>
      </trkpt>
      <trkpt lat="45.95803" lon="6.60993">
        <ele>1004.23</ele>
        <time>2021-12-19T10:14:11Z</time>
      </trkpt>
      <trkpt lat="45.95804" lon="6.60992">
        <ele>1004.23</ele>
        <time>2021-12-19T10:14:12Z</time>
      </trkpt>
      <trkpt lat="45.95805" lon="6.60991">
        <ele>1004.72</ele>
        <time>2021-12-19T10:14:13Z</time>
      </trkpt>
      <trkpt lat="45.95806" lon="6.6099">
        <ele>1004.72</ele>
        <time>2021-12-19T10:14:14Z</time>
      </trkpt>
      <trkpt lat="45.95819" lon="6.60975">
        <ele>1006.64</ele>
        <time>2021-12-19T10:14:28Z</time>
      </trkpt>
      <trkpt lat="45.9582" lon="6.60975">
        <ele>1007.12</ele>
        <time>2021-12-19T10:14:29Z</time>
      </trkpt>
      <trkpt lat="45.95821" lon="6.60974">
        <ele>1007.6</ele>
        <time>2021-12-19T10:14:30Z</time>
      </trkpt>
      <trkpt lat="45.95821" lon="6.60973">
        <ele>1007.6</ele>
        <time>2021-12-19T10:14:31Z</time>
      </trkpt>
      <trkpt lat="45.95822" lon="6.60973">
        <ele>1007.6</ele>
        <time>2021-12-19T10:14:32Z</time>
      </trkpt>
      <trkpt lat="45.95824" lon="6.60972">
        <ele>1007.6</ele>
        <time>2021-12-19T10:14:33Z</time>
      </trkpt>
      <trkpt lat="45.95838" lon="6.60955">
        <ele>1010.48</ele>
        <time>2021-12-19T10:14:50Z</time>
      </trkpt>
      <trkpt lat="45.95846" lon="6.60938">
        <ele>1011.93</ele>
        <time>2021-12-19T10:15:04Z</time>
      </trkpt>
      <trkpt lat="45.95846" lon="6.60937">
        <ele>1012.41</ele>
        <time>2021-12-19T10:15:05Z</time>
      </trkpt>
      <trkpt lat="45.95847" lon="6.60936">
        <ele>1012.41</ele>
        <time>2021-12-19T10:15:06Z</time>
      </trkpt>
      <trkpt lat="45.95847" lon="6.60935">
        <ele>1012.41</ele>
        <time>2021-12-19T10:15:07Z</time>
      </trkpt>
      <trkpt lat="45.95848" lon="6.60934">
        <ele>1012.41</ele>
        <time>2021-12-19T10:15:08Z</time>
      </trkpt>
      <trkpt lat="45.95848" lon="6.60933">
        <ele>1012.41</ele>
        <time>2021-12-19T10:15:09Z</time>
      </trkpt>
      <trkpt lat="45.95859" lon="6.60923">
        <ele>1014.81</ele>
        <time>2021-12-19T10:15:25Z</time>
      </trkpt>
      <trkpt lat="45.95865" lon="6.60909">
        <ele>1016.73</ele>
        <time>2021-12-19T10:15:35Z</time>
      </trkpt>
      <trkpt lat="45.95865" lon="6.60907">
        <ele>1017.21</ele>
        <time>2021-12-19T10:15:36Z</time>
      </trkpt>
      <trkpt lat="45.95866" lon="6.60905">
        <ele>1017.21</ele>
        <time>2021-12-19T10:15:37Z</time>
      </trkpt>
      <trkpt lat="45.95866" lon="6.60903">
        <ele>1017.21</ele>
        <time>2021-12-19T10:15:38Z</time>
      </trkpt>
      <trkpt lat="45.95866" lon="6.60901">
        <ele>1017.69</ele>
        <time>2021-12-19T10:15:39Z</time>
      </trkpt>
      <trkpt lat="45.95867" lon="6.609">
        <ele>1017.69</ele>
        <time>2021-12-19T10:15:40Z</time>
      </trkpt>
      <trkpt lat="45.95868" lon="6.60898">
        <ele>1018.17</ele>
        <time>2021-12-19T10:15:41Z</time>
      </trkpt>
      <trkpt lat="45.95869" lon="6.60897">
        <ele>1018.17</ele>
        <time>2021-12-19T10:15:42Z</time>
      </trkpt>
      <trkpt lat="45.95869" lon="6.60896">
        <ele>1018.17</ele>
        <time>2021-12-19T10:15:43Z</time>
      </trkpt>
      <trkpt lat="45.95871" lon="6.60892">
        <ele>1018.65</ele>
        <time>2021-12-19T10:15:46Z</time>
      </trkpt>
      <trkpt lat="45.95878" lon="6.60878">
        <ele>1021.54</ele>
        <time>2021-12-19T10:16:01Z</time>
      </trkpt>
      <trkpt lat="45.95885" lon="6.60865">
        <ele>1024.9</ele>
        <time>2021-12-19T10:16:17Z</time>
      </trkpt>
      <trkpt lat="45.95895" lon="6.60856">
        <ele>1027.79</ele>
        <time>2021-12-19T10:16:41Z</time>
      </trkpt>
      <trkpt lat="45.95903" lon="6.60845">
        <ele>1031.15</ele>
        <time>2021-12-19T10:16:58Z</time>
      </trkpt>
      <trkpt lat="45.95912" lon="6.60835">
        <ele>1034.04</ele>
        <time>2021-12-19T10:17:14Z</time>
      </trkpt>
      <trkpt lat="45.95913" lon="6.60819">
        <ele>1036.92</ele>
        <time>2021-12-19T10:17:30Z</time>
      </trkpt>
      <trkpt lat="45.9592" lon="6.60801">
        <ele>1040.28</ele>
        <time>2021-12-19T10:17:47Z</time>
      </trkpt>
      <trkpt lat="45.95921" lon="6.6078">
        <ele>1043.17</ele>
        <time>2021-12-19T10:18:04Z</time>
      </trkpt>
      <trkpt lat="45.95923" lon="6.60764">
        <ele>1046.53</ele>
        <time>2021-12-19T10:18:22Z</time>
      </trkpt>
      <trkpt lat="45.95931" lon="6.60761">
        <ele>1047.97</ele>
        <time>2021-12-19T10:18:49Z</time>
      </trkpt>
      <trkpt lat="45.95944" lon="6.60761">
        <ele>1047.97</ele>
        <time>2021-12-19T10:19:35Z</time>
      </trkpt>
      <trkpt lat="45.95943" lon="6.60764">
        <ele>1047.97</ele>
        <time>2021-12-19T10:19:48Z</time>
      </trkpt>
      <trkpt lat="45.95942" lon="6.60765">
        <ele>1047.97</ele>
        <time>2021-12-19T10:19:52Z</time>
      </trkpt>
      <trkpt lat="45.9593" lon="6.60758">
        <ele>1048.45</ele>
        <time>2021-12-19T10:20:32Z</time>
      </trkpt>
      <trkpt lat="45.95931" lon="6.60756">
        <ele>1048.45</ele>
        <time>2021-12-19T10:20:36Z</time>
      </trkpt>
      <trkpt lat="45.95936" lon="6.60741">
        <ele>1051.34</ele>
        <time>2021-12-19T10:20:51Z</time>
      </trkpt>
      <trkpt lat="45.95942" lon="6.60728">
        <ele>1054.22</ele>
        <time>2021-12-19T10:21:04Z</time>
      </trkpt>
      <trkpt lat="45.95945" lon="6.60718">
        <ele>1056.63</ele>
        <time>2021-12-19T10:21:14Z</time>
      </trkpt>
      <trkpt lat="45.95951" lon="6.60706">
        <ele>1059.99</ele>
        <time>2021-12-19T10:21:42Z</time>
      </trkpt>
      <trkpt lat="45.95948" lon="6.60707">
        <ele>1059.03</ele>
        <time>2021-12-19T10:22:37Z</time>
      </trkpt>
      <trkpt lat="45.95951" lon="6.60701">
        <ele>1060.47</ele>
        <time>2021-12-19T10:23:21Z</time>
      </trkpt>
      <trkpt lat="45.95966" lon="6.60683">
        <ele>1063.36</ele>
        <time>2021-12-19T10:23:39Z</time>
      </trkpt>
      <trkpt lat="45.95979" lon="6.60666">
        <ele>1066.72</ele>
        <time>2021-12-19T10:23:57Z</time>
      </trkpt>
      <trkpt lat="45.9599" lon="6.60658">
        <ele>1069.6</ele>
        <time>2021-12-19T10:24:11Z</time>
      </trkpt>
      <trkpt lat="45.96" lon="6.60646">
        <ele>1072.97</ele>
        <time>2021-12-19T10:24:25Z</time>
      </trkpt>
      <trkpt lat="45.96007" lon="6.60635">
        <ele>1075.85</ele>
        <time>2021-12-19T10:24:40Z</time>
      </trkpt>
      <trkpt lat="45.96012" lon="6.60623">
        <ele>1079.22</ele>
        <time>2021-12-19T10:24:53Z</time>
      </trkpt>
      <trkpt lat="45.96024" lon="6.6061">
        <ele>1082.1</ele>
        <time>2021-12-19T10:25:13Z</time>
      </trkpt>
      <trkpt lat="45.96036" lon="6.60591">
        <ele>1084.99</ele>
        <time>2021-12-19T10:25:34Z</time>
      </trkpt>
      <trkpt lat="45.96046" lon="6.60565">
        <ele>1087.39</ele>
        <time>2021-12-19T10:25:58Z</time>
      </trkpt>
      <trkpt lat="45.96049" lon="6.60549">
        <ele>1089.79</ele>
        <time>2021-12-19T10:26:11Z</time>
      </trkpt>
      <trkpt lat="45.96049" lon="6.60548">
        <ele>1089.79</ele>
        <time>2021-12-19T10:26:12Z</time>
      </trkpt>
      <trkpt lat="45.9605" lon="6.6054">
        <ele>1091.23</ele>
        <time>2021-12-19T10:26:20Z</time>
      </trkpt>
      <trkpt lat="45.96051" lon="6.60538">
        <ele>1091.71</ele>
        <time>2021-12-19T10:26:24Z</time>
      </trkpt>
      <trkpt lat="45.96055" lon="6.60532">
        <ele>1093.64</ele>
        <time>2021-12-19T10:26:31Z</time>
      </trkpt>
      <trkpt lat="45.96058" lon="6.60527">
        <ele>1094.12</ele>
        <time>2021-12-19T10:26:36Z</time>
      </trkpt>
      <trkpt lat="45.96058" lon="6.60523">
        <ele>1095.08</ele>
        <time>2021-12-19T10:26:39Z</time>
      </trkpt>
      <trkpt lat="45.96059" lon="6.60522">
        <ele>1095.08</ele>
        <time>2021-12-19T10:26:40Z</time>
      </trkpt>
      <trkpt lat="45.9606" lon="6.6052">
        <ele>1095.56</ele>
        <time>2021-12-19T10:26:41Z</time>
      </trkpt>
      <trkpt lat="45.96061" lon="6.60519">
        <ele>1095.56</ele>
        <time>2021-12-19T10:26:42Z</time>
      </trkpt>
      <trkpt lat="45.96062" lon="6.60518">
        <ele>1095.56</ele>
        <time>2021-12-19T10:26:43Z</time>
      </trkpt>
      <trkpt lat="45.96063" lon="6.60517">
        <ele>1096.04</ele>
        <time>2021-12-19T10:26:44Z</time>
      </trkpt>
      <trkpt lat="45.96066" lon="6.60512">
        <ele>1097</ele>
        <time>2021-12-19T10:26:49Z</time>
      </trkpt>
      <trkpt lat="45.96065" lon="6.60508">
        <ele>1097</ele>
        <time>2021-12-19T10:26:52Z</time>
      </trkpt>
      <trkpt lat="45.96066" lon="6.60507">
        <ele>1097.48</ele>
        <time>2021-12-19T10:26:53Z</time>
      </trkpt>
      <trkpt lat="45.96066" lon="6.60502">
        <ele>1098.92</ele>
        <time>2021-12-19T10:26:59Z</time>
      </trkpt>
      <trkpt lat="45.96068" lon="6.60496">
        <ele>1099.89</ele>
        <time>2021-12-19T10:27:05Z</time>
      </trkpt>
      <trkpt lat="45.9607" lon="6.60495">
        <ele>1099.89</ele>
        <time>2021-12-19T10:27:06Z</time>
      </trkpt>
      <trkpt lat="45.96076" lon="6.60488">
        <ele>1100.85</ele>
        <time>2021-12-19T10:27:12Z</time>
      </trkpt>
      <trkpt lat="45.96076" lon="6.60487">
        <ele>1101.33</ele>
        <time>2021-12-19T10:27:13Z</time>
      </trkpt>
      <trkpt lat="45.96084" lon="6.60476">
        <ele>1104.21</ele>
        <time>2021-12-19T10:27:25Z</time>
      </trkpt>
      <trkpt lat="45.96084" lon="6.60475">
        <ele>1104.21</ele>
        <time>2021-12-19T10:27:26Z</time>
      </trkpt>
      <trkpt lat="45.96085" lon="6.60473">
        <ele>1104.21</ele>
        <time>2021-12-19T10:27:27Z</time>
      </trkpt>
      <trkpt lat="45.96085" lon="6.60472">
        <ele>1104.21</ele>
        <time>2021-12-19T10:27:28Z</time>
      </trkpt>
      <trkpt lat="45.96086" lon="6.60471">
        <ele>1104.21</ele>
        <time>2021-12-19T10:27:29Z</time>
      </trkpt>
      <trkpt lat="45.96096" lon="6.60458">
        <ele>1104.69</ele>
        <time>2021-12-19T10:27:41Z</time>
      </trkpt>
      <trkpt lat="45.96096" lon="6.60458">
        <ele>1105.17</ele>
        <time>2021-12-19T10:27:42Z</time>
      </trkpt>
      <trkpt lat="45.9611" lon="6.60445">
        <ele>1107.1</ele>
        <time>2021-12-19T10:28:01Z</time>
      </trkpt>
      <trkpt lat="45.9611" lon="6.60444">
        <ele>1107.58</ele>
        <time>2021-12-19T10:28:02Z</time>
      </trkpt>
      <trkpt lat="45.96111" lon="6.60442">
        <ele>1107.58</ele>
        <time>2021-12-19T10:28:03Z</time>
      </trkpt>
      <trkpt lat="45.96111" lon="6.60441">
        <ele>1107.58</ele>
        <time>2021-12-19T10:28:04Z</time>
      </trkpt>
      <trkpt lat="45.96112" lon="6.60439">
        <ele>1107.58</ele>
        <time>2021-12-19T10:28:06Z</time>
      </trkpt>
      <trkpt lat="45.96112" lon="6.60437">
        <ele>1107.58</ele>
        <time>2021-12-19T10:28:07Z</time>
      </trkpt>
      <trkpt lat="45.96115" lon="6.60433">
        <ele>1108.54</ele>
        <time>2021-12-19T10:28:11Z</time>
      </trkpt>
      <trkpt lat="45.96121" lon="6.60415">
        <ele>1109.98</ele>
        <time>2021-12-19T10:28:25Z</time>
      </trkpt>
      <trkpt lat="45.96122" lon="6.60413">
        <ele>1109.98</ele>
        <time>2021-12-19T10:28:27Z</time>
      </trkpt>
      <trkpt lat="45.96129" lon="6.60402">
        <ele>1111.9</ele>
        <time>2021-12-19T10:28:37Z</time>
      </trkpt>
      <trkpt lat="45.96132" lon="6.60396">
        <ele>1112.86</ele>
        <time>2021-12-19T10:28:44Z</time>
      </trkpt>
      <trkpt lat="45.96135" lon="6.60387">
        <ele>1113.82</ele>
        <time>2021-12-19T10:28:51Z</time>
      </trkpt>
      <trkpt lat="45.96135" lon="6.60386">
        <ele>1114.31</ele>
        <time>2021-12-19T10:28:52Z</time>
      </trkpt>
      <trkpt lat="45.96143" lon="6.60363">
        <ele>1117.19</ele>
        <time>2021-12-19T10:29:12Z</time>
      </trkpt>
      <trkpt lat="45.96146" lon="6.60338">
        <ele>1120.07</ele>
        <time>2021-12-19T10:29:32Z</time>
      </trkpt>
      <trkpt lat="45.96146" lon="6.60311">
        <ele>1123.44</ele>
        <time>2021-12-19T10:29:52Z</time>
      </trkpt>
      <trkpt lat="45.96145" lon="6.60285">
        <ele>1126.8</ele>
        <time>2021-12-19T10:30:12Z</time>
      </trkpt>
      <trkpt lat="45.96146" lon="6.60265">
        <ele>1129.69</ele>
        <time>2021-12-19T10:30:30Z</time>
      </trkpt>
      <trkpt lat="45.96152" lon="6.60242">
        <ele>1132.57</ele>
        <time>2021-12-19T10:30:50Z</time>
      </trkpt>
      <trkpt lat="45.96161" lon="6.60235">
        <ele>1134.97</ele>
        <time>2021-12-19T10:31:03Z</time>
      </trkpt>
      <trkpt lat="45.96181" lon="6.60233">
        <ele>1138.34</ele>
        <time>2021-12-19T10:31:23Z</time>
      </trkpt>
      <trkpt lat="45.96196" lon="6.60227">
        <ele>1141.22</ele>
        <time>2021-12-19T10:31:40Z</time>
      </trkpt>
      <trkpt lat="45.96206" lon="6.60206">
        <ele>1144.11</ele>
        <time>2021-12-19T10:32:02Z</time>
      </trkpt>
      <trkpt lat="45.96222" lon="6.60193">
        <ele>1146.99</ele>
        <time>2021-12-19T10:32:24Z</time>
      </trkpt>
      <trkpt lat="45.96229" lon="6.60183">
        <ele>1149.87</ele>
        <time>2021-12-19T10:32:40Z</time>
      </trkpt>
      <trkpt lat="45.96216" lon="6.60171">
        <ele>1153.24</ele>
        <time>2021-12-19T10:32:59Z</time>
      </trkpt>
      <trkpt lat="45.96204" lon="6.60168">
        <ele>1156.12</ele>
        <time>2021-12-19T10:33:16Z</time>
      </trkpt>
      <trkpt lat="45.96181" lon="6.60164">
        <ele>1159.01</ele>
        <time>2021-12-19T10:33:38Z</time>
      </trkpt>
      <trkpt lat="45.96165" lon="6.60155">
        <ele>1161.41</ele>
        <time>2021-12-19T10:33:58Z</time>
      </trkpt>
      <trkpt lat="45.96165" lon="6.60153">
        <ele>1161.89</ele>
        <time>2021-12-19T10:34:00Z</time>
      </trkpt>
      <trkpt lat="45.96165" lon="6.60151">
        <ele>1162.37</ele>
        <time>2021-12-19T10:34:01Z</time>
      </trkpt>
      <trkpt lat="45.96164" lon="6.6015">
        <ele>1162.37</ele>
        <time>2021-12-19T10:34:02Z</time>
      </trkpt>
      <trkpt lat="45.96164" lon="6.60149">
        <ele>1162.37</ele>
        <time>2021-12-19T10:34:03Z</time>
      </trkpt>
      <trkpt lat="45.96164" lon="6.60147">
        <ele>1162.85</ele>
        <time>2021-12-19T10:34:04Z</time>
      </trkpt>
      <trkpt lat="45.96164" lon="6.60146">
        <ele>1162.85</ele>
        <time>2021-12-19T10:34:05Z</time>
      </trkpt>
      <trkpt lat="45.96164" lon="6.60145">
        <ele>1162.85</ele>
        <time>2021-12-19T10:34:06Z</time>
      </trkpt>
      <trkpt lat="45.96164" lon="6.60143">
        <ele>1163.33</ele>
        <time>2021-12-19T10:34:07Z</time>
      </trkpt>
      <trkpt lat="45.96165" lon="6.60141">
        <ele>1163.81</ele>
        <time>2021-12-19T10:34:09Z</time>
      </trkpt>
      <trkpt lat="45.96176" lon="6.60123">
        <ele>1166.7</ele>
        <time>2021-12-19T10:34:29Z</time>
      </trkpt>
      <trkpt lat="45.96194" lon="6.60112">
        <ele>1169.58</ele>
        <time>2021-12-19T10:34:49Z</time>
      </trkpt>
      <trkpt lat="45.96206" lon="6.60103">
        <ele>1172.95</ele>
        <time>2021-12-19T10:35:05Z</time>
      </trkpt>
      <trkpt lat="45.96219" lon="6.60084">
        <ele>1175.83</ele>
        <time>2021-12-19T10:35:28Z</time>
      </trkpt>
      <trkpt lat="45.96231" lon="6.60063">
        <ele>1178.71</ele>
        <time>2021-12-19T10:35:51Z</time>
      </trkpt>
      <trkpt lat="45.96245" lon="6.60041">
        <ele>1181.6</ele>
        <time>2021-12-19T10:36:15Z</time>
      </trkpt>
      <trkpt lat="45.96263" lon="6.60021">
        <ele>1181.6</ele>
        <time>2021-12-19T10:36:36Z</time>
      </trkpt>
      <trkpt lat="45.96271" lon="6.60013">
        <ele>1181.6</ele>
        <time>2021-12-19T10:36:42Z</time>
      </trkpt>
      <trkpt lat="45.96272" lon="6.60012">
        <ele>1181.6</ele>
        <time>2021-12-19T10:36:43Z</time>
      </trkpt>
      <trkpt lat="45.96273" lon="6.6001">
        <ele>1181.6</ele>
        <time>2021-12-19T10:36:45Z</time>
      </trkpt>
      <trkpt lat="45.96274" lon="6.60009">
        <ele>1182.08</ele>
        <time>2021-12-19T10:36:46Z</time>
      </trkpt>
      <trkpt lat="45.96276" lon="6.60008">
        <ele>1182.08</ele>
        <time>2021-12-19T10:36:47Z</time>
      </trkpt>
      <trkpt lat="45.96277" lon="6.60007">
        <ele>1182.08</ele>
        <time>2021-12-19T10:36:48Z</time>
      </trkpt>
      <trkpt lat="45.96278" lon="6.60007">
        <ele>1182.08</ele>
        <time>2021-12-19T10:36:49Z</time>
      </trkpt>
      <trkpt lat="45.96282" lon="6.60001">
        <ele>1183.04</ele>
        <time>2021-12-19T10:36:59Z</time>
      </trkpt>
      <trkpt lat="45.96283" lon="6.6">
        <ele>1183.52</ele>
        <time>2021-12-19T10:37:00Z</time>
      </trkpt>
      <trkpt lat="45.96283" lon="6.6">
        <ele>1183.52</ele>
        <time>2021-12-19T10:37:01Z</time>
      </trkpt>
      <trkpt lat="45.96285" lon="6.59999">
        <ele>1183.52</ele>
        <time>2021-12-19T10:37:02Z</time>
      </trkpt>
      <trkpt lat="45.96286" lon="6.59999">
        <ele>1184</ele>
        <time>2021-12-19T10:37:03Z</time>
      </trkpt>
      <trkpt lat="45.96294" lon="6.59994">
        <ele>1184.96</ele>
        <time>2021-12-19T10:37:12Z</time>
      </trkpt>
      <trkpt lat="45.96295" lon="6.59994">
        <ele>1185.44</ele>
        <time>2021-12-19T10:37:13Z</time>
      </trkpt>
      <trkpt lat="45.9631" lon="6.59987">
        <ele>1188.81</ele>
        <time>2021-12-19T10:37:30Z</time>
      </trkpt>
      <trkpt lat="45.96312" lon="6.59987">
        <ele>1188.81</ele>
        <time>2021-12-19T10:37:31Z</time>
      </trkpt>
      <trkpt lat="45.96313" lon="6.59986">
        <ele>1188.81</ele>
        <time>2021-12-19T10:37:32Z</time>
      </trkpt>
      <trkpt lat="45.96314" lon="6.59985">
        <ele>1189.29</ele>
        <time>2021-12-19T10:37:33Z</time>
      </trkpt>
      <trkpt lat="45.96315" lon="6.59985">
        <ele>1189.77</ele>
        <time>2021-12-19T10:37:34Z</time>
      </trkpt>
      <trkpt lat="45.96316" lon="6.59984">
        <ele>1189.77</ele>
        <time>2021-12-19T10:37:36Z</time>
      </trkpt>
      <trkpt lat="45.9632" lon="6.59982">
        <ele>1190.73</ele>
        <time>2021-12-19T10:37:41Z</time>
      </trkpt>
      <trkpt lat="45.96321" lon="6.59981">
        <ele>1191.21</ele>
        <time>2021-12-19T10:37:42Z</time>
      </trkpt>
      <trkpt lat="45.96326" lon="6.59976">
        <ele>1192.17</ele>
        <time>2021-12-19T10:37:49Z</time>
      </trkpt>
      <trkpt lat="45.96329" lon="6.59973">
        <ele>1193.13</ele>
        <time>2021-12-19T10:37:54Z</time>
      </trkpt>
      <trkpt lat="45.9633" lon="6.59972">
        <ele>1193.61</ele>
        <time>2021-12-19T10:37:57Z</time>
      </trkpt>
      <trkpt lat="45.96333" lon="6.59972">
        <ele>1193.61</ele>
        <time>2021-12-19T10:37:59Z</time>
      </trkpt>
      <trkpt lat="45.96335" lon="6.5997">
        <ele>1194.09</ele>
        <time>2021-12-19T10:38:03Z</time>
      </trkpt>
      <trkpt lat="45.96336" lon="6.59969">
        <ele>1194.09</ele>
        <time>2021-12-19T10:38:04Z</time>
      </trkpt>
      <trkpt lat="45.96343" lon="6.59962">
        <ele>1195.06</ele>
        <time>2021-12-19T10:38:12Z</time>
      </trkpt>
      <trkpt lat="45.96344" lon="6.59961">
        <ele>1195.06</ele>
        <time>2021-12-19T10:38:13Z</time>
      </trkpt>
      <trkpt lat="45.96345" lon="6.5996">
        <ele>1195.06</ele>
        <time>2021-12-19T10:38:14Z</time>
      </trkpt>
      <trkpt lat="45.96353" lon="6.59953">
        <ele>1196.02</ele>
        <time>2021-12-19T10:38:21Z</time>
      </trkpt>
      <trkpt lat="45.96354" lon="6.59952">
        <ele>1196.02</ele>
        <time>2021-12-19T10:38:22Z</time>
      </trkpt>
      <trkpt lat="45.96355" lon="6.59951">
        <ele>1196.02</ele>
        <time>2021-12-19T10:38:23Z</time>
      </trkpt>
      <trkpt lat="45.96358" lon="6.59949">
        <ele>1196.5</ele>
        <time>2021-12-19T10:38:26Z</time>
      </trkpt>
      <trkpt lat="45.96359" lon="6.59949">
        <ele>1196.5</ele>
        <time>2021-12-19T10:38:27Z</time>
      </trkpt>
      <trkpt lat="45.9636" lon="6.59949">
        <ele>1196.5</ele>
        <time>2021-12-19T10:38:28Z</time>
      </trkpt>
      <trkpt lat="45.96361" lon="6.59948">
        <ele>1196.5</ele>
        <time>2021-12-19T10:38:29Z</time>
      </trkpt>
      <trkpt lat="45.96362" lon="6.59946">
        <ele>1196.5</ele>
        <time>2021-12-19T10:38:30Z</time>
      </trkpt>
      <trkpt lat="45.96365" lon="6.59946">
        <ele>1196.5</ele>
        <time>2021-12-19T10:38:32Z</time>
      </trkpt>
      <trkpt lat="45.96366" lon="6.59945">
        <ele>1196.98</ele>
        <time>2021-12-19T10:38:33Z</time>
      </trkpt>
      <trkpt lat="45.96366" lon="6.59944">
        <ele>1196.98</ele>
        <time>2021-12-19T10:38:34Z</time>
      </trkpt>
      <trkpt lat="45.96367" lon="6.59943">
        <ele>1196.98</ele>
        <time>2021-12-19T10:38:35Z</time>
      </trkpt>
      <trkpt lat="45.96376" lon="6.59935">
        <ele>1198.42</ele>
        <time>2021-12-19T10:38:46Z</time>
      </trkpt>
      <trkpt lat="45.96381" lon="6.59931">
        <ele>1199.38</ele>
        <time>2021-12-19T10:38:53Z</time>
      </trkpt>
      <trkpt lat="45.96392" lon="6.59923">
        <ele>1200.82</ele>
        <time>2021-12-19T10:39:07Z</time>
      </trkpt>
      <trkpt lat="45.96398" lon="6.59923">
        <ele>1202.27</ele>
        <time>2021-12-19T10:39:14Z</time>
      </trkpt>
      <trkpt lat="45.96399" lon="6.59922">
        <ele>1202.27</ele>
        <time>2021-12-19T10:39:15Z</time>
      </trkpt>
      <trkpt lat="45.964" lon="6.59922">
        <ele>1202.27</ele>
        <time>2021-12-19T10:39:16Z</time>
      </trkpt>
      <trkpt lat="45.96403" lon="6.59919">
        <ele>1203.23</ele>
        <time>2021-12-19T10:39:21Z</time>
      </trkpt>
      <trkpt lat="45.96411" lon="6.59913">
        <ele>1204.67</ele>
        <time>2021-12-19T10:39:32Z</time>
      </trkpt>
      <trkpt lat="45.96412" lon="6.59912">
        <ele>1204.67</ele>
        <time>2021-12-19T10:39:33Z</time>
      </trkpt>
      <trkpt lat="45.96413" lon="6.59911">
        <ele>1205.15</ele>
        <time>2021-12-19T10:39:34Z</time>
      </trkpt>
      <trkpt lat="45.96415" lon="6.59907">
        <ele>1205.63</ele>
        <time>2021-12-19T10:39:39Z</time>
      </trkpt>
      <trkpt lat="45.96415" lon="6.59906">
        <ele>1205.63</ele>
        <time>2021-12-19T10:39:40Z</time>
      </trkpt>
      <trkpt lat="45.96419" lon="6.59902">
        <ele>1206.59</ele>
        <time>2021-12-19T10:39:46Z</time>
      </trkpt>
      <trkpt lat="45.9642" lon="6.59902">
        <ele>1206.59</ele>
        <time>2021-12-19T10:39:47Z</time>
      </trkpt>
      <trkpt lat="45.96421" lon="6.59902">
        <ele>1207.07</ele>
        <time>2021-12-19T10:39:48Z</time>
      </trkpt>
      <trkpt lat="45.96425" lon="6.59897">
        <ele>1208.03</ele>
        <time>2021-12-19T10:39:54Z</time>
      </trkpt>
      <trkpt lat="45.96426" lon="6.59896">
        <ele>1208.03</ele>
        <time>2021-12-19T10:39:55Z</time>
      </trkpt>
      <trkpt lat="45.96427" lon="6.59895">
        <ele>1208.03</ele>
        <time>2021-12-19T10:39:56Z</time>
      </trkpt>
      <trkpt lat="45.96445" lon="6.59882">
        <ele>1210.44</ele>
        <time>2021-12-19T10:40:17Z</time>
      </trkpt>
      <trkpt lat="45.96461" lon="6.59873">
        <ele>1213.8</ele>
        <time>2021-12-19T10:40:39Z</time>
      </trkpt>
      <trkpt lat="45.96481" lon="6.59866">
        <ele>1216.69</ele>
        <time>2021-12-19T10:41:01Z</time>
      </trkpt>
      <trkpt lat="45.96484" lon="6.59864">
        <ele>1217.17</ele>
        <time>2021-12-19T10:41:04Z</time>
      </trkpt>
      <trkpt lat="45.96494" lon="6.59856">
        <ele>1220.53</ele>
        <time>2021-12-19T10:41:22Z</time>
      </trkpt>
      <trkpt lat="45.96498" lon="6.59854">
        <ele>1221.97</ele>
        <time>2021-12-19T10:41:29Z</time>
      </trkpt>
      <trkpt lat="45.965" lon="6.59854">
        <ele>1222.45</ele>
        <time>2021-12-19T10:41:31Z</time>
      </trkpt>
      <trkpt lat="45.96504" lon="6.59853">
        <ele>1223.9</ele>
        <time>2021-12-19T10:41:37Z</time>
      </trkpt>
      <trkpt lat="45.96505" lon="6.59852">
        <ele>1224.38</ele>
        <time>2021-12-19T10:41:39Z</time>
      </trkpt>
      <trkpt lat="45.96517" lon="6.59852">
        <ele>1227.26</ele>
        <time>2021-12-19T10:41:56Z</time>
      </trkpt>
      <trkpt lat="45.96528" lon="6.59855">
        <ele>1230.62</ele>
        <time>2021-12-19T10:42:14Z</time>
      </trkpt>
      <trkpt lat="45.96539" lon="6.59856">
        <ele>1233.51</ele>
        <time>2021-12-19T10:42:30Z</time>
      </trkpt>
      <trkpt lat="45.96548" lon="6.59853">
        <ele>1236.39</ele>
        <time>2021-12-19T10:42:48Z</time>
      </trkpt>
      <trkpt lat="45.96554" lon="6.5985">
        <ele>1237.83</ele>
        <time>2021-12-19T10:42:57Z</time>
      </trkpt>
      <trkpt lat="45.96555" lon="6.59851">
        <ele>1237.83</ele>
        <time>2021-12-19T10:42:58Z</time>
      </trkpt>
      <trkpt lat="45.96568" lon="6.59854">
        <ele>1238.8</ele>
        <time>2021-12-19T10:43:15Z</time>
      </trkpt>
      <trkpt lat="45.9658" lon="6.59852">
        <ele>1242.16</ele>
        <time>2021-12-19T10:43:34Z</time>
      </trkpt>
      <trkpt lat="45.96592" lon="6.59851">
        <ele>1245.04</ele>
        <time>2021-12-19T10:43:48Z</time>
      </trkpt>
      <trkpt lat="45.96604" lon="6.5985">
        <ele>1248.41</ele>
        <time>2021-12-19T10:44:01Z</time>
      </trkpt>
      <trkpt lat="45.96615" lon="6.59844">
        <ele>1251.29</ele>
        <time>2021-12-19T10:44:20Z</time>
      </trkpt>
      <trkpt lat="45.96625" lon="6.59839">
        <ele>1254.18</ele>
        <time>2021-12-19T10:44:40Z</time>
      </trkpt>
      <trkpt lat="45.96629" lon="6.59841">
        <ele>1256.58</ele>
        <time>2021-12-19T10:44:53Z</time>
      </trkpt>
      <trkpt lat="45.96641" lon="6.59834">
        <ele>1258.5</ele>
        <time>2021-12-19T10:45:05Z</time>
      </trkpt>
      <trkpt lat="45.96651" lon="6.5983">
        <ele>1261.39</ele>
        <time>2021-12-19T10:45:21Z</time>
      </trkpt>
      <trkpt lat="45.96663" lon="6.59824">
        <ele>1264.75</ele>
        <time>2021-12-19T10:45:40Z</time>
      </trkpt>
      <trkpt lat="45.96675" lon="6.59811">
        <ele>1267.64</ele>
        <time>2021-12-19T10:45:58Z</time>
      </trkpt>
      <trkpt lat="45.96687" lon="6.59805">
        <ele>1271</ele>
        <time>2021-12-19T10:46:14Z</time>
      </trkpt>
      <trkpt lat="45.96692" lon="6.59796">
        <ele>1274.36</ele>
        <time>2021-12-19T10:46:30Z</time>
      </trkpt>
      <trkpt lat="45.96689" lon="6.59793">
        <ele>1276.29</ele>
        <time>2021-12-19T10:46:42Z</time>
      </trkpt>
      <trkpt lat="45.96678" lon="6.59792">
        <ele>1279.17</ele>
        <time>2021-12-19T10:47:01Z</time>
      </trkpt>
      <trkpt lat="45.96665" lon="6.59794">
        <ele>1282.54</ele>
        <time>2021-12-19T10:47:17Z</time>
      </trkpt>
      <trkpt lat="45.96661" lon="6.59789">
        <ele>1283.02</ele>
        <time>2021-12-19T10:47:23Z</time>
      </trkpt>
      <trkpt lat="45.9666" lon="6.59787">
        <ele>1283.5</ele>
        <time>2021-12-19T10:47:25Z</time>
      </trkpt>
      <trkpt lat="45.96649" lon="6.59777">
        <ele>1286.38</ele>
        <time>2021-12-19T10:47:42Z</time>
      </trkpt>
      <trkpt lat="45.96635" lon="6.5977">
        <ele>1289.27</ele>
        <time>2021-12-19T10:47:59Z</time>
      </trkpt>
      <trkpt lat="45.9662" lon="6.59763">
        <ele>1292.63</ele>
        <time>2021-12-19T10:48:18Z</time>
      </trkpt>
      <trkpt lat="45.96611" lon="6.5975">
        <ele>1295.51</ele>
        <time>2021-12-19T10:48:35Z</time>
      </trkpt>
      <trkpt lat="45.96607" lon="6.59743">
        <ele>1297.44</ele>
        <time>2021-12-19T10:48:44Z</time>
      </trkpt>
      <trkpt lat="45.96605" lon="6.59739">
        <ele>1298.4</ele>
        <time>2021-12-19T10:48:48Z</time>
      </trkpt>
      <trkpt lat="45.96605" lon="6.59738">
        <ele>1298.4</ele>
        <time>2021-12-19T10:48:49Z</time>
      </trkpt>
      <trkpt lat="45.96606" lon="6.59736">
        <ele>1298.4</ele>
        <time>2021-12-19T10:48:50Z</time>
      </trkpt>
      <trkpt lat="45.96606" lon="6.59735">
        <ele>1298.4</ele>
        <time>2021-12-19T10:48:51Z</time>
      </trkpt>
      <trkpt lat="45.96617" lon="6.59733">
        <ele>1299.84</ele>
        <time>2021-12-19T10:49:03Z</time>
      </trkpt>
      <trkpt lat="45.96631" lon="6.59734">
        <ele>1301.76</ele>
        <time>2021-12-19T10:49:38Z</time>
      </trkpt>
      <trkpt lat="45.96626" lon="6.59737">
        <ele>1301.76</ele>
        <time>2021-12-19T10:49:56Z</time>
      </trkpt>
      <trkpt lat="45.96624" lon="6.59737">
        <ele>1301.76</ele>
        <time>2021-12-19T10:50:06Z</time>
      </trkpt>
      <trkpt lat="45.96632" lon="6.59734">
        <ele>1304.17</ele>
        <time>2021-12-19T10:50:54Z</time>
      </trkpt>
      <trkpt lat="45.96641" lon="6.59727">
        <ele>1305.61</ele>
        <time>2021-12-19T10:51:12Z</time>
      </trkpt>
      <trkpt lat="45.96652" lon="6.59723">
        <ele>1308.97</ele>
        <time>2021-12-19T10:51:28Z</time>
      </trkpt>
      <trkpt lat="45.96662" lon="6.59725">
        <ele>1312.34</ele>
        <time>2021-12-19T10:51:45Z</time>
      </trkpt>
      <trkpt lat="45.96672" lon="6.59724">
        <ele>1315.22</ele>
        <time>2021-12-19T10:52:01Z</time>
      </trkpt>
      <trkpt lat="45.96682" lon="6.5972">
        <ele>1318.1</ele>
        <time>2021-12-19T10:52:14Z</time>
      </trkpt>
      <trkpt lat="45.96686" lon="6.59711">
        <ele>1320.03</ele>
        <time>2021-12-19T10:52:25Z</time>
      </trkpt>
      <trkpt lat="45.96683" lon="6.59702">
        <ele>1321.95</ele>
        <time>2021-12-19T10:52:36Z</time>
      </trkpt>
      <trkpt lat="45.96682" lon="6.59701">
        <ele>1321.95</ele>
        <time>2021-12-19T10:52:37Z</time>
      </trkpt>
      <trkpt lat="45.96681" lon="6.59701">
        <ele>1322.43</ele>
        <time>2021-12-19T10:52:38Z</time>
      </trkpt>
      <trkpt lat="45.96669" lon="6.597">
        <ele>1325.31</ele>
        <time>2021-12-19T10:52:56Z</time>
      </trkpt>
      <trkpt lat="45.9666" lon="6.59696">
        <ele>1327.72</ele>
        <time>2021-12-19T10:53:09Z</time>
      </trkpt>
      <trkpt lat="45.96658" lon="6.59694">
        <ele>1328.2</ele>
        <time>2021-12-19T10:53:13Z</time>
      </trkpt>
      <trkpt lat="45.96652" lon="6.59689">
        <ele>1330.6</ele>
        <time>2021-12-19T10:53:23Z</time>
      </trkpt>
      <trkpt lat="45.96643" lon="6.59677">
        <ele>1333.49</ele>
        <time>2021-12-19T10:53:42Z</time>
      </trkpt>
      <trkpt lat="45.96638" lon="6.59667">
        <ele>1335.89</ele>
        <time>2021-12-19T10:53:54Z</time>
      </trkpt>
      <trkpt lat="45.96636" lon="6.59663">
        <ele>1336.37</ele>
        <time>2021-12-19T10:53:58Z</time>
      </trkpt>
      <trkpt lat="45.96634" lon="6.59658">
        <ele>1337.81</ele>
        <time>2021-12-19T10:54:04Z</time>
      </trkpt>
      <trkpt lat="45.96634" lon="6.59657">
        <ele>1338.29</ele>
        <time>2021-12-19T10:54:05Z</time>
      </trkpt>
      <trkpt lat="45.96634" lon="6.59656">
        <ele>1338.29</ele>
        <time>2021-12-19T10:54:06Z</time>
      </trkpt>
      <trkpt lat="45.96634" lon="6.59653">
        <ele>1338.77</ele>
        <time>2021-12-19T10:54:09Z</time>
      </trkpt>
      <trkpt lat="45.96636" lon="6.5965">
        <ele>1339.73</ele>
        <time>2021-12-19T10:54:13Z</time>
      </trkpt>
      <trkpt lat="45.96644" lon="6.59651">
        <ele>1341.18</ele>
        <time>2021-12-19T10:54:28Z</time>
      </trkpt>
      <trkpt lat="45.96653" lon="6.59661">
        <ele>1344.54</ele>
        <time>2021-12-19T10:54:46Z</time>
      </trkpt>
      <trkpt lat="45.96663" lon="6.59669">
        <ele>1347.43</ele>
        <time>2021-12-19T10:55:02Z</time>
      </trkpt>
      <trkpt lat="45.96672" lon="6.59667">
        <ele>1350.31</ele>
        <time>2021-12-19T10:55:16Z</time>
      </trkpt>
      <trkpt lat="45.96683" lon="6.5966">
        <ele>1353.19</ele>
        <time>2021-12-19T10:55:34Z</time>
      </trkpt>
      <trkpt lat="45.96686" lon="6.59657">
        <ele>1354.63</ele>
        <time>2021-12-19T10:55:39Z</time>
      </trkpt>
      <trkpt lat="45.96686" lon="6.59655">
        <ele>1354.63</ele>
        <time>2021-12-19T10:55:41Z</time>
      </trkpt>
      <trkpt lat="45.96686" lon="6.59648">
        <ele>1356.08</ele>
        <time>2021-12-19T10:55:49Z</time>
      </trkpt>
      <trkpt lat="45.96691" lon="6.59637">
        <ele>1358.96</ele>
        <time>2021-12-19T10:56:05Z</time>
      </trkpt>
      <trkpt lat="45.96698" lon="6.59629">
        <ele>1361.84</ele>
        <time>2021-12-19T10:56:18Z</time>
      </trkpt>
      <trkpt lat="45.96702" lon="6.59628">
        <ele>1362.81</ele>
        <time>2021-12-19T10:56:24Z</time>
      </trkpt>
      <trkpt lat="45.96703" lon="6.59628">
        <ele>1362.81</ele>
        <time>2021-12-19T10:56:25Z</time>
      </trkpt>
      <trkpt lat="45.96717" lon="6.59631">
        <ele>1365.69</ele>
        <time>2021-12-19T10:56:42Z</time>
      </trkpt>
      <trkpt lat="45.96723" lon="6.59635">
        <ele>1368.57</ele>
        <time>2021-12-19T10:57:01Z</time>
      </trkpt>
      <trkpt lat="45.96734" lon="6.5964">
        <ele>1371.94</ele>
        <time>2021-12-19T10:57:20Z</time>
      </trkpt>
      <trkpt lat="45.96737" lon="6.59641">
        <ele>1372.9</ele>
        <time>2021-12-19T10:57:25Z</time>
      </trkpt>
      <trkpt lat="45.96743" lon="6.59647">
        <ele>1373.38</ele>
        <time>2021-12-19T10:57:30Z</time>
      </trkpt>
      <trkpt lat="45.96744" lon="6.59648">
        <ele>1373.38</ele>
        <time>2021-12-19T10:57:31Z</time>
      </trkpt>
      <trkpt lat="45.96746" lon="6.59649">
        <ele>1373.38</ele>
        <time>2021-12-19T10:57:33Z</time>
      </trkpt>
      <trkpt lat="45.96748" lon="6.5965">
        <ele>1373.38</ele>
        <time>2021-12-19T10:57:35Z</time>
      </trkpt>
      <trkpt lat="45.9676" lon="6.5966">
        <ele>1376.26</ele>
        <time>2021-12-19T10:58:01Z</time>
      </trkpt>
      <trkpt lat="45.96761" lon="6.5966">
        <ele>1376.26</ele>
        <time>2021-12-19T10:58:04Z</time>
      </trkpt>
      <trkpt lat="45.96773" lon="6.59661">
        <ele>1377.71</ele>
        <time>2021-12-19T10:58:18Z</time>
      </trkpt>
      <trkpt lat="45.96785" lon="6.59665">
        <ele>1380.59</ele>
        <time>2021-12-19T10:58:36Z</time>
      </trkpt>
      <trkpt lat="45.96794" lon="6.59667">
        <ele>1383.96</ele>
        <time>2021-12-19T10:58:52Z</time>
      </trkpt>
      <trkpt lat="45.96801" lon="6.59669">
        <ele>1385.88</ele>
        <time>2021-12-19T10:59:01Z</time>
      </trkpt>
      <trkpt lat="45.96802" lon="6.59669">
        <ele>1385.88</ele>
        <time>2021-12-19T10:59:02Z</time>
      </trkpt>
      <trkpt lat="45.96811" lon="6.59673">
        <ele>1388.76</ele>
        <time>2021-12-19T10:59:17Z</time>
      </trkpt>
      <trkpt lat="45.96819" lon="6.59676">
        <ele>1392.13</ele>
        <time>2021-12-19T10:59:31Z</time>
      </trkpt>
      <trkpt lat="45.96828" lon="6.59679">
        <ele>1395.01</ele>
        <time>2021-12-19T10:59:47Z</time>
      </trkpt>
      <trkpt lat="45.96836" lon="6.59679">
        <ele>1398.37</ele>
        <time>2021-12-19T11:00:02Z</time>
      </trkpt>
      <trkpt lat="45.96844" lon="6.59681">
        <ele>1401.26</ele>
        <time>2021-12-19T11:00:16Z</time>
      </trkpt>
      <trkpt lat="45.96849" lon="6.59679">
        <ele>1402.7</ele>
        <time>2021-12-19T11:00:24Z</time>
      </trkpt>
      <trkpt lat="45.96852" lon="6.59671">
        <ele>1404.14</ele>
        <time>2021-12-19T11:00:34Z</time>
      </trkpt>
      <trkpt lat="45.96856" lon="6.59671">
        <ele>1405.58</ele>
        <time>2021-12-19T11:01:25Z</time>
      </trkpt>
      <trkpt lat="45.96855" lon="6.59672">
        <ele>1405.58</ele>
        <time>2021-12-19T11:01:32Z</time>
      </trkpt>
      <trkpt lat="45.96854" lon="6.5967">
        <ele>1405.58</ele>
        <time>2021-12-19T11:01:34Z</time>
      </trkpt>
      <trkpt lat="45.96843" lon="6.59657">
        <ele>1408.47</ele>
        <time>2021-12-19T11:02:00Z</time>
      </trkpt>
      <trkpt lat="45.9684" lon="6.59656">
        <ele>1409.91</ele>
        <time>2021-12-19T11:02:05Z</time>
      </trkpt>
      <trkpt lat="45.96839" lon="6.59655">
        <ele>1409.91</ele>
        <time>2021-12-19T11:02:06Z</time>
      </trkpt>
      <trkpt lat="45.96831" lon="6.59644">
        <ele>1412.79</ele>
        <time>2021-12-19T11:02:25Z</time>
      </trkpt>
      <trkpt lat="45.96827" lon="6.59633">
        <ele>1416.16</ele>
        <time>2021-12-19T11:02:41Z</time>
      </trkpt>
      <trkpt lat="45.96821" lon="6.5962">
        <ele>1419.52</ele>
        <time>2021-12-19T11:02:57Z</time>
      </trkpt>
      <trkpt lat="45.96814" lon="6.59611">
        <ele>1422.41</ele>
        <time>2021-12-19T11:03:11Z</time>
      </trkpt>
      <trkpt lat="45.96824" lon="6.596">
        <ele>1425.77</ele>
        <time>2021-12-19T11:03:30Z</time>
      </trkpt>
      <trkpt lat="45.96828" lon="6.59605">
        <ele>1426.73</ele>
        <time>2021-12-19T11:03:36Z</time>
      </trkpt>
      <trkpt lat="45.96838" lon="6.59607">
        <ele>1429.62</ele>
        <time>2021-12-19T11:03:51Z</time>
      </trkpt>
      <trkpt lat="45.96838" lon="6.59599">
        <ele>1430.58</ele>
        <time>2021-12-19T11:04:00Z</time>
      </trkpt>
      <trkpt lat="45.96832" lon="6.59593">
        <ele>1432.98</ele>
        <time>2021-12-19T11:04:11Z</time>
      </trkpt>
      <trkpt lat="45.96821" lon="6.59581">
        <ele>1435.87</ele>
        <time>2021-12-19T11:04:28Z</time>
      </trkpt>
      <trkpt lat="45.9681" lon="6.59562">
        <ele>1439.23</ele>
        <time>2021-12-19T11:04:49Z</time>
      </trkpt>
      <trkpt lat="45.968" lon="6.59559">
        <ele>1442.11</ele>
        <time>2021-12-19T11:05:03Z</time>
      </trkpt>
      <trkpt lat="45.96786" lon="6.59555">
        <ele>1445</ele>
        <time>2021-12-19T11:05:21Z</time>
      </trkpt>
      <trkpt lat="45.96785" lon="6.59554">
        <ele>1445</ele>
        <time>2021-12-19T11:05:22Z</time>
      </trkpt>
      <trkpt lat="45.96785" lon="6.59553">
        <ele>1445.48</ele>
        <time>2021-12-19T11:05:23Z</time>
      </trkpt>
      <trkpt lat="45.96784" lon="6.59538">
        <ele>1448.36</ele>
        <time>2021-12-19T11:05:41Z</time>
      </trkpt>
      <trkpt lat="45.96787" lon="6.59533">
        <ele>1449.81</ele>
        <time>2021-12-19T11:05:47Z</time>
      </trkpt>
      <trkpt lat="45.96797" lon="6.59532">
        <ele>1452.21</ele>
        <time>2021-12-19T11:05:59Z</time>
      </trkpt>
      <trkpt lat="45.96798" lon="6.59532">
        <ele>1452.21</ele>
        <time>2021-12-19T11:06:00Z</time>
      </trkpt>
      <trkpt lat="45.96806" lon="6.59531">
        <ele>1454.61</ele>
        <time>2021-12-19T11:06:08Z</time>
      </trkpt>
      <trkpt lat="45.96808" lon="6.59529">
        <ele>1456.05</ele>
        <time>2021-12-19T11:06:15Z</time>
      </trkpt>
      <trkpt lat="45.96811" lon="6.59515">
        <ele>1459.42</ele>
        <time>2021-12-19T11:06:31Z</time>
      </trkpt>
      <trkpt lat="45.96807" lon="6.5951">
        <ele>1460.38</ele>
        <time>2021-12-19T11:06:38Z</time>
      </trkpt>
      <trkpt lat="45.96807" lon="6.5951">
        <ele>1460.38</ele>
        <time>2021-12-19T11:06:39Z</time>
      </trkpt>
      <trkpt lat="45.96806" lon="6.5951">
        <ele>1460.86</ele>
        <time>2021-12-19T11:06:40Z</time>
      </trkpt>
      <trkpt lat="45.96793" lon="6.59501">
        <ele>1464.23</ele>
        <time>2021-12-19T11:06:57Z</time>
      </trkpt>
      <trkpt lat="45.96785" lon="6.59489">
        <ele>1467.11</ele>
        <time>2021-12-19T11:07:12Z</time>
      </trkpt>
      <trkpt lat="45.96774" lon="6.5948">
        <ele>1469.99</ele>
        <time>2021-12-19T11:07:26Z</time>
      </trkpt>
      <trkpt lat="45.96768" lon="6.59477">
        <ele>1471.92</ele>
        <time>2021-12-19T11:07:33Z</time>
      </trkpt>
      <trkpt lat="45.96767" lon="6.59477">
        <ele>1471.92</ele>
        <time>2021-12-19T11:07:34Z</time>
      </trkpt>
      <trkpt lat="45.96765" lon="6.59477">
        <ele>1472.4</ele>
        <time>2021-12-19T11:07:36Z</time>
      </trkpt>
      <trkpt lat="45.96759" lon="6.59475">
        <ele>1473.84</ele>
        <time>2021-12-19T11:07:43Z</time>
      </trkpt>
      <trkpt lat="45.96758" lon="6.59474">
        <ele>1474.32</ele>
        <time>2021-12-19T11:07:44Z</time>
      </trkpt>
      <trkpt lat="45.96757" lon="6.59474">
        <ele>1474.8</ele>
        <time>2021-12-19T11:07:45Z</time>
      </trkpt>
      <trkpt lat="45.96756" lon="6.59473">
        <ele>1474.8</ele>
        <time>2021-12-19T11:07:46Z</time>
      </trkpt>
      <trkpt lat="45.96755" lon="6.59471">
        <ele>1475.28</ele>
        <time>2021-12-19T11:07:48Z</time>
      </trkpt>
      <trkpt lat="45.96754" lon="6.5947">
        <ele>1475.76</ele>
        <time>2021-12-19T11:07:50Z</time>
      </trkpt>
      <trkpt lat="45.96753" lon="6.59468">
        <ele>1476.24</ele>
        <time>2021-12-19T11:07:51Z</time>
      </trkpt>
      <trkpt lat="45.96751" lon="6.59461">
        <ele>1477.2</ele>
        <time>2021-12-19T11:07:58Z</time>
      </trkpt>
      <trkpt lat="45.96761" lon="6.59458">
        <ele>1480.57</ele>
        <time>2021-12-19T11:08:15Z</time>
      </trkpt>
      <trkpt lat="45.96771" lon="6.59454">
        <ele>1483.45</ele>
        <time>2021-12-19T11:08:30Z</time>
      </trkpt>
      <trkpt lat="45.96783" lon="6.59455">
        <ele>1486.34</ele>
        <time>2021-12-19T11:08:45Z</time>
      </trkpt>
      <trkpt lat="45.96789" lon="6.59453">
        <ele>1487.3</ele>
        <time>2021-12-19T11:08:51Z</time>
      </trkpt>
      <trkpt lat="45.96799" lon="6.59456">
        <ele>1490.18</ele>
        <time>2021-12-19T11:09:04Z</time>
      </trkpt>
      <trkpt lat="45.9681" lon="6.59458">
        <ele>1493.55</ele>
        <time>2021-12-19T11:09:18Z</time>
      </trkpt>
      <trkpt lat="45.96818" lon="6.59458">
        <ele>1496.91</ele>
        <time>2021-12-19T11:09:30Z</time>
      </trkpt>
      <trkpt lat="45.96832" lon="6.59458">
        <ele>1499.79</ele>
        <time>2021-12-19T11:09:46Z</time>
      </trkpt>
      <trkpt lat="45.96838" lon="6.59455">
        <ele>1501.72</ele>
        <time>2021-12-19T11:10:28Z</time>
      </trkpt>
      <trkpt lat="45.96838" lon="6.59457">
        <ele>1501.72</ele>
        <time>2021-12-19T11:10:40Z</time>
      </trkpt>
      <trkpt lat="45.96839" lon="6.59458">
        <ele>1502.2</ele>
        <time>2021-12-19T11:10:53Z</time>
      </trkpt>
      <trkpt lat="45.96838" lon="6.59458">
        <ele>1502.68</ele>
        <time>2021-12-19T11:11:06Z</time>
      </trkpt>
      <trkpt lat="45.96837" lon="6.59459">
        <ele>1502.68</ele>
        <time>2021-12-19T11:11:18Z</time>
      </trkpt>
      <trkpt lat="45.96836" lon="6.5946">
        <ele>1502.68</ele>
        <time>2021-12-19T11:11:29Z</time>
      </trkpt>
      <trkpt lat="45.96837" lon="6.59461">
        <ele>1503.16</ele>
        <time>2021-12-19T11:11:39Z</time>
      </trkpt>
      <trkpt lat="45.96836" lon="6.59463">
        <ele>1503.16</ele>
        <time>2021-12-19T11:11:50Z</time>
      </trkpt>
      <trkpt lat="45.96837" lon="6.59465">
        <ele>1503.16</ele>
        <time>2021-12-19T11:11:58Z</time>
      </trkpt>
      <trkpt lat="45.96837" lon="6.59463">
        <ele>1502.68</ele>
        <time>2021-12-19T11:12:09Z</time>
      </trkpt>
      <trkpt lat="45.96839" lon="6.59457">
        <ele>1502.68</ele>
        <time>2021-12-19T11:12:14Z</time>
      </trkpt>
      <trkpt lat="45.9684" lon="6.59456">
        <ele>1502.68</ele>
        <time>2021-12-19T11:12:15Z</time>
      </trkpt>
      <trkpt lat="45.96854" lon="6.59439">
        <ele>1505.56</ele>
        <time>2021-12-19T11:12:35Z</time>
      </trkpt>
      <trkpt lat="45.96858" lon="6.59423">
        <ele>1508.45</ele>
        <time>2021-12-19T11:12:50Z</time>
      </trkpt>
      <trkpt lat="45.96858" lon="6.59422">
        <ele>1508.45</ele>
        <time>2021-12-19T11:12:51Z</time>
      </trkpt>
      <trkpt lat="45.96864" lon="6.59399">
        <ele>1509.89</ele>
        <time>2021-12-19T11:13:09Z</time>
      </trkpt>
      <trkpt lat="45.96867" lon="6.59385">
        <ele>1510.85</ele>
        <time>2021-12-19T11:13:21Z</time>
      </trkpt>
      <trkpt lat="45.96868" lon="6.59361">
        <ele>1513.25</ele>
        <time>2021-12-19T11:13:38Z</time>
      </trkpt>
      <trkpt lat="45.96867" lon="6.59347">
        <ele>1514.69</ele>
        <time>2021-12-19T11:13:56Z</time>
      </trkpt>
      <trkpt lat="45.96867" lon="6.59348">
        <ele>1515.18</ele>
        <time>2021-12-19T11:14:10Z</time>
      </trkpt>
      <trkpt lat="45.96866" lon="6.59342">
        <ele>1514.69</ele>
        <time>2021-12-19T11:15:11Z</time>
      </trkpt>
      <trkpt lat="45.96866" lon="6.59342">
        <ele>1515.18</ele>
        <time>2021-12-19T11:16:15Z</time>
      </trkpt>
      <trkpt lat="45.96861" lon="6.59313">
        <ele>1516.62</ele>
        <time>2021-12-19T11:16:36Z</time>
      </trkpt>
      <trkpt lat="45.9686" lon="6.59306">
        <ele>1516.62</ele>
        <time>2021-12-19T11:16:40Z</time>
      </trkpt>
      <trkpt lat="45.96859" lon="6.59305">
        <ele>1517.1</ele>
        <time>2021-12-19T11:16:41Z</time>
      </trkpt>
      <trkpt lat="45.96858" lon="6.59298">
        <ele>1517.58</ele>
        <time>2021-12-19T11:16:46Z</time>
      </trkpt>
      <trkpt lat="45.96858" lon="6.59295">
        <ele>1518.06</ele>
        <time>2021-12-19T11:16:48Z</time>
      </trkpt>
      <trkpt lat="45.96858" lon="6.59294">
        <ele>1518.06</ele>
        <time>2021-12-19T11:16:49Z</time>
      </trkpt>
      <trkpt lat="45.96855" lon="6.59279">
        <ele>1519.98</ele>
        <time>2021-12-19T11:17:00Z</time>
      </trkpt>
      <trkpt lat="45.96855" lon="6.59277">
        <ele>1519.98</ele>
        <time>2021-12-19T11:17:01Z</time>
      </trkpt>
      <trkpt lat="45.96855" lon="6.59275">
        <ele>1519.98</ele>
        <time>2021-12-19T11:17:02Z</time>
      </trkpt>
      <trkpt lat="45.96854" lon="6.59274">
        <ele>1519.98</ele>
        <time>2021-12-19T11:17:03Z</time>
      </trkpt>
      <trkpt lat="45.96853" lon="6.59273">
        <ele>1519.98</ele>
        <time>2021-12-19T11:17:04Z</time>
      </trkpt>
      <trkpt lat="45.96853" lon="6.59272">
        <ele>1519.98</ele>
        <time>2021-12-19T11:17:05Z</time>
      </trkpt>
      <trkpt lat="45.9685" lon="6.59258">
        <ele>1520.46</ele>
        <time>2021-12-19T11:17:15Z</time>
      </trkpt>
      <trkpt lat="45.96843" lon="6.59232">
        <ele>1521.42</ele>
        <time>2021-12-19T11:17:38Z</time>
      </trkpt>
      <trkpt lat="45.96836" lon="6.59207">
        <ele>1522.39</ele>
        <time>2021-12-19T11:17:56Z</time>
      </trkpt>
      <trkpt lat="45.96834" lon="6.59183">
        <ele>1523.35</ele>
        <time>2021-12-19T11:18:12Z</time>
      </trkpt>
      <trkpt lat="45.96834" lon="6.59181">
        <ele>1523.35</ele>
        <time>2021-12-19T11:18:13Z</time>
      </trkpt>
      <trkpt lat="45.96834" lon="6.5918">
        <ele>1523.35</ele>
        <time>2021-12-19T11:18:14Z</time>
      </trkpt>
      <trkpt lat="45.96834" lon="6.59179">
        <ele>1523.83</ele>
        <time>2021-12-19T11:18:15Z</time>
      </trkpt>
      <trkpt lat="45.96834" lon="6.59177">
        <ele>1523.83</ele>
        <time>2021-12-19T11:18:16Z</time>
      </trkpt>
      <trkpt lat="45.96833" lon="6.59176">
        <ele>1523.83</ele>
        <time>2021-12-19T11:18:17Z</time>
      </trkpt>
      <trkpt lat="45.96832" lon="6.59166">
        <ele>1524.79</ele>
        <time>2021-12-19T11:18:24Z</time>
      </trkpt>
      <trkpt lat="45.96833" lon="6.59164">
        <ele>1524.79</ele>
        <time>2021-12-19T11:18:25Z</time>
      </trkpt>
      <trkpt lat="45.96833" lon="6.59162">
        <ele>1525.27</ele>
        <time>2021-12-19T11:18:27Z</time>
      </trkpt>
      <trkpt lat="45.96834" lon="6.5916">
        <ele>1525.75</ele>
        <time>2021-12-19T11:18:28Z</time>
      </trkpt>
      <trkpt lat="45.96834" lon="6.59159">
        <ele>1525.75</ele>
        <time>2021-12-19T11:18:29Z</time>
      </trkpt>
      <trkpt lat="45.96839" lon="6.59133">
        <ele>1528.63</ele>
        <time>2021-12-19T11:18:49Z</time>
      </trkpt>
      <trkpt lat="45.96842" lon="6.59107">
        <ele>1531.52</ele>
        <time>2021-12-19T11:19:10Z</time>
      </trkpt>
      <trkpt lat="45.96843" lon="6.59081">
        <ele>1534.4</ele>
        <time>2021-12-19T11:19:32Z</time>
      </trkpt>
      <trkpt lat="45.96839" lon="6.59057">
        <ele>1534.88</ele>
        <time>2021-12-19T11:19:50Z</time>
      </trkpt>
      <trkpt lat="45.96832" lon="6.59034">
        <ele>1535.84</ele>
        <time>2021-12-19T11:20:07Z</time>
      </trkpt>
      <trkpt lat="45.9683" lon="6.59026">
        <ele>1535.84</ele>
        <time>2021-12-19T11:20:12Z</time>
      </trkpt>
      <trkpt lat="45.96829" lon="6.59025">
        <ele>1535.84</ele>
        <time>2021-12-19T11:20:13Z</time>
      </trkpt>
      <trkpt lat="45.96829" lon="6.59021">
        <ele>1535.84</ele>
        <time>2021-12-19T11:20:16Z</time>
      </trkpt>
      <trkpt lat="45.96829" lon="6.59019">
        <ele>1535.84</ele>
        <time>2021-12-19T11:20:17Z</time>
      </trkpt>
      <trkpt lat="45.96828" lon="6.59015">
        <ele>1536.32</ele>
        <time>2021-12-19T11:20:21Z</time>
      </trkpt>
      <trkpt lat="45.96827" lon="6.59012">
        <ele>1536.32</ele>
        <time>2021-12-19T11:20:23Z</time>
      </trkpt>
      <trkpt lat="45.96821" lon="6.58993">
        <ele>1537.77</ele>
        <time>2021-12-19T11:20:37Z</time>
      </trkpt>
      <trkpt lat="45.9682" lon="6.5899">
        <ele>1538.25</ele>
        <time>2021-12-19T11:20:40Z</time>
      </trkpt>
      <trkpt lat="45.96813" lon="6.58968">
        <ele>1541.13</ele>
        <time>2021-12-19T11:21:00Z</time>
      </trkpt>
      <trkpt lat="45.9681" lon="6.58949">
        <ele>1543.05</ele>
        <time>2021-12-19T11:21:15Z</time>
      </trkpt>
      <trkpt lat="45.9681" lon="6.58947">
        <ele>1543.05</ele>
        <time>2021-12-19T11:21:16Z</time>
      </trkpt>
      <trkpt lat="45.9681" lon="6.58946">
        <ele>1543.53</ele>
        <time>2021-12-19T11:21:17Z</time>
      </trkpt>
      <trkpt lat="45.96811" lon="6.58944">
        <ele>1543.53</ele>
        <time>2021-12-19T11:21:18Z</time>
      </trkpt>
      <trkpt lat="45.96811" lon="6.58943">
        <ele>1543.53</ele>
        <time>2021-12-19T11:21:19Z</time>
      </trkpt>
      <trkpt lat="45.96813" lon="6.58924">
        <ele>1546.42</ele>
        <time>2021-12-19T11:21:38Z</time>
      </trkpt>
      <trkpt lat="45.96813" lon="6.58912">
        <ele>1547.38</ele>
        <time>2021-12-19T11:21:47Z</time>
      </trkpt>
      <trkpt lat="45.96813" lon="6.5891">
        <ele>1547.38</ele>
        <time>2021-12-19T11:21:48Z</time>
      </trkpt>
      <trkpt lat="45.96813" lon="6.58909">
        <ele>1547.38</ele>
        <time>2021-12-19T11:21:49Z</time>
      </trkpt>
      <trkpt lat="45.96814" lon="6.58881">
        <ele>1548.34</ele>
        <time>2021-12-19T11:22:08Z</time>
      </trkpt>
      <trkpt lat="45.96813" lon="6.5888">
        <ele>1548.82</ele>
        <time>2021-12-19T11:22:09Z</time>
      </trkpt>
      <trkpt lat="45.96813" lon="6.58878">
        <ele>1548.82</ele>
        <time>2021-12-19T11:22:10Z</time>
      </trkpt>
      <trkpt lat="45.96814" lon="6.58877">
        <ele>1548.82</ele>
        <time>2021-12-19T11:22:11Z</time>
      </trkpt>
      <trkpt lat="45.96814" lon="6.58876">
        <ele>1548.82</ele>
        <time>2021-12-19T11:22:12Z</time>
      </trkpt>
      <trkpt lat="45.96814" lon="6.58874">
        <ele>1548.82</ele>
        <time>2021-12-19T11:22:13Z</time>
      </trkpt>
      <trkpt lat="45.96814" lon="6.58873">
        <ele>1548.82</ele>
        <time>2021-12-19T11:22:14Z</time>
      </trkpt>
      <trkpt lat="45.96814" lon="6.58871">
        <ele>1549.3</ele>
        <time>2021-12-19T11:22:15Z</time>
      </trkpt>
      <trkpt lat="45.96814" lon="6.58867">
        <ele>1549.3</ele>
        <time>2021-12-19T11:22:18Z</time>
      </trkpt>
      <trkpt lat="45.96813" lon="6.58865">
        <ele>1549.3</ele>
        <time>2021-12-19T11:22:19Z</time>
      </trkpt>
      <trkpt lat="45.96813" lon="6.58864">
        <ele>1549.3</ele>
        <time>2021-12-19T11:22:20Z</time>
      </trkpt>
      <trkpt lat="45.96813" lon="6.58863">
        <ele>1549.3</ele>
        <time>2021-12-19T11:22:21Z</time>
      </trkpt>
      <trkpt lat="45.96813" lon="6.58861">
        <ele>1549.3</ele>
        <time>2021-12-19T11:22:22Z</time>
      </trkpt>
      <trkpt lat="45.96813" lon="6.5886">
        <ele>1549.78</ele>
        <time>2021-12-19T11:22:23Z</time>
      </trkpt>
      <trkpt lat="45.96813" lon="6.58858">
        <ele>1549.78</ele>
        <time>2021-12-19T11:22:24Z</time>
      </trkpt>
      <trkpt lat="45.96813" lon="6.58856">
        <ele>1549.78</ele>
        <time>2021-12-19T11:22:25Z</time>
      </trkpt>
      <trkpt lat="45.96813" lon="6.58855">
        <ele>1549.78</ele>
        <time>2021-12-19T11:22:26Z</time>
      </trkpt>
      <trkpt lat="45.96813" lon="6.5884">
        <ele>1551.22</ele>
        <time>2021-12-19T11:22:37Z</time>
      </trkpt>
      <trkpt lat="45.96813" lon="6.58839">
        <ele>1551.22</ele>
        <time>2021-12-19T11:22:38Z</time>
      </trkpt>
      <trkpt lat="45.96812" lon="6.58837">
        <ele>1551.22</ele>
        <time>2021-12-19T11:22:39Z</time>
      </trkpt>
      <trkpt lat="45.96812" lon="6.58836">
        <ele>1551.71</ele>
        <time>2021-12-19T11:22:40Z</time>
      </trkpt>
      <trkpt lat="45.96812" lon="6.58811">
        <ele>1554.11</ele>
        <time>2021-12-19T11:23:01Z</time>
      </trkpt>
      <trkpt lat="45.96811" lon="6.58782">
        <ele>1554.11</ele>
        <time>2021-12-19T11:23:17Z</time>
      </trkpt>
      <trkpt lat="45.96808" lon="6.58755">
        <ele>1552.19</ele>
        <time>2021-12-19T11:23:26Z</time>
      </trkpt>
      <trkpt lat="45.96806" lon="6.58725">
        <ele>1548.82</ele>
        <time>2021-12-19T11:23:33Z</time>
      </trkpt>
      <trkpt lat="45.96807" lon="6.58714">
        <ele>1546.9</ele>
        <time>2021-12-19T11:23:35Z</time>
      </trkpt>
      <trkpt lat="45.9681" lon="6.5871">
        <ele>1546.42</ele>
        <time>2021-12-19T11:23:36Z</time>
      </trkpt>
      <trkpt lat="45.96817" lon="6.587">
        <ele>1544.98</ele>
        <time>2021-12-19T11:23:38Z</time>
      </trkpt>
      <trkpt lat="45.9682" lon="6.58696">
        <ele>1544.01</ele>
        <time>2021-12-19T11:23:39Z</time>
      </trkpt>
      <trkpt lat="45.96821" lon="6.58691">
        <ele>1543.53</ele>
        <time>2021-12-19T11:23:40Z</time>
      </trkpt>
      <trkpt lat="45.96823" lon="6.58686">
        <ele>1542.57</ele>
        <time>2021-12-19T11:23:42Z</time>
      </trkpt>
      <trkpt lat="45.96824" lon="6.58682">
        <ele>1543.05</ele>
        <time>2021-12-19T11:23:44Z</time>
      </trkpt>
      <trkpt lat="45.96824" lon="6.5868">
        <ele>1543.05</ele>
        <time>2021-12-19T11:23:45Z</time>
      </trkpt>
      <trkpt lat="45.96824" lon="6.58678">
        <ele>1543.05</ele>
        <time>2021-12-19T11:23:46Z</time>
      </trkpt>
      <trkpt lat="45.96823" lon="6.58675">
        <ele>1542.57</ele>
        <time>2021-12-19T11:23:47Z</time>
      </trkpt>
      <trkpt lat="45.96823" lon="6.58674">
        <ele>1542.57</ele>
        <time>2021-12-19T11:23:48Z</time>
      </trkpt>
      <trkpt lat="45.96823" lon="6.58672">
        <ele>1542.57</ele>
        <time>2021-12-19T11:23:49Z</time>
      </trkpt>
      <trkpt lat="45.96818" lon="6.58644">
        <ele>1543.53</ele>
        <time>2021-12-19T11:24:14Z</time>
      </trkpt>
      <trkpt lat="45.96814" lon="6.58617">
        <ele>1544.98</ele>
        <time>2021-12-19T11:24:36Z</time>
      </trkpt>
      <trkpt lat="45.96813" lon="6.58614">
        <ele>1544.98</ele>
        <time>2021-12-19T11:24:38Z</time>
      </trkpt>
      <trkpt lat="45.96813" lon="6.58612">
        <ele>1544.98</ele>
        <time>2021-12-19T11:24:39Z</time>
      </trkpt>
      <trkpt lat="45.96813" lon="6.5861">
        <ele>1544.98</ele>
        <time>2021-12-19T11:24:40Z</time>
      </trkpt>
      <trkpt lat="45.96813" lon="6.58609">
        <ele>1545.46</ele>
        <time>2021-12-19T11:24:41Z</time>
      </trkpt>
      <trkpt lat="45.96812" lon="6.58608">
        <ele>1545.46</ele>
        <time>2021-12-19T11:24:42Z</time>
      </trkpt>
      <trkpt lat="45.96812" lon="6.58606">
        <ele>1545.46</ele>
        <time>2021-12-19T11:24:43Z</time>
      </trkpt>
      <trkpt lat="45.96806" lon="6.58586">
        <ele>1546.42</ele>
        <time>2021-12-19T11:24:56Z</time>
      </trkpt>
      <trkpt lat="45.968" lon="6.58571">
        <ele>1547.38</ele>
        <time>2021-12-19T11:25:12Z</time>
      </trkpt>
      <trkpt lat="45.968" lon="6.58569">
        <ele>1547.86</ele>
        <time>2021-12-19T11:25:13Z</time>
      </trkpt>
      <trkpt lat="45.96799" lon="6.58569">
        <ele>1547.86</ele>
        <time>2021-12-19T11:25:14Z</time>
      </trkpt>
      <trkpt lat="45.96799" lon="6.58567">
        <ele>1547.86</ele>
        <time>2021-12-19T11:25:15Z</time>
      </trkpt>
      <trkpt lat="45.96799" lon="6.58566">
        <ele>1548.34</ele>
        <time>2021-12-19T11:25:16Z</time>
      </trkpt>
      <trkpt lat="45.96799" lon="6.58565">
        <ele>1548.82</ele>
        <time>2021-12-19T11:25:33Z</time>
      </trkpt>
      <trkpt lat="45.96798" lon="6.58563">
        <ele>1548.82</ele>
        <time>2021-12-19T11:25:35Z</time>
      </trkpt>
      <trkpt lat="45.96798" lon="6.58562">
        <ele>1548.82</ele>
        <time>2021-12-19T11:25:36Z</time>
      </trkpt>
      <trkpt lat="45.96791" lon="6.58536">
        <ele>1550.26</ele>
        <time>2021-12-19T11:25:54Z</time>
      </trkpt>
      <trkpt lat="45.96785" lon="6.5851">
        <ele>1552.19</ele>
        <time>2021-12-19T11:26:12Z</time>
      </trkpt>
      <trkpt lat="45.96777" lon="6.58487">
        <ele>1554.11</ele>
        <time>2021-12-19T11:26:31Z</time>
      </trkpt>
      <trkpt lat="45.96762" lon="6.58471">
        <ele>1556.03</ele>
        <time>2021-12-19T11:26:53Z</time>
      </trkpt>
      <trkpt lat="45.96757" lon="6.58463">
        <ele>1556.99</ele>
        <time>2021-12-19T11:27:00Z</time>
      </trkpt>
      <trkpt lat="45.96757" lon="6.58461">
        <ele>1556.99</ele>
        <time>2021-12-19T11:27:01Z</time>
      </trkpt>
      <trkpt lat="45.96756" lon="6.58459">
        <ele>1556.99</ele>
        <time>2021-12-19T11:27:02Z</time>
      </trkpt>
      <trkpt lat="45.96751" lon="6.58448">
        <ele>1556.03</ele>
        <time>2021-12-19T11:27:08Z</time>
      </trkpt>
      <trkpt lat="45.9675" lon="6.58447">
        <ele>1556.03</ele>
        <time>2021-12-19T11:27:09Z</time>
      </trkpt>
      <trkpt lat="45.96747" lon="6.58444">
        <ele>1556.51</ele>
        <time>2021-12-19T11:27:12Z</time>
      </trkpt>
      <trkpt lat="45.96746" lon="6.58443">
        <ele>1556.51</ele>
        <time>2021-12-19T11:27:13Z</time>
      </trkpt>
      <trkpt lat="45.96746" lon="6.58442">
        <ele>1556.99</ele>
        <time>2021-12-19T11:27:14Z</time>
      </trkpt>
      <trkpt lat="45.96747" lon="6.58422">
        <ele>1559.88</ele>
        <time>2021-12-19T11:27:35Z</time>
      </trkpt>
      <trkpt lat="45.96746" lon="6.58418">
        <ele>1560.84</ele>
        <time>2021-12-19T11:27:38Z</time>
      </trkpt>
      <trkpt lat="45.96746" lon="6.58417">
        <ele>1560.84</ele>
        <time>2021-12-19T11:27:39Z</time>
      </trkpt>
      <trkpt lat="45.96745" lon="6.58415">
        <ele>1560.84</ele>
        <time>2021-12-19T11:27:40Z</time>
      </trkpt>
      <trkpt lat="45.96745" lon="6.58414">
        <ele>1561.32</ele>
        <time>2021-12-19T11:27:41Z</time>
      </trkpt>
      <trkpt lat="45.96745" lon="6.58413">
        <ele>1561.32</ele>
        <time>2021-12-19T11:27:42Z</time>
      </trkpt>
      <trkpt lat="45.96745" lon="6.58411">
        <ele>1561.32</ele>
        <time>2021-12-19T11:27:43Z</time>
      </trkpt>
      <trkpt lat="45.96739" lon="6.58386">
        <ele>1563.24</ele>
        <time>2021-12-19T11:28:02Z</time>
      </trkpt>
      <trkpt lat="45.96734" lon="6.58365">
        <ele>1564.68</ele>
        <time>2021-12-19T11:28:17Z</time>
      </trkpt>
      <trkpt lat="45.96734" lon="6.58364">
        <ele>1564.68</ele>
        <time>2021-12-19T11:28:18Z</time>
      </trkpt>
      <trkpt lat="45.96733" lon="6.58363">
        <ele>1564.68</ele>
        <time>2021-12-19T11:28:19Z</time>
      </trkpt>
      <trkpt lat="45.96733" lon="6.58361">
        <ele>1565.16</ele>
        <time>2021-12-19T11:28:20Z</time>
      </trkpt>
      <trkpt lat="45.96725" lon="6.58338">
        <ele>1566.61</ele>
        <time>2021-12-19T11:28:39Z</time>
      </trkpt>
      <trkpt lat="45.96719" lon="6.58328">
        <ele>1568.53</ele>
        <time>2021-12-19T11:28:49Z</time>
      </trkpt>
      <trkpt lat="45.96715" lon="6.58315">
        <ele>1569.97</ele>
        <time>2021-12-19T11:28:59Z</time>
      </trkpt>
      <trkpt lat="45.96714" lon="6.58314">
        <ele>1569.97</ele>
        <time>2021-12-19T11:29:00Z</time>
      </trkpt>
      <trkpt lat="45.96705" lon="6.58294">
        <ele>1572.85</ele>
        <time>2021-12-19T11:29:22Z</time>
      </trkpt>
      <trkpt lat="45.96698" lon="6.58268">
        <ele>1574.78</ele>
        <time>2021-12-19T11:29:43Z</time>
      </trkpt>
      <trkpt lat="45.96694" lon="6.58258">
        <ele>1576.7</ele>
        <time>2021-12-19T11:29:54Z</time>
      </trkpt>
      <trkpt lat="45.9669" lon="6.58242">
        <ele>1578.62</ele>
        <time>2021-12-19T11:30:07Z</time>
      </trkpt>
      <trkpt lat="45.96686" lon="6.58234">
        <ele>1579.58</ele>
        <time>2021-12-19T11:30:14Z</time>
      </trkpt>
      <trkpt lat="45.96686" lon="6.58234">
        <ele>1579.58</ele>
        <time>2021-12-19T11:30:15Z</time>
      </trkpt>
      <trkpt lat="45.96685" lon="6.58232">
        <ele>1579.58</ele>
        <time>2021-12-19T11:30:16Z</time>
      </trkpt>
      <trkpt lat="45.96676" lon="6.58211">
        <ele>1582.47</ele>
        <time>2021-12-19T11:30:37Z</time>
      </trkpt>
      <trkpt lat="45.96667" lon="6.58189">
        <ele>1585.35</ele>
        <time>2021-12-19T11:30:59Z</time>
      </trkpt>
      <trkpt lat="45.96659" lon="6.5817">
        <ele>1588.24</ele>
        <time>2021-12-19T11:31:20Z</time>
      </trkpt>
      <trkpt lat="45.9665" lon="6.58148">
        <ele>1590.64</ele>
        <time>2021-12-19T11:31:41Z</time>
      </trkpt>
      <trkpt lat="45.96644" lon="6.58126">
        <ele>1594</ele>
        <time>2021-12-19T11:32:01Z</time>
      </trkpt>
      <trkpt lat="45.96641" lon="6.58107">
        <ele>1596.89</ele>
        <time>2021-12-19T11:32:20Z</time>
      </trkpt>
      <trkpt lat="45.96638" lon="6.58086">
        <ele>1599.77</ele>
        <time>2021-12-19T11:32:39Z</time>
      </trkpt>
      <trkpt lat="45.96635" lon="6.58064">
        <ele>1603.14</ele>
        <time>2021-12-19T11:33:01Z</time>
      </trkpt>
      <trkpt lat="45.96632" lon="6.58038">
        <ele>1606.02</ele>
        <time>2021-12-19T11:33:24Z</time>
      </trkpt>
      <trkpt lat="45.96629" lon="6.5802">
        <ele>1609.38</ele>
        <time>2021-12-19T11:33:43Z</time>
      </trkpt>
      <trkpt lat="45.96617" lon="6.58002">
        <ele>1611.31</ele>
        <time>2021-12-19T11:34:04Z</time>
      </trkpt>
      <trkpt lat="45.96609" lon="6.57979">
        <ele>1613.23</ele>
        <time>2021-12-19T11:34:25Z</time>
      </trkpt>
      <trkpt lat="45.96609" lon="6.57956">
        <ele>1616.11</ele>
        <time>2021-12-19T11:34:45Z</time>
      </trkpt>
      <trkpt lat="45.96606" lon="6.57929">
        <ele>1619</ele>
        <time>2021-12-19T11:35:07Z</time>
      </trkpt>
      <trkpt lat="45.96604" lon="6.57925">
        <ele>1620.44</ele>
        <time>2021-12-19T11:35:12Z</time>
      </trkpt>
      <trkpt lat="45.96593" lon="6.57909">
        <ele>1623.8</ele>
        <time>2021-12-19T11:35:31Z</time>
      </trkpt>
      <trkpt lat="45.9659" lon="6.579">
        <ele>1625.25</ele>
        <time>2021-12-19T11:35:41Z</time>
      </trkpt>
      <trkpt lat="45.96582" lon="6.57892">
        <ele>1627.65</ele>
        <time>2021-12-19T11:36:42Z</time>
      </trkpt>
      <trkpt lat="45.96581" lon="6.57891">
        <ele>1627.17</ele>
        <time>2021-12-19T11:38:13Z</time>
      </trkpt>
      <trkpt lat="45.9658" lon="6.57886">
        <ele>1628.13</ele>
        <time>2021-12-19T11:38:50Z</time>
      </trkpt>
      <trkpt lat="45.96579" lon="6.57885">
        <ele>1628.13</ele>
        <time>2021-12-19T11:38:51Z</time>
      </trkpt>
      <trkpt lat="45.96566" lon="6.57868">
        <ele>1631.01</ele>
        <time>2021-12-19T11:39:13Z</time>
      </trkpt>
      <trkpt lat="45.96555" lon="6.5786">
        <ele>1633.42</ele>
        <time>2021-12-19T11:39:28Z</time>
      </trkpt>
      <trkpt lat="45.96551" lon="6.57857">
        <ele>1634.38</ele>
        <time>2021-12-19T11:39:33Z</time>
      </trkpt>
      <trkpt lat="45.96537" lon="6.57842">
        <ele>1637.26</ele>
        <time>2021-12-19T11:39:56Z</time>
      </trkpt>
      <trkpt lat="45.96528" lon="6.57825">
        <ele>1640.63</ele>
        <time>2021-12-19T11:40:17Z</time>
      </trkpt>
      <trkpt lat="45.96518" lon="6.57811">
        <ele>1643.51</ele>
        <time>2021-12-19T11:40:35Z</time>
      </trkpt>
      <trkpt lat="45.9651" lon="6.57799">
        <ele>1645.91</ele>
        <time>2021-12-19T11:40:53Z</time>
      </trkpt>
      <trkpt lat="45.96507" lon="6.57794">
        <ele>1646.4</ele>
        <time>2021-12-19T11:40:59Z</time>
      </trkpt>
      <trkpt lat="45.96507" lon="6.57793">
        <ele>1646.4</ele>
        <time>2021-12-19T11:41:00Z</time>
      </trkpt>
      <trkpt lat="45.96503" lon="6.57785">
        <ele>1647.84</ele>
        <time>2021-12-19T11:41:10Z</time>
      </trkpt>
      <trkpt lat="45.96503" lon="6.57783">
        <ele>1647.84</ele>
        <time>2021-12-19T11:41:12Z</time>
      </trkpt>
      <trkpt lat="45.96498" lon="6.57769">
        <ele>1651.2</ele>
        <time>2021-12-19T11:41:27Z</time>
      </trkpt>
      <trkpt lat="45.96498" lon="6.57768">
        <ele>1651.2</ele>
        <time>2021-12-19T11:41:28Z</time>
      </trkpt>
      <trkpt lat="45.96491" lon="6.57745">
        <ele>1654.09</ele>
        <time>2021-12-19T11:41:51Z</time>
      </trkpt>
      <trkpt lat="45.9649" lon="6.57738">
        <ele>1655.05</ele>
        <time>2021-12-19T11:41:58Z</time>
      </trkpt>
      <trkpt lat="45.96488" lon="6.57718">
        <ele>1658.41</ele>
        <time>2021-12-19T11:42:18Z</time>
      </trkpt>
      <trkpt lat="45.96489" lon="6.57712">
        <ele>1658.89</ele>
        <time>2021-12-19T11:42:24Z</time>
      </trkpt>
      <trkpt lat="45.96486" lon="6.577">
        <ele>1660.81</ele>
        <time>2021-12-19T11:42:37Z</time>
      </trkpt>
      <trkpt lat="45.9648" lon="6.57688">
        <ele>1663.7</ele>
        <time>2021-12-19T11:42:53Z</time>
      </trkpt>
      <trkpt lat="45.96479" lon="6.57686">
        <ele>1664.18</ele>
        <time>2021-12-19T11:42:55Z</time>
      </trkpt>
      <trkpt lat="45.96475" lon="6.57661">
        <ele>1667.06</ele>
        <time>2021-12-19T11:43:17Z</time>
      </trkpt>
      <trkpt lat="45.96472" lon="6.57645">
        <ele>1670.43</ele>
        <time>2021-12-19T11:43:35Z</time>
      </trkpt>
      <trkpt lat="45.96465" lon="6.57631">
        <ele>1673.31</ele>
        <time>2021-12-19T11:43:53Z</time>
      </trkpt>
      <trkpt lat="45.96459" lon="6.57612">
        <ele>1676.2</ele>
        <time>2021-12-19T11:44:12Z</time>
      </trkpt>
      <trkpt lat="45.96458" lon="6.57608">
        <ele>1677.64</ele>
        <time>2021-12-19T11:44:18Z</time>
      </trkpt>
      <trkpt lat="45.96456" lon="6.57604">
        <ele>1678.12</ele>
        <time>2021-12-19T11:44:23Z</time>
      </trkpt>
      <trkpt lat="45.96448" lon="6.57589">
        <ele>1681</ele>
        <time>2021-12-19T11:44:40Z</time>
      </trkpt>
      <trkpt lat="45.96443" lon="6.57572">
        <ele>1684.37</ele>
        <time>2021-12-19T11:45:00Z</time>
      </trkpt>
      <trkpt lat="45.96437" lon="6.57564">
        <ele>1686.29</ele>
        <time>2021-12-19T11:45:12Z</time>
      </trkpt>
      <trkpt lat="45.96436" lon="6.57563">
        <ele>1686.77</ele>
        <time>2021-12-19T11:45:14Z</time>
      </trkpt>
      <trkpt lat="45.96433" lon="6.5756">
        <ele>1687.25</ele>
        <time>2021-12-19T11:45:19Z</time>
      </trkpt>
      <trkpt lat="45.96431" lon="6.57559">
        <ele>1687.73</ele>
        <time>2021-12-19T11:45:21Z</time>
      </trkpt>
      <trkpt lat="45.96427" lon="6.57552">
        <ele>1689.17</ele>
        <time>2021-12-19T11:45:30Z</time>
      </trkpt>
      <trkpt lat="45.96426" lon="6.57547">
        <ele>1689.65</ele>
        <time>2021-12-19T11:45:36Z</time>
      </trkpt>
      <trkpt lat="45.96423" lon="6.57528">
        <ele>1693.02</ele>
        <time>2021-12-19T11:45:55Z</time>
      </trkpt>
      <trkpt lat="45.96422" lon="6.57507">
        <ele>1695.9</ele>
        <time>2021-12-19T11:46:15Z</time>
      </trkpt>
      <trkpt lat="45.96419" lon="6.5749">
        <ele>1698.79</ele>
        <time>2021-12-19T11:46:34Z</time>
      </trkpt>
      <trkpt lat="45.96417" lon="6.57484">
        <ele>1699.75</ele>
        <time>2021-12-19T11:46:40Z</time>
      </trkpt>
      <trkpt lat="45.96418" lon="6.57474">
        <ele>1701.67</ele>
        <time>2021-12-19T11:46:49Z</time>
      </trkpt>
      <trkpt lat="45.96422" lon="6.5746">
        <ele>1704.07</ele>
        <time>2021-12-19T11:47:05Z</time>
      </trkpt>
      <trkpt lat="45.96422" lon="6.57453">
        <ele>1705.04</ele>
        <time>2021-12-19T11:47:11Z</time>
      </trkpt>
      <trkpt lat="45.96421" lon="6.57452">
        <ele>1705.04</ele>
        <time>2021-12-19T11:47:12Z</time>
      </trkpt>
      <trkpt lat="45.96419" lon="6.57433">
        <ele>1707.92</ele>
        <time>2021-12-19T11:47:32Z</time>
      </trkpt>
      <trkpt lat="45.96413" lon="6.57416">
        <ele>1710.8</ele>
        <time>2021-12-19T11:48:01Z</time>
      </trkpt>
      <trkpt lat="45.96405" lon="6.57399">
        <ele>1714.17</ele>
        <time>2021-12-19T11:48:23Z</time>
      </trkpt>
      <trkpt lat="45.96399" lon="6.57382">
        <ele>1717.05</ele>
        <time>2021-12-19T11:48:43Z</time>
      </trkpt>
      <trkpt lat="45.96397" lon="6.57377">
        <ele>1718.01</ele>
        <time>2021-12-19T11:48:49Z</time>
      </trkpt>
      <trkpt lat="45.96396" lon="6.57375">
        <ele>1718.97</ele>
        <time>2021-12-19T11:48:51Z</time>
      </trkpt>
      <trkpt lat="45.96393" lon="6.57372">
        <ele>1719.46</ele>
        <time>2021-12-19T11:48:55Z</time>
      </trkpt>
      <trkpt lat="45.96392" lon="6.57371">
        <ele>1719.94</ele>
        <time>2021-12-19T11:48:57Z</time>
      </trkpt>
      <trkpt lat="45.96387" lon="6.57352">
        <ele>1722.82</ele>
        <time>2021-12-19T11:49:20Z</time>
      </trkpt>
      <trkpt lat="45.96385" lon="6.57339">
        <ele>1726.18</ele>
        <time>2021-12-19T11:49:36Z</time>
      </trkpt>
      <trkpt lat="45.96382" lon="6.57329">
        <ele>1727.63</ele>
        <time>2021-12-19T11:49:48Z</time>
      </trkpt>
      <trkpt lat="45.96382" lon="6.57328">
        <ele>1727.63</ele>
        <time>2021-12-19T11:49:49Z</time>
      </trkpt>
      <trkpt lat="45.96376" lon="6.57315">
        <ele>1730.99</ele>
        <time>2021-12-19T11:50:09Z</time>
      </trkpt>
      <trkpt lat="45.96369" lon="6.57298">
        <ele>1733.88</ele>
        <time>2021-12-19T11:50:30Z</time>
      </trkpt>
      <trkpt lat="45.96362" lon="6.57282">
        <ele>1737.24</ele>
        <time>2021-12-19T11:50:51Z</time>
      </trkpt>
      <trkpt lat="45.96362" lon="6.57281">
        <ele>1737.24</ele>
        <time>2021-12-19T11:50:52Z</time>
      </trkpt>
      <trkpt lat="45.96351" lon="6.57268">
        <ele>1740.6</ele>
        <time>2021-12-19T11:51:14Z</time>
      </trkpt>
      <trkpt lat="45.96339" lon="6.57259">
        <ele>1743.49</ele>
        <time>2021-12-19T11:51:34Z</time>
      </trkpt>
      <trkpt lat="45.96331" lon="6.57251">
        <ele>1746.37</ele>
        <time>2021-12-19T11:51:51Z</time>
      </trkpt>
      <trkpt lat="45.96328" lon="6.57243">
        <ele>1747.33</ele>
        <time>2021-12-19T11:52:00Z</time>
      </trkpt>
      <trkpt lat="45.96326" lon="6.57224">
        <ele>1750.22</ele>
        <time>2021-12-19T11:52:21Z</time>
      </trkpt>
      <trkpt lat="45.9632" lon="6.57203">
        <ele>1753.58</ele>
        <time>2021-12-19T11:52:44Z</time>
      </trkpt>
      <trkpt lat="45.9631" lon="6.57194">
        <ele>1756.47</ele>
        <time>2021-12-19T11:53:04Z</time>
      </trkpt>
      <trkpt lat="45.96307" lon="6.5718">
        <ele>1759.83</ele>
        <time>2021-12-19T11:53:23Z</time>
      </trkpt>
      <trkpt lat="45.96306" lon="6.57176">
        <ele>1760.31</ele>
        <time>2021-12-19T11:53:27Z</time>
      </trkpt>
      <trkpt lat="45.96302" lon="6.57156">
        <ele>1763.2</ele>
        <time>2021-12-19T11:53:49Z</time>
      </trkpt>
      <trkpt lat="45.963" lon="6.5714">
        <ele>1766.56</ele>
        <time>2021-12-19T11:54:08Z</time>
      </trkpt>
      <trkpt lat="45.96295" lon="6.57125">
        <ele>1769.44</ele>
        <time>2021-12-19T11:54:28Z</time>
      </trkpt>
      <trkpt lat="45.96293" lon="6.57119">
        <ele>1770.89</ele>
        <time>2021-12-19T11:54:35Z</time>
      </trkpt>
      <trkpt lat="45.96284" lon="6.57109">
        <ele>1773.77</ele>
        <time>2021-12-19T11:54:55Z</time>
      </trkpt>
      <trkpt lat="45.96284" lon="6.57107">
        <ele>1773.77</ele>
        <time>2021-12-19T11:54:56Z</time>
      </trkpt>
      <trkpt lat="45.96278" lon="6.57099">
        <ele>1775.69</ele>
        <time>2021-12-19T11:55:09Z</time>
      </trkpt>
      <trkpt lat="45.96277" lon="6.57093">
        <ele>1776.65</ele>
        <time>2021-12-19T11:55:15Z</time>
      </trkpt>
      <trkpt lat="45.96269" lon="6.57078">
        <ele>1778.58</ele>
        <time>2021-12-19T11:55:35Z</time>
      </trkpt>
      <trkpt lat="45.96264" lon="6.57061">
        <ele>1781.94</ele>
        <time>2021-12-19T11:55:56Z</time>
      </trkpt>
      <trkpt lat="45.96259" lon="6.57045">
        <ele>1785.31</ele>
        <time>2021-12-19T11:56:17Z</time>
      </trkpt>
      <trkpt lat="45.96258" lon="6.57042">
        <ele>1785.79</ele>
        <time>2021-12-19T11:56:22Z</time>
      </trkpt>
      <trkpt lat="45.96257" lon="6.57036">
        <ele>1786.75</ele>
        <time>2021-12-19T11:56:28Z</time>
      </trkpt>
      <trkpt lat="45.96249" lon="6.57028">
        <ele>1789.63</ele>
        <time>2021-12-19T11:56:46Z</time>
      </trkpt>
      <trkpt lat="45.96242" lon="6.57024">
        <ele>1792.52</ele>
        <time>2021-12-19T11:57:00Z</time>
      </trkpt>
      <trkpt lat="45.96236" lon="6.57024">
        <ele>1793.48</ele>
        <time>2021-12-19T11:57:08Z</time>
      </trkpt>
      <trkpt lat="45.96227" lon="6.57017">
        <ele>1796.84</ele>
        <time>2021-12-19T11:57:26Z</time>
      </trkpt>
      <trkpt lat="45.96217" lon="6.57003">
        <ele>1800.21</ele>
        <time>2021-12-19T11:57:50Z</time>
      </trkpt>
      <trkpt lat="45.9621" lon="6.56995">
        <ele>1803.09</ele>
        <time>2021-12-19T11:58:07Z</time>
      </trkpt>
      <trkpt lat="45.96199" lon="6.56994">
        <ele>1805.97</ele>
        <time>2021-12-19T11:58:26Z</time>
      </trkpt>
      <trkpt lat="45.96189" lon="6.56987">
        <ele>1809.34</ele>
        <time>2021-12-19T11:58:43Z</time>
      </trkpt>
      <trkpt lat="45.96183" lon="6.56978">
        <ele>1812.7</ele>
        <time>2021-12-19T11:59:02Z</time>
      </trkpt>
      <trkpt lat="45.96183" lon="6.56973">
        <ele>1813.18</ele>
        <time>2021-12-19T11:59:06Z</time>
      </trkpt>
      <trkpt lat="45.96182" lon="6.56969">
        <ele>1813.66</ele>
        <time>2021-12-19T11:59:10Z</time>
      </trkpt>
      <trkpt lat="45.96175" lon="6.56952">
        <ele>1817.03</ele>
        <time>2021-12-19T11:59:34Z</time>
      </trkpt>
      <trkpt lat="45.96166" lon="6.56953">
        <ele>1819.91</ele>
        <time>2021-12-19T11:59:50Z</time>
      </trkpt>
      <trkpt lat="45.96165" lon="6.56953">
        <ele>1820.39</ele>
        <time>2021-12-19T11:59:51Z</time>
      </trkpt>
      <trkpt lat="45.96153" lon="6.56941">
        <ele>1823.28</ele>
        <time>2021-12-19T12:00:16Z</time>
      </trkpt>
      <trkpt lat="45.96147" lon="6.56932">
        <ele>1826.16</ele>
        <time>2021-12-19T12:00:34Z</time>
      </trkpt>
      <trkpt lat="45.96137" lon="6.56931">
        <ele>1829.53</ele>
        <time>2021-12-19T12:00:51Z</time>
      </trkpt>
      <trkpt lat="45.96127" lon="6.56918">
        <ele>1832.41</ele>
        <time>2021-12-19T12:01:14Z</time>
      </trkpt>
      <trkpt lat="45.96119" lon="6.56908">
        <ele>1835.77</ele>
        <time>2021-12-19T12:01:33Z</time>
      </trkpt>
      <trkpt lat="45.96113" lon="6.56897">
        <ele>1838.66</ele>
        <time>2021-12-19T12:01:51Z</time>
      </trkpt>
      <trkpt lat="45.96115" lon="6.56889">
        <ele>1840.58</ele>
        <time>2021-12-19T12:03:14Z</time>
      </trkpt>
      <trkpt lat="45.96114" lon="6.5689">
        <ele>1840.58</ele>
        <time>2021-12-19T12:03:26Z</time>
      </trkpt>
      <trkpt lat="45.96113" lon="6.56891">
        <ele>1840.58</ele>
        <time>2021-12-19T12:03:27Z</time>
      </trkpt>
      <trkpt lat="45.96111" lon="6.56884">
        <ele>1840.58</ele>
        <time>2021-12-19T12:04:42Z</time>
      </trkpt>
      <trkpt lat="45.96111" lon="6.56879">
        <ele>1841.54</ele>
        <time>2021-12-19T12:04:47Z</time>
      </trkpt>
      <trkpt lat="45.96112" lon="6.56863">
        <ele>1844.43</ele>
        <time>2021-12-19T12:05:04Z</time>
      </trkpt>
      <trkpt lat="45.96113" lon="6.56844">
        <ele>1847.79</ele>
        <time>2021-12-19T12:05:24Z</time>
      </trkpt>
      <trkpt lat="45.96112" lon="6.56829">
        <ele>1850.68</ele>
        <time>2021-12-19T12:05:43Z</time>
      </trkpt>
      <trkpt lat="45.96113" lon="6.56816">
        <ele>1854.04</ele>
        <time>2021-12-19T12:05:59Z</time>
      </trkpt>
      <trkpt lat="45.96116" lon="6.56802">
        <ele>1856.92</ele>
        <time>2021-12-19T12:06:18Z</time>
      </trkpt>
      <trkpt lat="45.96114" lon="6.56784">
        <ele>1859.81</ele>
        <time>2021-12-19T12:06:39Z</time>
      </trkpt>
      <trkpt lat="45.96104" lon="6.56781">
        <ele>1863.17</ele>
        <time>2021-12-19T12:06:56Z</time>
      </trkpt>
      <trkpt lat="45.96095" lon="6.5678">
        <ele>1865.58</ele>
        <time>2021-12-19T12:07:12Z</time>
      </trkpt>
      <trkpt lat="45.96081" lon="6.5678">
        <ele>1868.46</ele>
        <time>2021-12-19T12:07:32Z</time>
      </trkpt>
      <trkpt lat="45.96079" lon="6.5678">
        <ele>1869.42</ele>
        <time>2021-12-19T12:07:36Z</time>
      </trkpt>
      <trkpt lat="45.96075" lon="6.56781">
        <ele>1870.38</ele>
        <time>2021-12-19T12:07:42Z</time>
      </trkpt>
      <trkpt lat="45.9607" lon="6.56773">
        <ele>1873.27</ele>
        <time>2021-12-19T12:08:20Z</time>
      </trkpt>
      <trkpt lat="45.96068" lon="6.56755">
        <ele>1876.63</ele>
        <time>2021-12-19T12:08:41Z</time>
      </trkpt>
      <trkpt lat="45.96068" lon="6.56741">
        <ele>1879.51</ele>
        <time>2021-12-19T12:08:58Z</time>
      </trkpt>
      <trkpt lat="45.96068" lon="6.56728">
        <ele>1882.4</ele>
        <time>2021-12-19T12:09:15Z</time>
      </trkpt>
      <trkpt lat="45.96068" lon="6.56714">
        <ele>1885.76</ele>
        <time>2021-12-19T12:09:33Z</time>
      </trkpt>
      <trkpt lat="45.96073" lon="6.567">
        <ele>1888.65</ele>
        <time>2021-12-19T12:09:53Z</time>
      </trkpt>
      <trkpt lat="45.96076" lon="6.5669">
        <ele>1892.01</ele>
        <time>2021-12-19T12:10:29Z</time>
      </trkpt>
      <trkpt lat="45.96082" lon="6.56672">
        <ele>1895.38</ele>
        <time>2021-12-19T12:10:59Z</time>
      </trkpt>
      <trkpt lat="45.96079" lon="6.56666">
        <ele>1898.26</ele>
        <time>2021-12-19T12:11:18Z</time>
      </trkpt>
      <trkpt lat="45.96063" lon="6.56665">
        <ele>1901.63</ele>
        <time>2021-12-19T12:11:43Z</time>
      </trkpt>
      <trkpt lat="45.96051" lon="6.56664">
        <ele>1904.51</ele>
        <time>2021-12-19T12:12:03Z</time>
      </trkpt>
      <trkpt lat="45.96043" lon="6.56666">
        <ele>1905.95</ele>
        <time>2021-12-19T12:12:13Z</time>
      </trkpt>
      <trkpt lat="45.96042" lon="6.56666">
        <ele>1906.43</ele>
        <time>2021-12-19T12:12:15Z</time>
      </trkpt>
      <trkpt lat="45.96032" lon="6.56672">
        <ele>1909.32</ele>
        <time>2021-12-19T12:12:35Z</time>
      </trkpt>
      <trkpt lat="45.96021" lon="6.56676">
        <ele>1912.2</ele>
        <time>2021-12-19T12:12:56Z</time>
      </trkpt>
      <trkpt lat="45.96012" lon="6.56679">
        <ele>1915.56</ele>
        <time>2021-12-19T12:13:29Z</time>
      </trkpt>
      <trkpt lat="45.96003" lon="6.56686">
        <ele>1918.45</ele>
        <time>2021-12-19T12:13:52Z</time>
      </trkpt>
      <trkpt lat="45.95992" lon="6.56695">
        <ele>1921.81</ele>
        <time>2021-12-19T12:14:17Z</time>
      </trkpt>
      <trkpt lat="45.95982" lon="6.56703">
        <ele>1924.7</ele>
        <time>2021-12-19T12:14:41Z</time>
      </trkpt>
      <trkpt lat="45.95969" lon="6.5671">
        <ele>1927.58</ele>
        <time>2021-12-19T12:15:08Z</time>
      </trkpt>
      <trkpt lat="45.95959" lon="6.5672">
        <ele>1930.95</ele>
        <time>2021-12-19T12:15:32Z</time>
      </trkpt>
      <trkpt lat="45.9595" lon="6.56725">
        <ele>1933.83</ele>
        <time>2021-12-19T12:15:55Z</time>
      </trkpt>
      <trkpt lat="45.95938" lon="6.56729">
        <ele>1936.71</ele>
        <time>2021-12-19T12:16:21Z</time>
      </trkpt>
      <trkpt lat="45.95925" lon="6.56737">
        <ele>1940.08</ele>
        <time>2021-12-19T12:16:48Z</time>
      </trkpt>
      <trkpt lat="45.95912" lon="6.56744">
        <ele>1942.96</ele>
        <time>2021-12-19T12:17:13Z</time>
      </trkpt>
      <trkpt lat="45.95912" lon="6.5673">
        <ele>1945.85</ele>
        <time>2021-12-19T12:17:43Z</time>
      </trkpt>
      <trkpt lat="45.95913" lon="6.56713">
        <ele>1949.21</ele>
        <time>2021-12-19T12:18:05Z</time>
      </trkpt>
      <trkpt lat="45.95916" lon="6.56698">
        <ele>1952.57</ele>
        <time>2021-12-19T12:18:26Z</time>
      </trkpt>
      <trkpt lat="45.95917" lon="6.56682">
        <ele>1955.46</ele>
        <time>2021-12-19T12:18:45Z</time>
      </trkpt>
      <trkpt lat="45.95919" lon="6.56666">
        <ele>1958.82</ele>
        <time>2021-12-19T12:19:06Z</time>
      </trkpt>
      <trkpt lat="45.95913" lon="6.56669">
        <ele>1961.71</ele>
        <time>2021-12-19T12:19:26Z</time>
      </trkpt>
      <trkpt lat="45.95902" lon="6.56676">
        <ele>1964.59</ele>
        <time>2021-12-19T12:19:48Z</time>
      </trkpt>
      <trkpt lat="45.95892" lon="6.56683">
        <ele>1967.48</ele>
        <time>2021-12-19T12:20:09Z</time>
      </trkpt>
      <trkpt lat="45.95882" lon="6.56687">
        <ele>1970.84</ele>
        <time>2021-12-19T12:20:31Z</time>
      </trkpt>
      <trkpt lat="45.95871" lon="6.56689">
        <ele>1973.72</ele>
        <time>2021-12-19T12:20:56Z</time>
      </trkpt>
      <trkpt lat="45.95869" lon="6.56689">
        <ele>1975.65</ele>
        <time>2021-12-19T12:21:09Z</time>
      </trkpt>
      <trkpt lat="45.95872" lon="6.5668">
        <ele>1976.13</ele>
        <time>2021-12-19T12:21:18Z</time>
      </trkpt>
      <trkpt lat="45.95878" lon="6.56659">
        <ele>1979.01</ele>
        <time>2021-12-19T12:21:45Z</time>
      </trkpt>
      <trkpt lat="45.9588" lon="6.56643">
        <ele>1982.38</ele>
        <time>2021-12-19T12:22:05Z</time>
      </trkpt>
      <trkpt lat="45.95884" lon="6.56626">
        <ele>1985.26</ele>
        <time>2021-12-19T12:22:26Z</time>
      </trkpt>
      <trkpt lat="45.95884" lon="6.56613">
        <ele>1988.62</ele>
        <time>2021-12-19T12:22:47Z</time>
      </trkpt>
      <trkpt lat="45.95877" lon="6.56619">
        <ele>1991.51</ele>
        <time>2021-12-19T12:23:10Z</time>
      </trkpt>
      <trkpt lat="45.95868" lon="6.56625">
        <ele>1994.39</ele>
        <time>2021-12-19T12:23:32Z</time>
      </trkpt>
      <trkpt lat="45.95856" lon="6.56629">
        <ele>1997.76</ele>
        <time>2021-12-19T12:23:58Z</time>
      </trkpt>
      <trkpt lat="45.95845" lon="6.56636">
        <ele>2000.64</ele>
        <time>2021-12-19T12:24:24Z</time>
      </trkpt>
      <trkpt lat="45.95833" lon="6.56644">
        <ele>2004.01</ele>
        <time>2021-12-19T12:24:48Z</time>
      </trkpt>
      <trkpt lat="45.95824" lon="6.56647">
        <ele>2006.89</ele>
        <time>2021-12-19T12:25:12Z</time>
      </trkpt>
      <trkpt lat="45.95826" lon="6.56634">
        <ele>2009.77</ele>
        <time>2021-12-19T12:25:44Z</time>
      </trkpt>
      <trkpt lat="45.95829" lon="6.56616">
        <ele>2013.14</ele>
        <time>2021-12-19T12:26:11Z</time>
      </trkpt>
      <trkpt lat="45.95834" lon="6.56602">
        <ele>2016.02</ele>
        <time>2021-12-19T12:26:38Z</time>
      </trkpt>
      <trkpt lat="45.95834" lon="6.56599">
        <ele>2017.46</ele>
        <time>2021-12-19T12:26:50Z</time>
      </trkpt>
      <trkpt lat="45.95823" lon="6.56608">
        <ele>2020.83</ele>
        <time>2021-12-19T12:27:21Z</time>
      </trkpt>
      <trkpt lat="45.95811" lon="6.56614">
        <ele>2023.71</ele>
        <time>2021-12-19T12:27:51Z</time>
      </trkpt>
      <trkpt lat="45.95801" lon="6.56615">
        <ele>2025.64</ele>
        <time>2021-12-19T12:28:26Z</time>
      </trkpt>
      <trkpt lat="45.95798" lon="6.56615">
        <ele>2025.64</ele>
        <time>2021-12-19T12:28:34Z</time>
      </trkpt>
      <trkpt lat="45.95797" lon="6.56615">
        <ele>2025.64</ele>
        <time>2021-12-19T12:28:35Z</time>
      </trkpt>
      <trkpt lat="45.95795" lon="6.56615">
        <ele>2025.64</ele>
        <time>2021-12-19T12:28:42Z</time>
      </trkpt>
      <trkpt lat="45.95799" lon="6.56616">
        <ele>2025.64</ele>
        <time>2021-12-19T12:28:49Z</time>
      </trkpt>
      <trkpt lat="45.95805" lon="6.56617">
        <ele>2025.64</ele>
        <time>2021-12-19T12:29:18Z</time>
      </trkpt>
      <trkpt lat="45.95808" lon="6.56616">
        <ele>2026.12</ele>
        <time>2021-12-19T12:29:34Z</time>
      </trkpt>
      <trkpt lat="45.95804" lon="6.56619">
        <ele>2026.12</ele>
        <time>2021-12-19T12:29:46Z</time>
      </trkpt>
      <trkpt lat="45.95798" lon="6.56619">
        <ele>2026.12</ele>
        <time>2021-12-19T12:29:55Z</time>
      </trkpt>
      <trkpt lat="45.95798" lon="6.56618">
        <ele>2026.12</ele>
        <time>2021-12-19T12:30:22Z</time>
      </trkpt>
      <trkpt lat="45.958" lon="6.5662">
        <ele>2026.12</ele>
        <time>2021-12-19T12:31:07Z</time>
      </trkpt>
      <trkpt lat="45.95788" lon="6.5662">
        <ele>2029</ele>
        <time>2021-12-19T12:31:39Z</time>
      </trkpt>
      <trkpt lat="45.95777" lon="6.56621">
        <ele>2032.36</ele>
        <time>2021-12-19T12:32:01Z</time>
      </trkpt>
      <trkpt lat="45.95781" lon="6.56603">
        <ele>2035.25</ele>
        <time>2021-12-19T12:32:27Z</time>
      </trkpt>
      <trkpt lat="45.95781" lon="6.56602">
        <ele>2035.25</ele>
        <time>2021-12-19T12:32:28Z</time>
      </trkpt>
      <trkpt lat="45.95787" lon="6.5659">
        <ele>2038.61</ele>
        <time>2021-12-19T12:32:49Z</time>
      </trkpt>
      <trkpt lat="45.95793" lon="6.56577">
        <ele>2041.5</ele>
        <time>2021-12-19T12:33:10Z</time>
      </trkpt>
      <trkpt lat="45.95797" lon="6.56564">
        <ele>2044.38</ele>
        <time>2021-12-19T12:33:29Z</time>
      </trkpt>
      <trkpt lat="45.95799" lon="6.56559">
        <ele>2045.34</ele>
        <time>2021-12-19T12:33:35Z</time>
      </trkpt>
      <trkpt lat="45.95803" lon="6.56549">
        <ele>2048.23</ele>
        <time>2021-12-19T12:33:56Z</time>
      </trkpt>
      <trkpt lat="45.95796" lon="6.56553">
        <ele>2048.71</ele>
        <time>2021-12-19T12:34:43Z</time>
      </trkpt>
      <trkpt lat="45.95798" lon="6.56552">
        <ele>2048.71</ele>
        <time>2021-12-19T12:35:03Z</time>
      </trkpt>
      <trkpt lat="45.95792" lon="6.56557">
        <ele>2051.59</ele>
        <time>2021-12-19T12:36:14Z</time>
      </trkpt>
      <trkpt lat="45.95778" lon="6.5656">
        <ele>2054.96</ele>
        <time>2021-12-19T12:36:32Z</time>
      </trkpt>
      <trkpt lat="45.95765" lon="6.56562">
        <ele>2057.84</ele>
        <time>2021-12-19T12:36:52Z</time>
      </trkpt>
      <trkpt lat="45.95754" lon="6.56565">
        <ele>2061.2</ele>
        <time>2021-12-19T12:37:11Z</time>
      </trkpt>
      <trkpt lat="45.95746" lon="6.5657">
        <ele>2064.09</ele>
        <time>2021-12-19T12:37:33Z</time>
      </trkpt>
      <trkpt lat="45.95744" lon="6.56571">
        <ele>2065.05</ele>
        <time>2021-12-19T12:37:42Z</time>
      </trkpt>
      <trkpt lat="45.95739" lon="6.56563">
        <ele>2068.41</ele>
        <time>2021-12-19T12:38:11Z</time>
      </trkpt>
      <trkpt lat="45.95743" lon="6.56546">
        <ele>2071.3</ele>
        <time>2021-12-19T12:38:38Z</time>
      </trkpt>
      <trkpt lat="45.95748" lon="6.56532">
        <ele>2074.66</ele>
        <time>2021-12-19T12:39:17Z</time>
      </trkpt>
      <trkpt lat="45.9575" lon="6.56526">
        <ele>2077.55</ele>
        <time>2021-12-19T12:39:40Z</time>
      </trkpt>
      <trkpt lat="45.95737" lon="6.56532">
        <ele>2080.43</ele>
        <time>2021-12-19T12:40:06Z</time>
      </trkpt>
      <trkpt lat="45.95726" lon="6.56536">
        <ele>2083.79</ele>
        <time>2021-12-19T12:40:26Z</time>
      </trkpt>
      <trkpt lat="45.95714" lon="6.56533">
        <ele>2086.2</ele>
        <time>2021-12-19T12:40:45Z</time>
      </trkpt>
      <trkpt lat="45.95701" lon="6.56531">
        <ele>2089.56</ele>
        <time>2021-12-19T12:41:09Z</time>
      </trkpt>
      <trkpt lat="45.9569" lon="6.56529">
        <ele>2092.45</ele>
        <time>2021-12-19T12:41:30Z</time>
      </trkpt>
      <trkpt lat="45.9568" lon="6.56534">
        <ele>2095.81</ele>
        <time>2021-12-19T12:41:50Z</time>
      </trkpt>
      <trkpt lat="45.9567" lon="6.56539">
        <ele>2098.7</ele>
        <time>2021-12-19T12:42:10Z</time>
      </trkpt>
      <trkpt lat="45.95664" lon="6.56538">
        <ele>2101.1</ele>
        <time>2021-12-19T12:42:29Z</time>
      </trkpt>
      <trkpt lat="45.95648" lon="6.56547">
        <ele>2103.98</ele>
        <time>2021-12-19T12:42:55Z</time>
      </trkpt>
      <trkpt lat="45.95638" lon="6.56549">
        <ele>2107.35</ele>
        <time>2021-12-19T12:43:17Z</time>
      </trkpt>
      <trkpt lat="45.95638" lon="6.56535">
        <ele>2110.23</ele>
        <time>2021-12-19T12:43:41Z</time>
      </trkpt>
      <trkpt lat="45.95642" lon="6.5652">
        <ele>2113.6</ele>
        <time>2021-12-19T12:44:00Z</time>
      </trkpt>
      <trkpt lat="45.95642" lon="6.56516">
        <ele>2116.48</ele>
        <time>2021-12-19T12:44:26Z</time>
      </trkpt>
      <trkpt lat="45.95629" lon="6.56521">
        <ele>2119.36</ele>
        <time>2021-12-19T12:44:50Z</time>
      </trkpt>
      <trkpt lat="45.9562" lon="6.56526">
        <ele>2122.25</ele>
        <time>2021-12-19T12:45:18Z</time>
      </trkpt>
      <trkpt lat="45.95617" lon="6.56526">
        <ele>2123.69</ele>
        <time>2021-12-19T12:45:28Z</time>
      </trkpt>
      <trkpt lat="45.95616" lon="6.56526">
        <ele>2124.17</ele>
        <time>2021-12-19T12:45:29Z</time>
      </trkpt>
      <trkpt lat="45.95616" lon="6.56526">
        <ele>2124.17</ele>
        <time>2021-12-19T12:45:31Z</time>
      </trkpt>
      <trkpt lat="45.95615" lon="6.56527">
        <ele>2124.17</ele>
        <time>2021-12-19T12:45:32Z</time>
      </trkpt>
      <trkpt lat="45.95611" lon="6.5652">
        <ele>2127.05</ele>
        <time>2021-12-19T12:46:04Z</time>
      </trkpt>
      <trkpt lat="45.95615" lon="6.56504">
        <ele>2130.42</ele>
        <time>2021-12-19T12:46:33Z</time>
      </trkpt>
      <trkpt lat="45.95618" lon="6.56489">
        <ele>2133.3</ele>
        <time>2021-12-19T12:46:58Z</time>
      </trkpt>
      <trkpt lat="45.95615" lon="6.56491">
        <ele>2135.71</ele>
        <time>2021-12-19T12:48:32Z</time>
      </trkpt>
      <trkpt lat="45.9562" lon="6.56486">
        <ele>2136.67</ele>
        <time>2021-12-19T12:50:05Z</time>
      </trkpt>
      <trkpt lat="45.95607" lon="6.56496">
        <ele>2138.59</ele>
        <time>2021-12-19T12:51:03Z</time>
      </trkpt>
      <trkpt lat="45.95595" lon="6.56501">
        <ele>2141.47</ele>
        <time>2021-12-19T12:51:33Z</time>
      </trkpt>
      <trkpt lat="45.95581" lon="6.56502">
        <ele>2144.84</ele>
        <time>2021-12-19T12:52:00Z</time>
      </trkpt>
      <trkpt lat="45.95567" lon="6.56506">
        <ele>2147.72</ele>
        <time>2021-12-19T12:52:25Z</time>
      </trkpt>
      <trkpt lat="45.95562" lon="6.56507">
        <ele>2148.68</ele>
        <time>2021-12-19T12:52:39Z</time>
      </trkpt>
      <trkpt lat="45.95548" lon="6.56509">
        <ele>2151.57</ele>
        <time>2021-12-19T12:53:03Z</time>
      </trkpt>
      <trkpt lat="45.95535" lon="6.56512">
        <ele>2154.93</ele>
        <time>2021-12-19T12:53:25Z</time>
      </trkpt>
      <trkpt lat="45.95522" lon="6.56518">
        <ele>2157.82</ele>
        <time>2021-12-19T12:53:48Z</time>
      </trkpt>
      <trkpt lat="45.95513" lon="6.56524">
        <ele>2161.18</ele>
        <time>2021-12-19T12:54:13Z</time>
      </trkpt>
      <trkpt lat="45.9551" lon="6.56513">
        <ele>2164.06</ele>
        <time>2021-12-19T12:54:43Z</time>
      </trkpt>
      <trkpt lat="45.95511" lon="6.56502">
        <ele>2166.47</ele>
        <time>2021-12-19T12:54:58Z</time>
      </trkpt>
      <trkpt lat="45.9551" lon="6.56495">
        <ele>2169.35</ele>
        <time>2021-12-19T12:55:21Z</time>
      </trkpt>
      <trkpt lat="45.95506" lon="6.56497">
        <ele>2170.79</ele>
        <time>2021-12-19T12:55:29Z</time>
      </trkpt>
      <trkpt lat="45.95493" lon="6.56501">
        <ele>2173.68</ele>
        <time>2021-12-19T12:56:02Z</time>
      </trkpt>
      <trkpt lat="45.95492" lon="6.56499">
        <ele>2173.68</ele>
        <time>2021-12-19T12:56:04Z</time>
      </trkpt>
      <trkpt lat="45.95492" lon="6.56487">
        <ele>2176.56</ele>
        <time>2021-12-19T12:56:27Z</time>
      </trkpt>
      <trkpt lat="45.95498" lon="6.56475">
        <ele>2179.93</ele>
        <time>2021-12-19T12:56:53Z</time>
      </trkpt>
      <trkpt lat="45.95488" lon="6.56482">
        <ele>2181.37</ele>
        <time>2021-12-19T12:57:12Z</time>
      </trkpt>
      <trkpt lat="45.95486" lon="6.56482">
        <ele>2181.85</ele>
        <time>2021-12-19T12:57:13Z</time>
      </trkpt>
      <trkpt lat="45.95486" lon="6.56482">
        <ele>2181.85</ele>
        <time>2021-12-19T12:57:14Z</time>
      </trkpt>
      <trkpt lat="45.95481" lon="6.56486">
        <ele>2182.81</ele>
        <time>2021-12-19T12:57:22Z</time>
      </trkpt>
      <trkpt lat="45.95477" lon="6.56488">
        <ele>2183.29</ele>
        <time>2021-12-19T12:57:27Z</time>
      </trkpt>
      <trkpt lat="45.95476" lon="6.56488">
        <ele>2183.29</ele>
        <time>2021-12-19T12:57:28Z</time>
      </trkpt>
      <trkpt lat="45.95474" lon="6.56488">
        <ele>2183.77</ele>
        <time>2021-12-19T12:57:31Z</time>
      </trkpt>
      <trkpt lat="45.95473" lon="6.56488">
        <ele>2184.25</ele>
        <time>2021-12-19T12:57:32Z</time>
      </trkpt>
      <trkpt lat="45.95468" lon="6.56494">
        <ele>2185.21</ele>
        <time>2021-12-19T12:57:45Z</time>
      </trkpt>
      <trkpt lat="45.95467" lon="6.56496">
        <ele>2186.66</ele>
        <time>2021-12-19T12:57:53Z</time>
      </trkpt>
      <trkpt lat="45.95465" lon="6.56495">
        <ele>2186.66</ele>
        <time>2021-12-19T12:57:55Z</time>
      </trkpt>
      <trkpt lat="45.95465" lon="6.56494">
        <ele>2186.66</ele>
        <time>2021-12-19T12:57:56Z</time>
      </trkpt>
      <trkpt lat="45.95463" lon="6.56492">
        <ele>2188.58</ele>
        <time>2021-12-19T12:58:12Z</time>
      </trkpt>
      <trkpt lat="45.95462" lon="6.56496">
        <ele>2190.02</ele>
        <time>2021-12-19T12:58:18Z</time>
      </trkpt>
      <trkpt lat="45.95459" lon="6.56496">
        <ele>2190.02</ele>
        <time>2021-12-19T12:58:21Z</time>
      </trkpt>
      <trkpt lat="45.95459" lon="6.56491">
        <ele>2190.98</ele>
        <time>2021-12-19T12:58:31Z</time>
      </trkpt>
      <trkpt lat="45.95459" lon="6.56495">
        <ele>2192.42</ele>
        <time>2021-12-19T12:58:39Z</time>
      </trkpt>
      <trkpt lat="45.95455" lon="6.56497">
        <ele>2192.9</ele>
        <time>2021-12-19T12:58:45Z</time>
      </trkpt>
      <trkpt lat="45.95455" lon="6.56497">
        <ele>2192.9</ele>
        <time>2021-12-19T12:58:46Z</time>
      </trkpt>
      <trkpt lat="45.95451" lon="6.56492">
        <ele>2195.79</ele>
        <time>2021-12-19T12:59:13Z</time>
      </trkpt>
      <trkpt lat="45.95447" lon="6.56496">
        <ele>2196.75</ele>
        <time>2021-12-19T12:59:19Z</time>
      </trkpt>
      <trkpt lat="45.95445" lon="6.56496">
        <ele>2196.75</ele>
        <time>2021-12-19T12:59:21Z</time>
      </trkpt>
      <trkpt lat="45.95445" lon="6.56496">
        <ele>2196.75</ele>
        <time>2021-12-19T12:59:22Z</time>
      </trkpt>
      <trkpt lat="45.95445" lon="6.56488">
        <ele>2197.23</ele>
        <time>2021-12-19T12:59:33Z</time>
      </trkpt>
      <trkpt lat="45.9544" lon="6.56485">
        <ele>2198.19</ele>
        <time>2021-12-19T12:59:38Z</time>
      </trkpt>
      <trkpt lat="45.95442" lon="6.56483">
        <ele>2199.15</ele>
        <time>2021-12-19T12:59:41Z</time>
      </trkpt>
      <trkpt lat="45.95439" lon="6.56488">
        <ele>2200.11</ele>
        <time>2021-12-19T12:59:56Z</time>
      </trkpt>
      <trkpt lat="45.95436" lon="6.56492">
        <ele>2200.59</ele>
        <time>2021-12-19T13:00:02Z</time>
      </trkpt>
      <trkpt lat="45.95435" lon="6.56496">
        <ele>2201.56</ele>
        <time>2021-12-19T13:00:09Z</time>
      </trkpt>
      <trkpt lat="45.95436" lon="6.56497">
        <ele>2203</ele>
        <time>2021-12-19T13:00:20Z</time>
      </trkpt>
      <trkpt lat="45.95437" lon="6.56494">
        <ele>2203</ele>
        <time>2021-12-19T13:00:33Z</time>
      </trkpt>
      <trkpt lat="45.95435" lon="6.5649">
        <ele>2203.48</ele>
        <time>2021-12-19T13:00:42Z</time>
      </trkpt>
      <trkpt lat="45.95432" lon="6.56487">
        <ele>2204.44</ele>
        <time>2021-12-19T13:00:48Z</time>
      </trkpt>
      <trkpt lat="45.95431" lon="6.56479">
        <ele>2205.88</ele>
        <time>2021-12-19T13:01:01Z</time>
      </trkpt>
      <trkpt lat="45.95434" lon="6.56481">
        <ele>2207.81</ele>
        <time>2021-12-19T13:01:24Z</time>
      </trkpt>
      <trkpt lat="45.95429" lon="6.56489">
        <ele>2209.73</ele>
        <time>2021-12-19T13:01:36Z</time>
      </trkpt>
      <trkpt lat="45.95425" lon="6.56491">
        <ele>2210.21</ele>
        <time>2021-12-19T13:01:40Z</time>
      </trkpt>
      <trkpt lat="45.95422" lon="6.56495">
        <ele>2211.17</ele>
        <time>2021-12-19T13:01:50Z</time>
      </trkpt>
      <trkpt lat="45.9542" lon="6.56496">
        <ele>2211.17</ele>
        <time>2021-12-19T13:01:51Z</time>
      </trkpt>
      <trkpt lat="45.95418" lon="6.56497">
        <ele>2211.17</ele>
        <time>2021-12-19T13:01:52Z</time>
      </trkpt>
      <trkpt lat="45.95412" lon="6.56504">
        <ele>2213.09</ele>
        <time>2021-12-19T13:02:05Z</time>
      </trkpt>
      <trkpt lat="45.9541" lon="6.56509">
        <ele>2214.53</ele>
        <time>2021-12-19T13:02:13Z</time>
      </trkpt>
      <trkpt lat="45.95411" lon="6.56504">
        <ele>2215.5</ele>
        <time>2021-12-19T13:02:24Z</time>
      </trkpt>
      <trkpt lat="45.95412" lon="6.56496">
        <ele>2217.42</ele>
        <time>2021-12-19T13:02:36Z</time>
      </trkpt>
      <trkpt lat="45.95412" lon="6.56492">
        <ele>2217.9</ele>
        <time>2021-12-19T13:02:42Z</time>
      </trkpt>
      <trkpt lat="45.95413" lon="6.56484">
        <ele>2219.82</ele>
        <time>2021-12-19T13:02:55Z</time>
      </trkpt>
      <trkpt lat="45.95412" lon="6.56482">
        <ele>2220.78</ele>
        <time>2021-12-19T13:03:12Z</time>
      </trkpt>
      <trkpt lat="45.9541" lon="6.56487">
        <ele>2222.71</ele>
        <time>2021-12-19T13:04:31Z</time>
      </trkpt>
      <trkpt lat="45.95405" lon="6.56498">
        <ele>2225.59</ele>
        <time>2021-12-19T13:04:57Z</time>
      </trkpt>
      <trkpt lat="45.95403" lon="6.56505">
        <ele>2227.51</ele>
        <time>2021-12-19T13:05:07Z</time>
      </trkpt>
      <trkpt lat="45.95401" lon="6.56509">
        <ele>2228.47</ele>
        <time>2021-12-19T13:05:11Z</time>
      </trkpt>
      <trkpt lat="45.95396" lon="6.56509">
        <ele>2228.95</ele>
        <time>2021-12-19T13:05:15Z</time>
      </trkpt>
      <trkpt lat="45.95393" lon="6.56495">
        <ele>2231.84</ele>
        <time>2021-12-19T13:05:39Z</time>
      </trkpt>
      <trkpt lat="45.95394" lon="6.56491">
        <ele>2233.76</ele>
        <time>2021-12-19T13:05:56Z</time>
      </trkpt>
      <trkpt lat="45.95391" lon="6.56503">
        <ele>2236.16</ele>
        <time>2021-12-19T13:06:15Z</time>
      </trkpt>
      <trkpt lat="45.95395" lon="6.56505">
        <ele>2236.64</ele>
        <time>2021-12-19T13:06:20Z</time>
      </trkpt>
      <trkpt lat="45.95396" lon="6.56505">
        <ele>2236.64</ele>
        <time>2021-12-19T13:06:21Z</time>
      </trkpt>
      <trkpt lat="45.95394" lon="6.56507">
        <ele>2237.13</ele>
        <time>2021-12-19T13:06:23Z</time>
      </trkpt>
      <trkpt lat="45.95398" lon="6.56517">
        <ele>2238.57</ele>
        <time>2021-12-19T13:06:35Z</time>
      </trkpt>
      <trkpt lat="45.954" lon="6.56522">
        <ele>2240.01</ele>
        <time>2021-12-19T13:06:42Z</time>
      </trkpt>
      <trkpt lat="45.95399" lon="6.56525">
        <ele>2240.49</ele>
        <time>2021-12-19T13:06:46Z</time>
      </trkpt>
      <trkpt lat="45.95398" lon="6.56527">
        <ele>2240.97</ele>
        <time>2021-12-19T13:06:49Z</time>
      </trkpt>
      <trkpt lat="45.954" lon="6.56541">
        <ele>2243.85</ele>
        <time>2021-12-19T13:07:12Z</time>
      </trkpt>
      <trkpt lat="45.954" lon="6.56544">
        <ele>2244.33</ele>
        <time>2021-12-19T13:07:15Z</time>
      </trkpt>
      <trkpt lat="45.95401" lon="6.56545">
        <ele>2244.33</ele>
        <time>2021-12-19T13:07:16Z</time>
      </trkpt>
      <trkpt lat="45.95401" lon="6.56547">
        <ele>2243.85</ele>
        <time>2021-12-19T13:07:17Z</time>
      </trkpt>
      <trkpt lat="45.95401" lon="6.56549">
        <ele>2242.41</ele>
        <time>2021-12-19T13:08:24Z</time>
      </trkpt>
      <trkpt lat="45.95396" lon="6.56554">
        <ele>2241.93</ele>
        <time>2021-12-19T13:09:15Z</time>
      </trkpt>
      <trkpt lat="45.95394" lon="6.56556">
        <ele>2240.97</ele>
        <time>2021-12-19T13:09:37Z</time>
      </trkpt>
      <trkpt lat="45.95392" lon="6.56557">
        <ele>2241.45</ele>
        <time>2021-12-19T13:11:21Z</time>
      </trkpt>
      <trkpt lat="45.95391" lon="6.56557">
        <ele>2241.93</ele>
        <time>2021-12-19T13:12:58Z</time>
      </trkpt>
      <trkpt lat="45.95392" lon="6.56557">
        <ele>2241.93</ele>
        <time>2021-12-19T13:13:29Z</time>
      </trkpt>
      <trkpt lat="45.95392" lon="6.56559">
        <ele>2242.41</ele>
        <time>2021-12-19T13:14:04Z</time>
      </trkpt>
      <trkpt lat="45.95389" lon="6.56561">
        <ele>2242.41</ele>
        <time>2021-12-19T13:15:33Z</time>
      </trkpt>
      <trkpt lat="45.95391" lon="6.56559">
        <ele>2242.89</ele>
        <time>2021-12-19T13:18:22Z</time>
      </trkpt>
      <trkpt lat="45.9539" lon="6.5656">
        <ele>2242.41</ele>
        <time>2021-12-19T13:19:11Z</time>
      </trkpt>
      <trkpt lat="45.9539" lon="6.56562">
        <ele>2242.41</ele>
        <time>2021-12-19T13:19:46Z</time>
      </trkpt>
      <trkpt lat="45.95391" lon="6.56562">
        <ele>2242.89</ele>
        <time>2021-12-19T13:21:20Z</time>
      </trkpt>
      <trkpt lat="45.9539" lon="6.56563">
        <ele>2242.89</ele>
        <time>2021-12-19T13:22:50Z</time>
      </trkpt>
      <trkpt lat="45.9539" lon="6.56563">
        <ele>2243.37</ele>
        <time>2021-12-19T13:25:23Z</time>
      </trkpt>
      <trkpt lat="45.95388" lon="6.56563">
        <ele>2243.85</ele>
        <time>2021-12-19T13:32:08Z</time>
      </trkpt>
      <trkpt lat="45.95394" lon="6.56559">
        <ele>2243.37</ele>
        <time>2021-12-19T13:36:38Z</time>
      </trkpt>
      <trkpt lat="45.95393" lon="6.56561">
        <ele>2243.37</ele>
        <time>2021-12-19T13:40:54Z</time>
      </trkpt>
      <trkpt lat="45.9539" lon="6.56563">
        <ele>2243.37</ele>
        <time>2021-12-19T13:41:31Z</time>
      </trkpt>
      <trkpt lat="45.9539" lon="6.56561">
        <ele>2244.82</ele>
        <time>2021-12-19T13:46:15Z</time>
      </trkpt>
      <trkpt lat="45.95393" lon="6.56564">
        <ele>2244.33</ele>
        <time>2021-12-19T13:46:47Z</time>
      </trkpt>
      <trkpt lat="45.95394" lon="6.56568">
        <ele>2244.33</ele>
        <time>2021-12-19T13:46:49Z</time>
      </trkpt>
      <trkpt lat="45.95396" lon="6.56573">
        <ele>2243.37</ele>
        <time>2021-12-19T13:46:51Z</time>
      </trkpt>
      <trkpt lat="45.95399" lon="6.56585">
        <ele>2240.49</ele>
        <time>2021-12-19T13:47:31Z</time>
      </trkpt>
      <trkpt lat="45.95399" lon="6.56591">
        <ele>2239.53</ele>
        <time>2021-12-19T13:47:37Z</time>
      </trkpt>
      <trkpt lat="45.95399" lon="6.56594">
        <ele>2239.05</ele>
        <time>2021-12-19T13:47:38Z</time>
      </trkpt>
      <trkpt lat="45.95399" lon="6.56599">
        <ele>2238.57</ele>
        <time>2021-12-19T13:47:39Z</time>
      </trkpt>
      <trkpt lat="45.95399" lon="6.56602">
        <ele>2238.09</ele>
        <time>2021-12-19T13:47:40Z</time>
      </trkpt>
      <trkpt lat="45.95397" lon="6.56604">
        <ele>2237.61</ele>
        <time>2021-12-19T13:49:04Z</time>
      </trkpt>
      <trkpt lat="45.95402" lon="6.56616">
        <ele>2240.49</ele>
        <time>2021-12-19T13:50:18Z</time>
      </trkpt>
      <trkpt lat="45.954" lon="6.56629">
        <ele>2243.85</ele>
        <time>2021-12-19T13:50:31Z</time>
      </trkpt>
      <trkpt lat="45.954" lon="6.56633">
        <ele>2244.33</ele>
        <time>2021-12-19T13:50:34Z</time>
      </trkpt>
      <trkpt lat="45.954" lon="6.56634">
        <ele>2244.82</ele>
        <time>2021-12-19T13:50:35Z</time>
      </trkpt>
      <trkpt lat="45.95399" lon="6.56648">
        <ele>2247.22</ele>
        <time>2021-12-19T13:50:46Z</time>
      </trkpt>
      <trkpt lat="45.95399" lon="6.5665">
        <ele>2247.22</ele>
        <time>2021-12-19T13:50:47Z</time>
      </trkpt>
      <trkpt lat="45.95397" lon="6.56673">
        <ele>2250.58</ele>
        <time>2021-12-19T13:51:06Z</time>
      </trkpt>
      <trkpt lat="45.95398" lon="6.56678">
        <ele>2251.54</ele>
        <time>2021-12-19T13:51:10Z</time>
      </trkpt>
      <trkpt lat="45.95398" lon="6.5668">
        <ele>2251.54</ele>
        <time>2021-12-19T13:51:11Z</time>
      </trkpt>
      <trkpt lat="45.95397" lon="6.56693">
        <ele>2252.03</ele>
        <time>2021-12-19T13:51:20Z</time>
      </trkpt>
      <trkpt lat="45.95397" lon="6.56713">
        <ele>2255.39</ele>
        <time>2021-12-19T13:51:37Z</time>
      </trkpt>
      <trkpt lat="45.95397" lon="6.56715">
        <ele>2255.87</ele>
        <time>2021-12-19T13:51:39Z</time>
      </trkpt>
      <trkpt lat="45.95397" lon="6.56717">
        <ele>2256.35</ele>
        <time>2021-12-19T13:51:41Z</time>
      </trkpt>
      <trkpt lat="45.95399" lon="6.56729">
        <ele>2259.24</ele>
        <time>2021-12-19T13:51:55Z</time>
      </trkpt>
      <trkpt lat="45.95396" lon="6.5674">
        <ele>2262.6</ele>
        <time>2021-12-19T13:52:11Z</time>
      </trkpt>
      <trkpt lat="45.95395" lon="6.56745">
        <ele>2263.56</ele>
        <time>2021-12-19T13:52:16Z</time>
      </trkpt>
      <trkpt lat="45.95394" lon="6.56751">
        <ele>2265</ele>
        <time>2021-12-19T13:52:23Z</time>
      </trkpt>
      <trkpt lat="45.95393" lon="6.56765">
        <ele>2267.89</ele>
        <time>2021-12-19T13:52:38Z</time>
      </trkpt>
      <trkpt lat="45.95392" lon="6.56777">
        <ele>2270.77</ele>
        <time>2021-12-19T13:52:53Z</time>
      </trkpt>
      <trkpt lat="45.95392" lon="6.56794">
        <ele>2274.14</ele>
        <time>2021-12-19T13:53:15Z</time>
      </trkpt>
      <trkpt lat="45.95392" lon="6.56797">
        <ele>2275.1</ele>
        <time>2021-12-19T13:53:19Z</time>
      </trkpt>
      <trkpt lat="45.95392" lon="6.56801">
        <ele>2275.58</ele>
        <time>2021-12-19T13:53:23Z</time>
      </trkpt>
      <trkpt lat="45.95393" lon="6.56803">
        <ele>2276.06</ele>
        <time>2021-12-19T13:53:25Z</time>
      </trkpt>
      <trkpt lat="45.95395" lon="6.56816">
        <ele>2279.42</ele>
        <time>2021-12-19T13:53:41Z</time>
      </trkpt>
      <trkpt lat="45.95394" lon="6.56817">
        <ele>2279.42</ele>
        <time>2021-12-19T13:53:42Z</time>
      </trkpt>
      <trkpt lat="45.95394" lon="6.5682">
        <ele>2279.9</ele>
        <time>2021-12-19T13:53:45Z</time>
      </trkpt>
      <trkpt lat="45.95394" lon="6.56825">
        <ele>2281.35</ele>
        <time>2021-12-19T13:53:51Z</time>
      </trkpt>
      <trkpt lat="45.95393" lon="6.56827">
        <ele>2281.83</ele>
        <time>2021-12-19T13:53:53Z</time>
      </trkpt>
      <trkpt lat="45.95394" lon="6.56841">
        <ele>2284.71</ele>
        <time>2021-12-19T13:54:08Z</time>
      </trkpt>
      <trkpt lat="45.9539" lon="6.56851">
        <ele>2287.11</ele>
        <time>2021-12-19T13:54:22Z</time>
      </trkpt>
      <trkpt lat="45.95389" lon="6.56849">
        <ele>2287.59</ele>
        <time>2021-12-19T13:54:28Z</time>
      </trkpt>
      <trkpt lat="45.95388" lon="6.56856">
        <ele>2290.96</ele>
        <time>2021-12-19T13:54:42Z</time>
      </trkpt>
      <trkpt lat="45.9539" lon="6.56868">
        <ele>2292.88</ele>
        <time>2021-12-19T13:54:54Z</time>
      </trkpt>
      <trkpt lat="45.9539" lon="6.5688">
        <ele>2295.77</ele>
        <time>2021-12-19T13:55:08Z</time>
      </trkpt>
      <trkpt lat="45.95389" lon="6.5689">
        <ele>2297.69</ele>
        <time>2021-12-19T13:55:19Z</time>
      </trkpt>
      <trkpt lat="45.9539" lon="6.56892">
        <ele>2297.69</ele>
        <time>2021-12-19T13:55:21Z</time>
      </trkpt>
      <trkpt lat="45.95391" lon="6.56904">
        <ele>2301.05</ele>
        <time>2021-12-19T13:55:42Z</time>
      </trkpt>
      <trkpt lat="45.95389" lon="6.56915">
        <ele>2303.94</ele>
        <time>2021-12-19T13:56:04Z</time>
      </trkpt>
      <trkpt lat="45.95386" lon="6.56919">
        <ele>2305.86</ele>
        <time>2021-12-19T13:57:05Z</time>
      </trkpt>
      <trkpt lat="45.95385" lon="6.56924">
        <ele>2306.82</ele>
        <time>2021-12-19T13:59:46Z</time>
      </trkpt>
      <trkpt lat="45.95385" lon="6.56928">
        <ele>2307.78</ele>
        <time>2021-12-19T13:59:50Z</time>
      </trkpt>
      <trkpt lat="45.95385" lon="6.56929">
        <ele>2307.78</ele>
        <time>2021-12-19T13:59:51Z</time>
      </trkpt>
      <trkpt lat="45.9538" lon="6.56942">
        <ele>2310.67</ele>
        <time>2021-12-19T14:00:07Z</time>
      </trkpt>
      <trkpt lat="45.95382" lon="6.56949">
        <ele>2312.59</ele>
        <time>2021-12-19T14:00:16Z</time>
      </trkpt>
      <trkpt lat="45.95383" lon="6.56951">
        <ele>2312.59</ele>
        <time>2021-12-19T14:00:17Z</time>
      </trkpt>
      <trkpt lat="45.95383" lon="6.56964">
        <ele>2316.43</ele>
        <time>2021-12-19T14:00:30Z</time>
      </trkpt>
      <trkpt lat="45.95381" lon="6.56973">
        <ele>2319.32</ele>
        <time>2021-12-19T14:00:42Z</time>
      </trkpt>
      <trkpt lat="45.95381" lon="6.56978">
        <ele>2319.8</ele>
        <time>2021-12-19T14:00:46Z</time>
      </trkpt>
      <trkpt lat="45.95381" lon="6.5698">
        <ele>2320.28</ele>
        <time>2021-12-19T14:00:48Z</time>
      </trkpt>
      <trkpt lat="45.9538" lon="6.56992">
        <ele>2323.16</ele>
        <time>2021-12-19T14:01:03Z</time>
      </trkpt>
      <trkpt lat="45.95379" lon="6.57003">
        <ele>2326.53</ele>
        <time>2021-12-19T14:01:16Z</time>
      </trkpt>
      <trkpt lat="45.95379" lon="6.57008">
        <ele>2327.49</ele>
        <time>2021-12-19T14:01:22Z</time>
      </trkpt>
      <trkpt lat="45.95379" lon="6.57015">
        <ele>2328.93</ele>
        <time>2021-12-19T14:01:29Z</time>
      </trkpt>
      <trkpt lat="45.95377" lon="6.57027">
        <ele>2332.3</ele>
        <time>2021-12-19T14:01:42Z</time>
      </trkpt>
      <trkpt lat="45.95378" lon="6.57032">
        <ele>2333.74</ele>
        <time>2021-12-19T14:01:47Z</time>
      </trkpt>
      <trkpt lat="45.95377" lon="6.57035">
        <ele>2334.22</ele>
        <time>2021-12-19T14:01:51Z</time>
      </trkpt>
      <trkpt lat="45.95376" lon="6.57042">
        <ele>2335.66</ele>
        <time>2021-12-19T14:01:58Z</time>
      </trkpt>
      <trkpt lat="45.95374" lon="6.57052">
        <ele>2339.02</ele>
        <time>2021-12-19T14:02:09Z</time>
      </trkpt>
      <trkpt lat="45.95373" lon="6.57058">
        <ele>2339.99</ele>
        <time>2021-12-19T14:02:16Z</time>
      </trkpt>
      <trkpt lat="45.95372" lon="6.57067">
        <ele>2341.91</ele>
        <time>2021-12-19T14:02:25Z</time>
      </trkpt>
      <trkpt lat="45.9537" lon="6.57081">
        <ele>2345.27</ele>
        <time>2021-12-19T14:02:40Z</time>
      </trkpt>
      <trkpt lat="45.95369" lon="6.57094">
        <ele>2348.64</ele>
        <time>2021-12-19T14:02:55Z</time>
      </trkpt>
      <trkpt lat="45.95371" lon="6.57098">
        <ele>2349.6</ele>
        <time>2021-12-19T14:03:00Z</time>
      </trkpt>
      <trkpt lat="45.95374" lon="6.57109">
        <ele>2352.48</ele>
        <time>2021-12-19T14:03:14Z</time>
      </trkpt>
      <trkpt lat="45.95375" lon="6.57113">
        <ele>2353.44</ele>
        <time>2021-12-19T14:03:18Z</time>
      </trkpt>
      <trkpt lat="45.95378" lon="6.57121">
        <ele>2355.37</ele>
        <time>2021-12-19T14:03:27Z</time>
      </trkpt>
      <trkpt lat="45.95386" lon="6.57136">
        <ele>2357.77</ele>
        <time>2021-12-19T14:03:43Z</time>
      </trkpt>
      <trkpt lat="45.95387" lon="6.57137">
        <ele>2358.25</ele>
        <time>2021-12-19T14:03:45Z</time>
      </trkpt>
      <trkpt lat="45.95388" lon="6.57139">
        <ele>2358.25</ele>
        <time>2021-12-19T14:03:47Z</time>
      </trkpt>
      <trkpt lat="45.9539" lon="6.57144">
        <ele>2359.21</ele>
        <time>2021-12-19T14:03:52Z</time>
      </trkpt>
      <trkpt lat="45.95397" lon="6.57158">
        <ele>2362.58</ele>
        <time>2021-12-19T14:04:07Z</time>
      </trkpt>
      <trkpt lat="45.95391" lon="6.57159">
        <ele>2363.54</ele>
        <time>2021-12-19T14:04:14Z</time>
      </trkpt>
      <trkpt lat="45.95389" lon="6.57158">
        <ele>2364.02</ele>
        <time>2021-12-19T14:04:17Z</time>
      </trkpt>
      <trkpt lat="45.95377" lon="6.57156">
        <ele>2366.9</ele>
        <time>2021-12-19T14:04:33Z</time>
      </trkpt>
      <trkpt lat="45.95379" lon="6.5716">
        <ele>2369.31</ele>
        <time>2021-12-19T14:04:43Z</time>
      </trkpt>
      <trkpt lat="45.95389" lon="6.57177">
        <ele>2372.19</ele>
        <time>2021-12-19T14:05:02Z</time>
      </trkpt>
      <trkpt lat="45.95392" lon="6.5719">
        <ele>2375.55</ele>
        <time>2021-12-19T14:05:18Z</time>
      </trkpt>
      <trkpt lat="45.95388" lon="6.57192">
        <ele>2377</ele>
        <time>2021-12-19T14:05:27Z</time>
      </trkpt>
      <trkpt lat="45.95387" lon="6.57192">
        <ele>2377</ele>
        <time>2021-12-19T14:05:28Z</time>
      </trkpt>
      <trkpt lat="45.95374" lon="6.57191">
        <ele>2380.36</ele>
        <time>2021-12-19T14:05:45Z</time>
      </trkpt>
      <trkpt lat="45.95373" lon="6.57191">
        <ele>2380.36</ele>
        <time>2021-12-19T14:05:46Z</time>
      </trkpt>
      <trkpt lat="45.95373" lon="6.57197">
        <ele>2383.73</ele>
        <time>2021-12-19T14:06:04Z</time>
      </trkpt>
      <trkpt lat="45.95374" lon="6.57199">
        <ele>2383.73</ele>
        <time>2021-12-19T14:06:05Z</time>
      </trkpt>
      <trkpt lat="45.95375" lon="6.572">
        <ele>2384.21</ele>
        <time>2021-12-19T14:06:06Z</time>
      </trkpt>
      <trkpt lat="45.95376" lon="6.57201">
        <ele>2384.21</ele>
        <time>2021-12-19T14:06:07Z</time>
      </trkpt>
      <trkpt lat="45.95378" lon="6.57206">
        <ele>2385.17</ele>
        <time>2021-12-19T14:06:12Z</time>
      </trkpt>
      <trkpt lat="45.95384" lon="6.57217">
        <ele>2388.53</ele>
        <time>2021-12-19T14:06:27Z</time>
      </trkpt>
      <trkpt lat="45.95384" lon="6.57219">
        <ele>2388.53</ele>
        <time>2021-12-19T14:06:28Z</time>
      </trkpt>
      <trkpt lat="45.9539" lon="6.57229">
        <ele>2391.9</ele>
        <time>2021-12-19T14:06:43Z</time>
      </trkpt>
      <trkpt lat="45.95391" lon="6.5723">
        <ele>2391.9</ele>
        <time>2021-12-19T14:06:44Z</time>
      </trkpt>
      <trkpt lat="45.95392" lon="6.57233">
        <ele>2392.38</ele>
        <time>2021-12-19T14:06:48Z</time>
      </trkpt>
      <trkpt lat="45.95396" lon="6.57241">
        <ele>2394.78</ele>
        <time>2021-12-19T14:06:59Z</time>
      </trkpt>
      <trkpt lat="45.95399" lon="6.57254">
        <ele>2398.15</ele>
        <time>2021-12-19T14:07:13Z</time>
      </trkpt>
      <trkpt lat="45.95395" lon="6.5726">
        <ele>2400.55</ele>
        <time>2021-12-19T14:07:29Z</time>
      </trkpt>
      <trkpt lat="45.9539" lon="6.57259">
        <ele>2401.99</ele>
        <time>2021-12-19T14:07:37Z</time>
      </trkpt>
      <trkpt lat="45.95388" lon="6.57264">
        <ele>2404.88</ele>
        <time>2021-12-19T14:07:57Z</time>
      </trkpt>
      <trkpt lat="45.95391" lon="6.57275">
        <ele>2408.24</ele>
        <time>2021-12-19T14:08:09Z</time>
      </trkpt>
      <trkpt lat="45.95391" lon="6.57277">
        <ele>2408.72</ele>
        <time>2021-12-19T14:08:11Z</time>
      </trkpt>
      <trkpt lat="45.95392" lon="6.57278">
        <ele>2409.2</ele>
        <time>2021-12-19T14:08:12Z</time>
      </trkpt>
      <trkpt lat="45.95393" lon="6.57283">
        <ele>2410.16</ele>
        <time>2021-12-19T14:08:16Z</time>
      </trkpt>
      <trkpt lat="45.9539" lon="6.57283">
        <ele>2410.16</ele>
        <time>2021-12-19T14:08:18Z</time>
      </trkpt>
      <trkpt lat="45.95389" lon="6.57283">
        <ele>2410.16</ele>
        <time>2021-12-19T14:08:19Z</time>
      </trkpt>
      <trkpt lat="45.95388" lon="6.57283">
        <ele>2410.64</ele>
        <time>2021-12-19T14:08:20Z</time>
      </trkpt>
      <trkpt lat="45.95387" lon="6.57283">
        <ele>2410.64</ele>
        <time>2021-12-19T14:08:21Z</time>
      </trkpt>
      <trkpt lat="45.95387" lon="6.57281">
        <ele>2410.16</ele>
        <time>2021-12-19T14:11:25Z</time>
      </trkpt>
      <trkpt lat="45.95388" lon="6.57282">
        <ele>2410.64</ele>
        <time>2021-12-19T14:12:11Z</time>
      </trkpt>
      <trkpt lat="45.95388" lon="6.57283">
        <ele>2410.64</ele>
        <time>2021-12-19T14:13:05Z</time>
      </trkpt>
      <trkpt lat="45.95387" lon="6.57283">
        <ele>2410.64</ele>
        <time>2021-12-19T14:14:10Z</time>
      </trkpt>
      <trkpt lat="45.95388" lon="6.57282">
        <ele>2410.64</ele>
        <time>2021-12-19T14:15:20Z</time>
      </trkpt>
      <trkpt lat="45.95389" lon="6.5728">
        <ele>2411.12</ele>
        <time>2021-12-19T14:15:51Z</time>
      </trkpt>
      <trkpt lat="45.9539" lon="6.57278">
        <ele>2410.64</ele>
        <time>2021-12-19T14:15:52Z</time>
      </trkpt>
      <trkpt lat="45.95392" lon="6.5727">
        <ele>2407.28</ele>
        <time>2021-12-19T14:16:01Z</time>
      </trkpt>
      <trkpt lat="45.95391" lon="6.5726">
        <ele>2404.39</ele>
        <time>2021-12-19T14:16:34Z</time>
      </trkpt>
      <trkpt lat="45.95394" lon="6.57255">
        <ele>2403.43</ele>
        <time>2021-12-19T14:16:37Z</time>
      </trkpt>
      <trkpt lat="45.95396" lon="6.57252">
        <ele>2402.47</ele>
        <time>2021-12-19T14:16:38Z</time>
      </trkpt>
      <trkpt lat="45.95398" lon="6.57248">
        <ele>2401.51</ele>
        <time>2021-12-19T14:16:39Z</time>
      </trkpt>
      <trkpt lat="45.954" lon="6.57244">
        <ele>2399.59</ele>
        <time>2021-12-19T14:16:40Z</time>
      </trkpt>
      <trkpt lat="45.95402" lon="6.57241">
        <ele>2397.18</ele>
        <time>2021-12-19T14:16:41Z</time>
      </trkpt>
      <trkpt lat="45.95403" lon="6.57237">
        <ele>2396.22</ele>
        <time>2021-12-19T14:16:42Z</time>
      </trkpt>
      <trkpt lat="45.95404" lon="6.57234">
        <ele>2394.3</ele>
        <time>2021-12-19T14:16:43Z</time>
      </trkpt>
      <trkpt lat="45.95406" lon="6.57232">
        <ele>2392.86</ele>
        <time>2021-12-19T14:16:44Z</time>
      </trkpt>
      <trkpt lat="45.95408" lon="6.5723">
        <ele>2391.42</ele>
        <time>2021-12-19T14:16:45Z</time>
      </trkpt>
      <trkpt lat="45.95409" lon="6.57228">
        <ele>2389.97</ele>
        <time>2021-12-19T14:16:46Z</time>
      </trkpt>
      <trkpt lat="45.95407" lon="6.57225">
        <ele>2389.01</ele>
        <time>2021-12-19T14:16:47Z</time>
      </trkpt>
      <trkpt lat="45.95405" lon="6.57222">
        <ele>2388.05</ele>
        <time>2021-12-19T14:16:48Z</time>
      </trkpt>
      <trkpt lat="45.95402" lon="6.57219">
        <ele>2387.57</ele>
        <time>2021-12-19T14:16:49Z</time>
      </trkpt>
      <trkpt lat="45.95388" lon="6.57203">
        <ele>2384.21</ele>
        <time>2021-12-19T14:16:56Z</time>
      </trkpt>
      <trkpt lat="45.95377" lon="6.57191">
        <ele>2382.28</ele>
        <time>2021-12-19T14:17:03Z</time>
      </trkpt>
      <trkpt lat="45.95377" lon="6.57188">
        <ele>2381.8</ele>
        <time>2021-12-19T14:17:04Z</time>
      </trkpt>
      <trkpt lat="45.95379" lon="6.57187">
        <ele>2381.32</ele>
        <time>2021-12-19T14:17:05Z</time>
      </trkpt>
      <trkpt lat="45.95381" lon="6.57187">
        <ele>2380.84</ele>
        <time>2021-12-19T14:17:06Z</time>
      </trkpt>
      <trkpt lat="45.95383" lon="6.57188">
        <ele>2379.88</ele>
        <time>2021-12-19T14:17:07Z</time>
      </trkpt>
      <trkpt lat="45.95385" lon="6.57189">
        <ele>2379.4</ele>
        <time>2021-12-19T14:17:08Z</time>
      </trkpt>
      <trkpt lat="45.95387" lon="6.57189">
        <ele>2378.92</ele>
        <time>2021-12-19T14:17:09Z</time>
      </trkpt>
      <trkpt lat="45.95389" lon="6.5719">
        <ele>2378.44</ele>
        <time>2021-12-19T14:17:10Z</time>
      </trkpt>
      <trkpt lat="45.95391" lon="6.57189">
        <ele>2377.96</ele>
        <time>2021-12-19T14:17:11Z</time>
      </trkpt>
      <trkpt lat="45.95392" lon="6.57187">
        <ele>2377</ele>
        <time>2021-12-19T14:17:12Z</time>
      </trkpt>
      <trkpt lat="45.95392" lon="6.57184">
        <ele>2377</ele>
        <time>2021-12-19T14:17:13Z</time>
      </trkpt>
      <trkpt lat="45.9539" lon="6.57181">
        <ele>2376.04</ele>
        <time>2021-12-19T14:17:14Z</time>
      </trkpt>
      <trkpt lat="45.95389" lon="6.57178">
        <ele>2375.07</ele>
        <time>2021-12-19T14:17:15Z</time>
      </trkpt>
      <trkpt lat="45.95384" lon="6.5717">
        <ele>2371.71</ele>
        <time>2021-12-19T14:17:22Z</time>
      </trkpt>
      <trkpt lat="45.95385" lon="6.57169">
        <ele>2371.71</ele>
        <time>2021-12-19T14:17:23Z</time>
      </trkpt>
      <trkpt lat="45.95386" lon="6.57169">
        <ele>2371.71</ele>
        <time>2021-12-19T14:17:24Z</time>
      </trkpt>
      <trkpt lat="45.95388" lon="6.57169">
        <ele>2371.23</ele>
        <time>2021-12-19T14:17:25Z</time>
      </trkpt>
      <trkpt lat="45.95389" lon="6.57169">
        <ele>2370.75</ele>
        <time>2021-12-19T14:17:26Z</time>
      </trkpt>
      <trkpt lat="45.9539" lon="6.57167">
        <ele>2370.27</ele>
        <time>2021-12-19T14:17:27Z</time>
      </trkpt>
      <trkpt lat="45.95389" lon="6.57163">
        <ele>2369.79</ele>
        <time>2021-12-19T14:17:28Z</time>
      </trkpt>
      <trkpt lat="45.95389" lon="6.57159">
        <ele>2368.83</ele>
        <time>2021-12-19T14:17:29Z</time>
      </trkpt>
      <trkpt lat="45.9539" lon="6.57157">
        <ele>2367.38</ele>
        <time>2021-12-19T14:17:30Z</time>
      </trkpt>
      <trkpt lat="45.95392" lon="6.57156">
        <ele>2366.42</ele>
        <time>2021-12-19T14:17:31Z</time>
      </trkpt>
      <trkpt lat="45.95393" lon="6.57155">
        <ele>2365.46</ele>
        <time>2021-12-19T14:17:32Z</time>
      </trkpt>
      <trkpt lat="45.95395" lon="6.57154">
        <ele>2364.5</ele>
        <time>2021-12-19T14:17:33Z</time>
      </trkpt>
      <trkpt lat="45.95395" lon="6.57151">
        <ele>2364.02</ele>
        <time>2021-12-19T14:17:34Z</time>
      </trkpt>
      <trkpt lat="45.95393" lon="6.57148">
        <ele>2362.58</ele>
        <time>2021-12-19T14:17:35Z</time>
      </trkpt>
      <trkpt lat="45.95392" lon="6.57145">
        <ele>2362.1</ele>
        <time>2021-12-19T14:17:36Z</time>
      </trkpt>
      <trkpt lat="45.9539" lon="6.57141">
        <ele>2361.14</ele>
        <time>2021-12-19T14:17:37Z</time>
      </trkpt>
      <trkpt lat="45.95388" lon="6.57137">
        <ele>2360.17</ele>
        <time>2021-12-19T14:17:38Z</time>
      </trkpt>
      <trkpt lat="45.95387" lon="6.57133">
        <ele>2359.69</ele>
        <time>2021-12-19T14:17:39Z</time>
      </trkpt>
      <trkpt lat="45.95384" lon="6.57127">
        <ele>2357.29</ele>
        <time>2021-12-19T14:17:42Z</time>
      </trkpt>
      <trkpt lat="45.95384" lon="6.57124">
        <ele>2356.81</ele>
        <time>2021-12-19T14:17:43Z</time>
      </trkpt>
      <trkpt lat="45.95386" lon="6.57123">
        <ele>2355.85</ele>
        <time>2021-12-19T14:17:44Z</time>
      </trkpt>
      <trkpt lat="45.95388" lon="6.57122">
        <ele>2354.41</ele>
        <time>2021-12-19T14:17:45Z</time>
      </trkpt>
      <trkpt lat="45.9539" lon="6.57121">
        <ele>2353.44</ele>
        <time>2021-12-19T14:17:46Z</time>
      </trkpt>
      <trkpt lat="45.95392" lon="6.57118">
        <ele>2352.48</ele>
        <time>2021-12-19T14:17:47Z</time>
      </trkpt>
      <trkpt lat="45.95392" lon="6.57113">
        <ele>2351.04</ele>
        <time>2021-12-19T14:17:48Z</time>
      </trkpt>
      <trkpt lat="45.95394" lon="6.5711">
        <ele>2350.08</ele>
        <time>2021-12-19T14:17:49Z</time>
      </trkpt>
      <trkpt lat="45.95397" lon="6.57111">
        <ele>2348.64</ele>
        <time>2021-12-19T14:17:50Z</time>
      </trkpt>
      <trkpt lat="45.95399" lon="6.57112">
        <ele>2347.2</ele>
        <time>2021-12-19T14:17:51Z</time>
      </trkpt>
      <trkpt lat="45.95401" lon="6.57112">
        <ele>2346.72</ele>
        <time>2021-12-19T14:17:52Z</time>
      </trkpt>
      <trkpt lat="45.95403" lon="6.57111">
        <ele>2346.23</ele>
        <time>2021-12-19T14:17:53Z</time>
      </trkpt>
      <trkpt lat="45.95404" lon="6.57108">
        <ele>2345.27</ele>
        <time>2021-12-19T14:17:54Z</time>
      </trkpt>
      <trkpt lat="45.95403" lon="6.57104">
        <ele>2343.83</ele>
        <time>2021-12-19T14:17:55Z</time>
      </trkpt>
      <trkpt lat="45.95401" lon="6.571">
        <ele>2343.35</ele>
        <time>2021-12-19T14:17:56Z</time>
      </trkpt>
      <trkpt lat="45.95399" lon="6.57097">
        <ele>2342.39</ele>
        <time>2021-12-19T14:17:57Z</time>
      </trkpt>
      <trkpt lat="45.95397" lon="6.57093">
        <ele>2341.91</ele>
        <time>2021-12-19T14:17:58Z</time>
      </trkpt>
      <trkpt lat="45.95393" lon="6.57084">
        <ele>2340.47</ele>
        <time>2021-12-19T14:18:01Z</time>
      </trkpt>
      <trkpt lat="45.95394" lon="6.57081">
        <ele>2339.99</ele>
        <time>2021-12-19T14:18:02Z</time>
      </trkpt>
      <trkpt lat="45.95397" lon="6.57079">
        <ele>2339.02</ele>
        <time>2021-12-19T14:18:03Z</time>
      </trkpt>
      <trkpt lat="45.95399" lon="6.57078">
        <ele>2337.58</ele>
        <time>2021-12-19T14:18:04Z</time>
      </trkpt>
      <trkpt lat="45.954" lon="6.57075">
        <ele>2336.62</ele>
        <time>2021-12-19T14:18:05Z</time>
      </trkpt>
      <trkpt lat="45.95402" lon="6.57071">
        <ele>2335.18</ele>
        <time>2021-12-19T14:18:06Z</time>
      </trkpt>
      <trkpt lat="45.95405" lon="6.57069">
        <ele>2333.74</ele>
        <time>2021-12-19T14:18:07Z</time>
      </trkpt>
      <trkpt lat="45.95408" lon="6.57066">
        <ele>2332.3</ele>
        <time>2021-12-19T14:18:08Z</time>
      </trkpt>
      <trkpt lat="45.95409" lon="6.57062">
        <ele>2329.89</ele>
        <time>2021-12-19T14:18:09Z</time>
      </trkpt>
      <trkpt lat="45.95411" lon="6.57057">
        <ele>2328.45</ele>
        <time>2021-12-19T14:18:10Z</time>
      </trkpt>
      <trkpt lat="45.95413" lon="6.57054">
        <ele>2326.53</ele>
        <time>2021-12-19T14:18:11Z</time>
      </trkpt>
      <trkpt lat="45.95416" lon="6.57051">
        <ele>2325.57</ele>
        <time>2021-12-19T14:18:12Z</time>
      </trkpt>
      <trkpt lat="45.95418" lon="6.57048">
        <ele>2323.16</ele>
        <time>2021-12-19T14:18:13Z</time>
      </trkpt>
      <trkpt lat="45.95418" lon="6.57042">
        <ele>2320.76</ele>
        <time>2021-12-19T14:18:14Z</time>
      </trkpt>
      <trkpt lat="45.95419" lon="6.57037">
        <ele>2318.84</ele>
        <time>2021-12-19T14:18:15Z</time>
      </trkpt>
      <trkpt lat="45.95422" lon="6.57034">
        <ele>2316.91</ele>
        <time>2021-12-19T14:18:16Z</time>
      </trkpt>
      <trkpt lat="45.95423" lon="6.57029">
        <ele>2314.51</ele>
        <time>2021-12-19T14:18:17Z</time>
      </trkpt>
      <trkpt lat="45.95424" lon="6.57023">
        <ele>2312.59</ele>
        <time>2021-12-19T14:18:18Z</time>
      </trkpt>
      <trkpt lat="45.95425" lon="6.57018">
        <ele>2310.67</ele>
        <time>2021-12-19T14:18:19Z</time>
      </trkpt>
      <trkpt lat="45.95426" lon="6.57012">
        <ele>2308.74</ele>
        <time>2021-12-19T14:18:20Z</time>
      </trkpt>
      <trkpt lat="45.95425" lon="6.57006">
        <ele>2306.82</ele>
        <time>2021-12-19T14:18:21Z</time>
      </trkpt>
      <trkpt lat="45.95423" lon="6.57002">
        <ele>2305.86</ele>
        <time>2021-12-19T14:18:22Z</time>
      </trkpt>
      <trkpt lat="45.95416" lon="6.56984">
        <ele>2302.49</ele>
        <time>2021-12-19T14:18:26Z</time>
      </trkpt>
      <trkpt lat="45.95415" lon="6.56978">
        <ele>2302.01</ele>
        <time>2021-12-19T14:18:27Z</time>
      </trkpt>
      <trkpt lat="45.95413" lon="6.56954">
        <ele>2298.17</ele>
        <time>2021-12-19T14:18:31Z</time>
      </trkpt>
      <trkpt lat="45.95409" lon="6.56931">
        <ele>2295.28</ele>
        <time>2021-12-19T14:18:36Z</time>
      </trkpt>
      <trkpt lat="45.9541" lon="6.56927">
        <ele>2294.8</ele>
        <time>2021-12-19T14:18:37Z</time>
      </trkpt>
      <trkpt lat="45.95412" lon="6.56924">
        <ele>2293.84</ele>
        <time>2021-12-19T14:18:38Z</time>
      </trkpt>
      <trkpt lat="45.95414" lon="6.56924">
        <ele>2292.4</ele>
        <time>2021-12-19T14:18:39Z</time>
      </trkpt>
      <trkpt lat="45.95417" lon="6.56925">
        <ele>2290.96</ele>
        <time>2021-12-19T14:18:40Z</time>
      </trkpt>
      <trkpt lat="45.95419" lon="6.56922">
        <ele>2289.52</ele>
        <time>2021-12-19T14:18:41Z</time>
      </trkpt>
      <trkpt lat="45.95419" lon="6.56917">
        <ele>2287.59</ele>
        <time>2021-12-19T14:18:42Z</time>
      </trkpt>
      <trkpt lat="45.95419" lon="6.5691">
        <ele>2286.15</ele>
        <time>2021-12-19T14:18:43Z</time>
      </trkpt>
      <trkpt lat="45.95419" lon="6.56904">
        <ele>2284.71</ele>
        <time>2021-12-19T14:18:44Z</time>
      </trkpt>
      <trkpt lat="45.95421" lon="6.569">
        <ele>2283.27</ele>
        <time>2021-12-19T14:18:45Z</time>
      </trkpt>
      <trkpt lat="45.95428" lon="6.56891">
        <ele>2278.46</ele>
        <time>2021-12-19T14:18:47Z</time>
      </trkpt>
      <trkpt lat="45.95429" lon="6.56882">
        <ele>2276.54</ele>
        <time>2021-12-19T14:18:48Z</time>
      </trkpt>
      <trkpt lat="45.95429" lon="6.56872">
        <ele>2274.14</ele>
        <time>2021-12-19T14:18:49Z</time>
      </trkpt>
      <trkpt lat="45.95429" lon="6.56853">
        <ele>2270.29</ele>
        <time>2021-12-19T14:18:51Z</time>
      </trkpt>
      <trkpt lat="45.95428" lon="6.56828">
        <ele>2266.93</ele>
        <time>2021-12-19T14:18:55Z</time>
      </trkpt>
      <trkpt lat="45.95427" lon="6.56821">
        <ele>2266.45</ele>
        <time>2021-12-19T14:18:56Z</time>
      </trkpt>
      <trkpt lat="45.95426" lon="6.56814">
        <ele>2265.48</ele>
        <time>2021-12-19T14:18:57Z</time>
      </trkpt>
      <trkpt lat="45.95421" lon="6.56789">
        <ele>2263.08</ele>
        <time>2021-12-19T14:19:01Z</time>
      </trkpt>
      <trkpt lat="45.95419" lon="6.5677">
        <ele>2261.64</ele>
        <time>2021-12-19T14:19:06Z</time>
      </trkpt>
      <trkpt lat="45.95422" lon="6.56766">
        <ele>2260.68</ele>
        <time>2021-12-19T14:19:07Z</time>
      </trkpt>
      <trkpt lat="45.95425" lon="6.56762">
        <ele>2258.75</ele>
        <time>2021-12-19T14:19:08Z</time>
      </trkpt>
      <trkpt lat="45.95425" lon="6.56757">
        <ele>2257.79</ele>
        <time>2021-12-19T14:19:09Z</time>
      </trkpt>
      <trkpt lat="45.95424" lon="6.56751">
        <ele>2256.83</ele>
        <time>2021-12-19T14:19:10Z</time>
      </trkpt>
      <trkpt lat="45.95423" lon="6.56746">
        <ele>2255.39</ele>
        <time>2021-12-19T14:19:11Z</time>
      </trkpt>
      <trkpt lat="45.95421" lon="6.56743">
        <ele>2254.91</ele>
        <time>2021-12-19T14:19:12Z</time>
      </trkpt>
      <trkpt lat="45.9542" lon="6.56741">
        <ele>2254.43</ele>
        <time>2021-12-19T14:19:13Z</time>
      </trkpt>
      <trkpt lat="45.9542" lon="6.5674">
        <ele>2253.95</ele>
        <time>2021-12-19T14:19:14Z</time>
      </trkpt>
      <trkpt lat="45.95419" lon="6.56739">
        <ele>2253.95</ele>
        <time>2021-12-19T14:19:15Z</time>
      </trkpt>
      <trkpt lat="45.95412" lon="6.56713">
        <ele>2250.58</ele>
        <time>2021-12-19T14:19:23Z</time>
      </trkpt>
      <trkpt lat="45.95409" lon="6.56701">
        <ele>2248.18</ele>
        <time>2021-12-19T14:20:56Z</time>
      </trkpt>
      <trkpt lat="45.95408" lon="6.56699">
        <ele>2248.66</ele>
        <time>2021-12-19T14:22:04Z</time>
      </trkpt>
      <trkpt lat="45.95407" lon="6.56697">
        <ele>2248.66</ele>
        <time>2021-12-19T14:22:05Z</time>
      </trkpt>
      <trkpt lat="45.95407" lon="6.56695">
        <ele>2248.66</ele>
        <time>2021-12-19T14:22:06Z</time>
      </trkpt>
      <trkpt lat="45.95407" lon="6.56692">
        <ele>2248.18</ele>
        <time>2021-12-19T14:22:07Z</time>
      </trkpt>
      <trkpt lat="45.95408" lon="6.56689">
        <ele>2248.18</ele>
        <time>2021-12-19T14:22:08Z</time>
      </trkpt>
      <trkpt lat="45.95411" lon="6.56676">
        <ele>2246.26</ele>
        <time>2021-12-19T14:22:11Z</time>
      </trkpt>
      <trkpt lat="45.95414" lon="6.56677">
        <ele>2244.82</ele>
        <time>2021-12-19T14:22:12Z</time>
      </trkpt>
      <trkpt lat="45.95417" lon="6.56679">
        <ele>2243.37</ele>
        <time>2021-12-19T14:22:13Z</time>
      </trkpt>
      <trkpt lat="45.95421" lon="6.56679">
        <ele>2242.41</ele>
        <time>2021-12-19T14:22:14Z</time>
      </trkpt>
      <trkpt lat="45.95424" lon="6.56676">
        <ele>2240.49</ele>
        <time>2021-12-19T14:22:15Z</time>
      </trkpt>
      <trkpt lat="45.95427" lon="6.56672">
        <ele>2239.05</ele>
        <time>2021-12-19T14:22:16Z</time>
      </trkpt>
      <trkpt lat="45.95431" lon="6.56672">
        <ele>2236.64</ele>
        <time>2021-12-19T14:22:17Z</time>
      </trkpt>
      <trkpt lat="45.95435" lon="6.56673">
        <ele>2234.72</ele>
        <time>2021-12-19T14:22:18Z</time>
      </trkpt>
      <trkpt lat="45.95438" lon="6.56671">
        <ele>2232.8</ele>
        <time>2021-12-19T14:22:19Z</time>
      </trkpt>
      <trkpt lat="45.95439" lon="6.56667">
        <ele>2230.4</ele>
        <time>2021-12-19T14:22:20Z</time>
      </trkpt>
      <trkpt lat="45.95441" lon="6.56664">
        <ele>2228.47</ele>
        <time>2021-12-19T14:22:21Z</time>
      </trkpt>
      <trkpt lat="45.95444" lon="6.56661">
        <ele>2227.03</ele>
        <time>2021-12-19T14:22:22Z</time>
      </trkpt>
      <trkpt lat="45.95446" lon="6.56657">
        <ele>2225.11</ele>
        <time>2021-12-19T14:22:23Z</time>
      </trkpt>
      <trkpt lat="45.95446" lon="6.56653">
        <ele>2223.19</ele>
        <time>2021-12-19T14:22:24Z</time>
      </trkpt>
      <trkpt lat="45.95446" lon="6.56649">
        <ele>2222.22</ele>
        <time>2021-12-19T14:22:25Z</time>
      </trkpt>
      <trkpt lat="45.95449" lon="6.56638">
        <ele>2219.34</ele>
        <time>2021-12-19T14:22:28Z</time>
      </trkpt>
      <trkpt lat="45.95452" lon="6.56639">
        <ele>2217.42</ele>
        <time>2021-12-19T14:22:29Z</time>
      </trkpt>
      <trkpt lat="45.95455" lon="6.56638">
        <ele>2215.98</ele>
        <time>2021-12-19T14:22:30Z</time>
      </trkpt>
      <trkpt lat="45.95459" lon="6.56636">
        <ele>2214.05</ele>
        <time>2021-12-19T14:22:31Z</time>
      </trkpt>
      <trkpt lat="45.95462" lon="6.56635">
        <ele>2211.65</ele>
        <time>2021-12-19T14:22:32Z</time>
      </trkpt>
      <trkpt lat="45.95465" lon="6.56633">
        <ele>2209.73</ele>
        <time>2021-12-19T14:22:33Z</time>
      </trkpt>
      <trkpt lat="45.95468" lon="6.5663">
        <ele>2207.32</ele>
        <time>2021-12-19T14:22:34Z</time>
      </trkpt>
      <trkpt lat="45.95472" lon="6.5663">
        <ele>2204.44</ele>
        <time>2021-12-19T14:22:35Z</time>
      </trkpt>
      <trkpt lat="45.95476" lon="6.56631">
        <ele>2202.52</ele>
        <time>2021-12-19T14:22:36Z</time>
      </trkpt>
      <trkpt lat="45.95478" lon="6.56628">
        <ele>2200.59</ele>
        <time>2021-12-19T14:22:37Z</time>
      </trkpt>
      <trkpt lat="45.95483" lon="6.56625">
        <ele>2198.19</ele>
        <time>2021-12-19T14:22:38Z</time>
      </trkpt>
      <trkpt lat="45.95486" lon="6.56625">
        <ele>2195.31</ele>
        <time>2021-12-19T14:22:39Z</time>
      </trkpt>
      <trkpt lat="45.9549" lon="6.56624">
        <ele>2192.9</ele>
        <time>2021-12-19T14:22:40Z</time>
      </trkpt>
      <trkpt lat="45.95493" lon="6.56621">
        <ele>2190.98</ele>
        <time>2021-12-19T14:22:41Z</time>
      </trkpt>
      <trkpt lat="45.95496" lon="6.56619">
        <ele>2188.58</ele>
        <time>2021-12-19T14:22:42Z</time>
      </trkpt>
      <trkpt lat="45.95501" lon="6.5662">
        <ele>2186.18</ele>
        <time>2021-12-19T14:22:43Z</time>
      </trkpt>
      <trkpt lat="45.95505" lon="6.56618">
        <ele>2182.81</ele>
        <time>2021-12-19T14:22:44Z</time>
      </trkpt>
      <trkpt lat="45.9551" lon="6.56614">
        <ele>2179.93</ele>
        <time>2021-12-19T14:22:45Z</time>
      </trkpt>
      <trkpt lat="45.95514" lon="6.56613">
        <ele>2177.04</ele>
        <time>2021-12-19T14:22:46Z</time>
      </trkpt>
      <trkpt lat="45.95518" lon="6.56613">
        <ele>2174.64</ele>
        <time>2021-12-19T14:22:47Z</time>
      </trkpt>
      <trkpt lat="45.95523" lon="6.5661">
        <ele>2172.72</ele>
        <time>2021-12-19T14:22:48Z</time>
      </trkpt>
      <trkpt lat="45.95528" lon="6.56609">
        <ele>2168.87</ele>
        <time>2021-12-19T14:22:49Z</time>
      </trkpt>
      <trkpt lat="45.95534" lon="6.5661">
        <ele>2165.51</ele>
        <time>2021-12-19T14:22:50Z</time>
      </trkpt>
      <trkpt lat="45.95539" lon="6.56609">
        <ele>2163.1</ele>
        <time>2021-12-19T14:22:51Z</time>
      </trkpt>
      <trkpt lat="45.95544" lon="6.56606">
        <ele>2160.22</ele>
        <time>2021-12-19T14:22:52Z</time>
      </trkpt>
      <trkpt lat="45.95549" lon="6.56605">
        <ele>2157.34</ele>
        <time>2021-12-19T14:22:53Z</time>
      </trkpt>
      <trkpt lat="45.95555" lon="6.56604">
        <ele>2154.45</ele>
        <time>2021-12-19T14:22:54Z</time>
      </trkpt>
      <trkpt lat="45.95559" lon="6.56601">
        <ele>2151.57</ele>
        <time>2021-12-19T14:22:55Z</time>
      </trkpt>
      <trkpt lat="45.95564" lon="6.56599">
        <ele>2148.68</ele>
        <time>2021-12-19T14:22:56Z</time>
      </trkpt>
      <trkpt lat="45.95569" lon="6.56599">
        <ele>2146.28</ele>
        <time>2021-12-19T14:22:57Z</time>
      </trkpt>
      <trkpt lat="45.95574" lon="6.56595">
        <ele>2143.88</ele>
        <time>2021-12-19T14:22:58Z</time>
      </trkpt>
      <trkpt lat="45.9558" lon="6.56594">
        <ele>2140.99</ele>
        <time>2021-12-19T14:22:59Z</time>
      </trkpt>
      <trkpt lat="45.95586" lon="6.56595">
        <ele>2139.07</ele>
        <time>2021-12-19T14:23:00Z</time>
      </trkpt>
      <trkpt lat="45.95593" lon="6.56593">
        <ele>2136.19</ele>
        <time>2021-12-19T14:23:01Z</time>
      </trkpt>
      <trkpt lat="45.956" lon="6.56592">
        <ele>2133.78</ele>
        <time>2021-12-19T14:23:02Z</time>
      </trkpt>
      <trkpt lat="45.95614" lon="6.56587">
        <ele>2128.5</ele>
        <time>2021-12-19T14:23:04Z</time>
      </trkpt>
      <trkpt lat="45.95617" lon="6.56581">
        <ele>2126.57</ele>
        <time>2021-12-19T14:23:05Z</time>
      </trkpt>
      <trkpt lat="45.9562" lon="6.56575">
        <ele>2125.61</ele>
        <time>2021-12-19T14:23:07Z</time>
      </trkpt>
      <trkpt lat="45.95618" lon="6.56569">
        <ele>2126.09</ele>
        <time>2021-12-19T14:24:54Z</time>
      </trkpt>
      <trkpt lat="45.9561" lon="6.56562">
        <ele>2125.61</ele>
        <time>2021-12-19T14:25:27Z</time>
      </trkpt>
      <trkpt lat="45.95611" lon="6.56562">
        <ele>2125.61</ele>
        <time>2021-12-19T14:25:34Z</time>
      </trkpt>
      <trkpt lat="45.95615" lon="6.56558">
        <ele>2125.61</ele>
        <time>2021-12-19T14:26:44Z</time>
      </trkpt>
      <trkpt lat="45.95617" lon="6.56557">
        <ele>2125.13</ele>
        <time>2021-12-19T14:26:45Z</time>
      </trkpt>
      <trkpt lat="45.9562" lon="6.56558">
        <ele>2124.17</ele>
        <time>2021-12-19T14:26:46Z</time>
      </trkpt>
      <trkpt lat="45.95623" lon="6.56563">
        <ele>2123.69</ele>
        <time>2021-12-19T14:26:47Z</time>
      </trkpt>
      <trkpt lat="45.95624" lon="6.5657">
        <ele>2121.29</ele>
        <time>2021-12-19T14:26:48Z</time>
      </trkpt>
      <trkpt lat="45.95625" lon="6.56576">
        <ele>2119.36</ele>
        <time>2021-12-19T14:26:49Z</time>
      </trkpt>
      <trkpt lat="45.95628" lon="6.5658">
        <ele>2117.92</ele>
        <time>2021-12-19T14:26:50Z</time>
      </trkpt>
      <trkpt lat="45.95633" lon="6.56584">
        <ele>2116</ele>
        <time>2021-12-19T14:26:51Z</time>
      </trkpt>
      <trkpt lat="45.95636" lon="6.56591">
        <ele>2114.08</ele>
        <time>2021-12-19T14:26:52Z</time>
      </trkpt>
      <trkpt lat="45.95637" lon="6.56598">
        <ele>2111.19</ele>
        <time>2021-12-19T14:26:53Z</time>
      </trkpt>
      <trkpt lat="45.95639" lon="6.56604">
        <ele>2108.31</ele>
        <time>2021-12-19T14:26:54Z</time>
      </trkpt>
      <trkpt lat="45.95643" lon="6.56608">
        <ele>2105.91</ele>
        <time>2021-12-19T14:26:55Z</time>
      </trkpt>
      <trkpt lat="45.95649" lon="6.5661">
        <ele>2103.98</ele>
        <time>2021-12-19T14:26:56Z</time>
      </trkpt>
      <trkpt lat="45.95653" lon="6.56617">
        <ele>2100.62</ele>
        <time>2021-12-19T14:26:57Z</time>
      </trkpt>
      <trkpt lat="45.95656" lon="6.56624">
        <ele>2097.25</ele>
        <time>2021-12-19T14:26:58Z</time>
      </trkpt>
      <trkpt lat="45.9566" lon="6.56628">
        <ele>2092.45</ele>
        <time>2021-12-19T14:27:00Z</time>
      </trkpt>
      <trkpt lat="45.95662" lon="6.56626">
        <ele>2089.56</ele>
        <time>2021-12-19T14:27:04Z</time>
      </trkpt>
      <trkpt lat="45.95663" lon="6.56623">
        <ele>2089.56</ele>
        <time>2021-12-19T14:27:14Z</time>
      </trkpt>
      <trkpt lat="45.95666" lon="6.56614">
        <ele>2089.08</ele>
        <time>2021-12-19T14:28:10Z</time>
      </trkpt>
      <trkpt lat="45.95669" lon="6.56612">
        <ele>2088.6</ele>
        <time>2021-12-19T14:28:14Z</time>
      </trkpt>
      <trkpt lat="45.95688" lon="6.56604">
        <ele>2085.24</ele>
        <time>2021-12-19T14:28:19Z</time>
      </trkpt>
      <trkpt lat="45.95693" lon="6.56606">
        <ele>2083.79</ele>
        <time>2021-12-19T14:28:20Z</time>
      </trkpt>
      <trkpt lat="45.95695" lon="6.56611">
        <ele>2082.83</ele>
        <time>2021-12-19T14:28:21Z</time>
      </trkpt>
      <trkpt lat="45.95697" lon="6.56618">
        <ele>2080.43</ele>
        <time>2021-12-19T14:28:22Z</time>
      </trkpt>
      <trkpt lat="45.95701" lon="6.56623">
        <ele>2078.51</ele>
        <time>2021-12-19T14:28:23Z</time>
      </trkpt>
      <trkpt lat="45.95706" lon="6.56624">
        <ele>2075.62</ele>
        <time>2021-12-19T14:28:24Z</time>
      </trkpt>
      <trkpt lat="45.95711" lon="6.56627">
        <ele>2073.22</ele>
        <time>2021-12-19T14:28:25Z</time>
      </trkpt>
      <trkpt lat="45.95712" lon="6.56634">
        <ele>2071.3</ele>
        <time>2021-12-19T14:28:26Z</time>
      </trkpt>
      <trkpt lat="45.95712" lon="6.56641">
        <ele>2068.41</ele>
        <time>2021-12-19T14:28:27Z</time>
      </trkpt>
      <trkpt lat="45.95712" lon="6.56649">
        <ele>2066.01</ele>
        <time>2021-12-19T14:28:28Z</time>
      </trkpt>
      <trkpt lat="45.95714" lon="6.56653">
        <ele>2064.57</ele>
        <time>2021-12-19T14:28:29Z</time>
      </trkpt>
      <trkpt lat="45.95718" lon="6.56655">
        <ele>2062.17</ele>
        <time>2021-12-19T14:28:30Z</time>
      </trkpt>
      <trkpt lat="45.95722" lon="6.56661">
        <ele>2060.24</ele>
        <time>2021-12-19T14:28:31Z</time>
      </trkpt>
      <trkpt lat="45.95723" lon="6.56668">
        <ele>2057.84</ele>
        <time>2021-12-19T14:28:32Z</time>
      </trkpt>
      <trkpt lat="45.95723" lon="6.56674">
        <ele>2055.44</ele>
        <time>2021-12-19T14:28:33Z</time>
      </trkpt>
      <trkpt lat="45.95723" lon="6.56682">
        <ele>2053.03</ele>
        <time>2021-12-19T14:28:34Z</time>
      </trkpt>
      <trkpt lat="45.95726" lon="6.56684">
        <ele>2051.59</ele>
        <time>2021-12-19T14:28:35Z</time>
      </trkpt>
      <trkpt lat="45.9573" lon="6.56685">
        <ele>2049.67</ele>
        <time>2021-12-19T14:28:36Z</time>
      </trkpt>
      <trkpt lat="45.95735" lon="6.56689">
        <ele>2046.3</ele>
        <time>2021-12-19T14:28:37Z</time>
      </trkpt>
      <trkpt lat="45.95739" lon="6.56694">
        <ele>2043.42</ele>
        <time>2021-12-19T14:28:38Z</time>
      </trkpt>
      <trkpt lat="45.95742" lon="6.56698">
        <ele>2041.98</ele>
        <time>2021-12-19T14:28:39Z</time>
      </trkpt>
      <trkpt lat="45.95745" lon="6.56698">
        <ele>2040.05</ele>
        <time>2021-12-19T14:28:40Z</time>
      </trkpt>
      <trkpt lat="45.95747" lon="6.56695">
        <ele>2038.61</ele>
        <time>2021-12-19T14:28:41Z</time>
      </trkpt>
      <trkpt lat="45.95748" lon="6.56692">
        <ele>2037.65</ele>
        <time>2021-12-19T14:28:42Z</time>
      </trkpt>
      <trkpt lat="45.9575" lon="6.56691">
        <ele>2036.69</ele>
        <time>2021-12-19T14:28:43Z</time>
      </trkpt>
      <trkpt lat="45.95752" lon="6.56693">
        <ele>2035.73</ele>
        <time>2021-12-19T14:28:44Z</time>
      </trkpt>
      <trkpt lat="45.95754" lon="6.56697">
        <ele>2034.29</ele>
        <time>2021-12-19T14:28:45Z</time>
      </trkpt>
      <trkpt lat="45.95756" lon="6.56703">
        <ele>2033.33</ele>
        <time>2021-12-19T14:28:46Z</time>
      </trkpt>
      <trkpt lat="45.95758" lon="6.56709">
        <ele>2032.36</ele>
        <time>2021-12-19T14:28:47Z</time>
      </trkpt>
      <trkpt lat="45.9576" lon="6.56713">
        <ele>2031.4</ele>
        <time>2021-12-19T14:28:48Z</time>
      </trkpt>
      <trkpt lat="45.95763" lon="6.56717">
        <ele>2031.4</ele>
        <time>2021-12-19T14:28:49Z</time>
      </trkpt>
      <trkpt lat="45.95764" lon="6.56719">
        <ele>2030.92</ele>
        <time>2021-12-19T14:28:50Z</time>
      </trkpt>
      <trkpt lat="45.95766" lon="6.56722">
        <ele>2030.44</ele>
        <time>2021-12-19T14:28:51Z</time>
      </trkpt>
      <trkpt lat="45.95766" lon="6.5672">
        <ele>2029</ele>
        <time>2021-12-19T14:29:46Z</time>
      </trkpt>
      <trkpt lat="45.95765" lon="6.56718">
        <ele>2029</ele>
        <time>2021-12-19T14:29:49Z</time>
      </trkpt>
      <trkpt lat="45.95765" lon="6.56721">
        <ele>2029</ele>
        <time>2021-12-19T14:29:54Z</time>
      </trkpt>
      <trkpt lat="45.9577" lon="6.56737">
        <ele>2027.08</ele>
        <time>2021-12-19T14:29:59Z</time>
      </trkpt>
      <trkpt lat="45.95773" lon="6.56736">
        <ele>2024.67</ele>
        <time>2021-12-19T14:30:00Z</time>
      </trkpt>
      <trkpt lat="45.95777" lon="6.56738">
        <ele>2022.75</ele>
        <time>2021-12-19T14:30:01Z</time>
      </trkpt>
      <trkpt lat="45.95781" lon="6.56743">
        <ele>2019.87</ele>
        <time>2021-12-19T14:30:02Z</time>
      </trkpt>
      <trkpt lat="45.95785" lon="6.56746">
        <ele>2017.94</ele>
        <time>2021-12-19T14:30:03Z</time>
      </trkpt>
      <trkpt lat="45.95789" lon="6.56745">
        <ele>2015.54</ele>
        <time>2021-12-19T14:30:04Z</time>
      </trkpt>
      <trkpt lat="45.95793" lon="6.56747">
        <ele>2013.14</ele>
        <time>2021-12-19T14:30:05Z</time>
      </trkpt>
      <trkpt lat="45.95796" lon="6.56752">
        <ele>2009.77</ele>
        <time>2021-12-19T14:30:06Z</time>
      </trkpt>
      <trkpt lat="45.958" lon="6.56755">
        <ele>2007.85</ele>
        <time>2021-12-19T14:30:07Z</time>
      </trkpt>
      <trkpt lat="45.95804" lon="6.56754">
        <ele>2005.45</ele>
        <time>2021-12-19T14:30:08Z</time>
      </trkpt>
      <trkpt lat="45.95807" lon="6.56755">
        <ele>2003.04</ele>
        <time>2021-12-19T14:30:09Z</time>
      </trkpt>
      <trkpt lat="45.95811" lon="6.56756">
        <ele>2000.64</ele>
        <time>2021-12-19T14:30:10Z</time>
      </trkpt>
      <trkpt lat="45.95815" lon="6.56757">
        <ele>1998.24</ele>
        <time>2021-12-19T14:30:11Z</time>
      </trkpt>
      <trkpt lat="45.95819" lon="6.5676">
        <ele>1995.83</ele>
        <time>2021-12-19T14:30:12Z</time>
      </trkpt>
      <trkpt lat="45.95823" lon="6.56761">
        <ele>1993.43</ele>
        <time>2021-12-19T14:30:13Z</time>
      </trkpt>
      <trkpt lat="45.95828" lon="6.5676">
        <ele>1991.03</ele>
        <time>2021-12-19T14:30:14Z</time>
      </trkpt>
      <trkpt lat="45.9583" lon="6.56763">
        <ele>1988.62</ele>
        <time>2021-12-19T14:30:15Z</time>
      </trkpt>
      <trkpt lat="45.95832" lon="6.56769">
        <ele>1986.7</ele>
        <time>2021-12-19T14:30:16Z</time>
      </trkpt>
      <trkpt lat="45.95841" lon="6.56782">
        <ele>1984.78</ele>
        <time>2021-12-19T14:30:19Z</time>
      </trkpt>
      <trkpt lat="45.95843" lon="6.56785">
        <ele>1983.82</ele>
        <time>2021-12-19T14:30:20Z</time>
      </trkpt>
      <trkpt lat="45.95846" lon="6.56786">
        <ele>1981.41</ele>
        <time>2021-12-19T14:30:21Z</time>
      </trkpt>
      <trkpt lat="45.95849" lon="6.56788">
        <ele>1977.09</ele>
        <time>2021-12-19T14:30:22Z</time>
      </trkpt>
      <trkpt lat="45.95851" lon="6.56792">
        <ele>1973.72</ele>
        <time>2021-12-19T14:30:23Z</time>
      </trkpt>
      <trkpt lat="45.95856" lon="6.56792">
        <ele>1971.8</ele>
        <time>2021-12-19T14:30:24Z</time>
      </trkpt>
      <trkpt lat="45.95861" lon="6.56791">
        <ele>1968.92</ele>
        <time>2021-12-19T14:30:25Z</time>
      </trkpt>
      <trkpt lat="45.95864" lon="6.56793">
        <ele>1966.51</ele>
        <time>2021-12-19T14:30:26Z</time>
      </trkpt>
      <trkpt lat="45.95872" lon="6.56796">
        <ele>1963.15</ele>
        <time>2021-12-19T14:30:28Z</time>
      </trkpt>
      <trkpt lat="45.95876" lon="6.56796">
        <ele>1961.23</ele>
        <time>2021-12-19T14:30:29Z</time>
      </trkpt>
      <trkpt lat="45.9588" lon="6.56798">
        <ele>1959.78</ele>
        <time>2021-12-19T14:30:30Z</time>
      </trkpt>
      <trkpt lat="45.95883" lon="6.568">
        <ele>1957.38</ele>
        <time>2021-12-19T14:30:31Z</time>
      </trkpt>
      <trkpt lat="45.95887" lon="6.56799">
        <ele>1955.46</ele>
        <time>2021-12-19T14:30:32Z</time>
      </trkpt>
      <trkpt lat="45.9589" lon="6.56797">
        <ele>1954.02</ele>
        <time>2021-12-19T14:30:33Z</time>
      </trkpt>
      <trkpt lat="45.95892" lon="6.56795">
        <ele>1953.06</ele>
        <time>2021-12-19T14:30:34Z</time>
      </trkpt>
      <trkpt lat="45.95894" lon="6.56793">
        <ele>1952.57</ele>
        <time>2021-12-19T14:30:35Z</time>
      </trkpt>
      <trkpt lat="45.95898" lon="6.56791">
        <ele>1952.09</ele>
        <time>2021-12-19T14:30:36Z</time>
      </trkpt>
      <trkpt lat="45.959" lon="6.56789">
        <ele>1951.61</ele>
        <time>2021-12-19T14:30:37Z</time>
      </trkpt>
      <trkpt lat="45.95903" lon="6.56788">
        <ele>1951.13</ele>
        <time>2021-12-19T14:30:38Z</time>
      </trkpt>
      <trkpt lat="45.95919" lon="6.56777">
        <ele>1949.21</ele>
        <time>2021-12-19T14:30:45Z</time>
      </trkpt>
      <trkpt lat="45.95922" lon="6.56767">
        <ele>1948.25</ele>
        <time>2021-12-19T14:32:01Z</time>
      </trkpt>
      <trkpt lat="45.9592" lon="6.56768">
        <ele>1948.25</ele>
        <time>2021-12-19T14:32:51Z</time>
      </trkpt>
      <trkpt lat="45.95924" lon="6.56767">
        <ele>1948.25</ele>
        <time>2021-12-19T14:33:28Z</time>
      </trkpt>
      <trkpt lat="45.95926" lon="6.56766">
        <ele>1947.77</ele>
        <time>2021-12-19T14:33:29Z</time>
      </trkpt>
      <trkpt lat="45.95931" lon="6.56767">
        <ele>1946.81</ele>
        <time>2021-12-19T14:33:30Z</time>
      </trkpt>
      <trkpt lat="45.95935" lon="6.56772">
        <ele>1945.85</ele>
        <time>2021-12-19T14:33:31Z</time>
      </trkpt>
      <trkpt lat="45.95938" lon="6.5678">
        <ele>1943.92</ele>
        <time>2021-12-19T14:33:32Z</time>
      </trkpt>
      <trkpt lat="45.9594" lon="6.56789">
        <ele>1942</ele>
        <time>2021-12-19T14:33:33Z</time>
      </trkpt>
      <trkpt lat="45.95943" lon="6.56794">
        <ele>1940.08</ele>
        <time>2021-12-19T14:33:34Z</time>
      </trkpt>
      <trkpt lat="45.95948" lon="6.56796">
        <ele>1938.16</ele>
        <time>2021-12-19T14:33:35Z</time>
      </trkpt>
      <trkpt lat="45.95954" lon="6.568">
        <ele>1935.27</ele>
        <time>2021-12-19T14:33:36Z</time>
      </trkpt>
      <trkpt lat="45.95958" lon="6.56808">
        <ele>1932.39</ele>
        <time>2021-12-19T14:33:37Z</time>
      </trkpt>
      <trkpt lat="45.9596" lon="6.56817">
        <ele>1929.98</ele>
        <time>2021-12-19T14:33:38Z</time>
      </trkpt>
      <trkpt lat="45.95962" lon="6.56823">
        <ele>1927.58</ele>
        <time>2021-12-19T14:33:39Z</time>
      </trkpt>
      <trkpt lat="45.95969" lon="6.56824">
        <ele>1925.18</ele>
        <time>2021-12-19T14:33:40Z</time>
      </trkpt>
      <trkpt lat="45.95974" lon="6.56828">
        <ele>1922.77</ele>
        <time>2021-12-19T14:33:41Z</time>
      </trkpt>
      <trkpt lat="45.9598" lon="6.56833">
        <ele>1920.37</ele>
        <time>2021-12-19T14:33:42Z</time>
      </trkpt>
      <trkpt lat="45.95986" lon="6.56837">
        <ele>1918.45</ele>
        <time>2021-12-19T14:33:43Z</time>
      </trkpt>
      <trkpt lat="45.95992" lon="6.56836">
        <ele>1916.04</ele>
        <time>2021-12-19T14:33:44Z</time>
      </trkpt>
      <trkpt lat="45.95997" lon="6.56838">
        <ele>1913.16</ele>
        <time>2021-12-19T14:33:45Z</time>
      </trkpt>
      <trkpt lat="45.96002" lon="6.56844">
        <ele>1910.28</ele>
        <time>2021-12-19T14:33:46Z</time>
      </trkpt>
      <trkpt lat="45.96006" lon="6.56849">
        <ele>1907.87</ele>
        <time>2021-12-19T14:33:47Z</time>
      </trkpt>
      <trkpt lat="45.96012" lon="6.56854">
        <ele>1905.47</ele>
        <time>2021-12-19T14:33:48Z</time>
      </trkpt>
      <trkpt lat="45.96016" lon="6.5686">
        <ele>1902.59</ele>
        <time>2021-12-19T14:33:49Z</time>
      </trkpt>
      <trkpt lat="45.96026" lon="6.56866">
        <ele>1898.26</ele>
        <time>2021-12-19T14:33:51Z</time>
      </trkpt>
      <trkpt lat="45.96032" lon="6.56867">
        <ele>1896.34</ele>
        <time>2021-12-19T14:33:52Z</time>
      </trkpt>
      <trkpt lat="45.96034" lon="6.56873">
        <ele>1893.93</ele>
        <time>2021-12-19T14:33:53Z</time>
      </trkpt>
      <trkpt lat="45.96037" lon="6.56887">
        <ele>1889.61</ele>
        <time>2021-12-19T14:33:55Z</time>
      </trkpt>
      <trkpt lat="45.96044" lon="6.56889">
        <ele>1887.21</ele>
        <time>2021-12-19T14:33:56Z</time>
      </trkpt>
      <trkpt lat="45.96049" lon="6.56897">
        <ele>1883.84</ele>
        <time>2021-12-19T14:33:57Z</time>
      </trkpt>
      <trkpt lat="45.96053" lon="6.56907">
        <ele>1880.48</ele>
        <time>2021-12-19T14:33:58Z</time>
      </trkpt>
      <trkpt lat="45.96056" lon="6.56915">
        <ele>1877.59</ele>
        <time>2021-12-19T14:33:59Z</time>
      </trkpt>
      <trkpt lat="45.9606" lon="6.56923">
        <ele>1875.19</ele>
        <time>2021-12-19T14:34:00Z</time>
      </trkpt>
      <trkpt lat="45.96068" lon="6.56927">
        <ele>1872.3</ele>
        <time>2021-12-19T14:34:01Z</time>
      </trkpt>
      <trkpt lat="45.96075" lon="6.56935">
        <ele>1868.46</ele>
        <time>2021-12-19T14:34:02Z</time>
      </trkpt>
      <trkpt lat="45.9608" lon="6.56945">
        <ele>1865.09</ele>
        <time>2021-12-19T14:34:03Z</time>
      </trkpt>
      <trkpt lat="45.96086" lon="6.56952">
        <ele>1863.17</ele>
        <time>2021-12-19T14:34:04Z</time>
      </trkpt>
      <trkpt lat="45.96095" lon="6.56954">
        <ele>1861.25</ele>
        <time>2021-12-19T14:34:05Z</time>
      </trkpt>
      <trkpt lat="45.96104" lon="6.5696">
        <ele>1858.37</ele>
        <time>2021-12-19T14:34:06Z</time>
      </trkpt>
      <trkpt lat="45.9611" lon="6.56967">
        <ele>1855</ele>
        <time>2021-12-19T14:34:07Z</time>
      </trkpt>
      <trkpt lat="45.96114" lon="6.56978">
        <ele>1852.6</ele>
        <time>2021-12-19T14:34:08Z</time>
      </trkpt>
      <trkpt lat="45.96117" lon="6.56986">
        <ele>1849.23</ele>
        <time>2021-12-19T14:34:09Z</time>
      </trkpt>
      <trkpt lat="45.96126" lon="6.5699">
        <ele>1847.31</ele>
        <time>2021-12-19T14:34:10Z</time>
      </trkpt>
      <trkpt lat="45.96132" lon="6.56996">
        <ele>1844.43</ele>
        <time>2021-12-19T14:34:11Z</time>
      </trkpt>
      <trkpt lat="45.96137" lon="6.57006">
        <ele>1842.02</ele>
        <time>2021-12-19T14:34:12Z</time>
      </trkpt>
      <trkpt lat="45.96142" lon="6.57012">
        <ele>1840.1</ele>
        <time>2021-12-19T14:34:13Z</time>
      </trkpt>
      <trkpt lat="45.96149" lon="6.57019">
        <ele>1838.18</ele>
        <time>2021-12-19T14:34:14Z</time>
      </trkpt>
      <trkpt lat="45.96155" lon="6.57028">
        <ele>1835.29</ele>
        <time>2021-12-19T14:34:15Z</time>
      </trkpt>
      <trkpt lat="45.96159" lon="6.57037">
        <ele>1833.37</ele>
        <time>2021-12-19T14:34:16Z</time>
      </trkpt>
      <trkpt lat="45.96163" lon="6.57045">
        <ele>1831.45</ele>
        <time>2021-12-19T14:34:17Z</time>
      </trkpt>
      <trkpt lat="45.9617" lon="6.57051">
        <ele>1829.05</ele>
        <time>2021-12-19T14:34:18Z</time>
      </trkpt>
      <trkpt lat="45.96176" lon="6.57061">
        <ele>1826.16</ele>
        <time>2021-12-19T14:34:19Z</time>
      </trkpt>
      <trkpt lat="45.96178" lon="6.57074">
        <ele>1823.28</ele>
        <time>2021-12-19T14:34:20Z</time>
      </trkpt>
      <trkpt lat="45.96178" lon="6.57085">
        <ele>1820.87</ele>
        <time>2021-12-19T14:34:21Z</time>
      </trkpt>
      <trkpt lat="45.9618" lon="6.57091">
        <ele>1819.43</ele>
        <time>2021-12-19T14:34:22Z</time>
      </trkpt>
      <trkpt lat="45.96184" lon="6.57092">
        <ele>1817.99</ele>
        <time>2021-12-19T14:34:23Z</time>
      </trkpt>
      <trkpt lat="45.96187" lon="6.57089">
        <ele>1817.03</ele>
        <time>2021-12-19T14:34:24Z</time>
      </trkpt>
      <trkpt lat="45.96187" lon="6.57084">
        <ele>1815.11</ele>
        <time>2021-12-19T14:34:26Z</time>
      </trkpt>
      <trkpt lat="45.96187" lon="6.57082">
        <ele>1814.63</ele>
        <time>2021-12-19T14:34:27Z</time>
      </trkpt>
      <trkpt lat="45.96185" lon="6.5706">
        <ele>1814.63</ele>
        <time>2021-12-19T14:35:46Z</time>
      </trkpt>
      <trkpt lat="45.96189" lon="6.57064">
        <ele>1814.63</ele>
        <time>2021-12-19T14:36:23Z</time>
      </trkpt>
      <trkpt lat="45.96191" lon="6.57066">
        <ele>1814.63</ele>
        <time>2021-12-19T14:36:24Z</time>
      </trkpt>
      <trkpt lat="45.96197" lon="6.57072">
        <ele>1813.18</ele>
        <time>2021-12-19T14:36:26Z</time>
      </trkpt>
      <trkpt lat="45.96201" lon="6.57078">
        <ele>1812.22</ele>
        <time>2021-12-19T14:36:27Z</time>
      </trkpt>
      <trkpt lat="45.96204" lon="6.57086">
        <ele>1810.3</ele>
        <time>2021-12-19T14:36:28Z</time>
      </trkpt>
      <trkpt lat="45.96209" lon="6.57093">
        <ele>1808.86</ele>
        <time>2021-12-19T14:36:29Z</time>
      </trkpt>
      <trkpt lat="45.96214" lon="6.571">
        <ele>1807.42</ele>
        <time>2021-12-19T14:36:30Z</time>
      </trkpt>
      <trkpt lat="45.96223" lon="6.57118">
        <ele>1803.57</ele>
        <time>2021-12-19T14:36:32Z</time>
      </trkpt>
      <trkpt lat="45.96227" lon="6.57136">
        <ele>1800.21</ele>
        <time>2021-12-19T14:36:34Z</time>
      </trkpt>
      <trkpt lat="45.96229" lon="6.57146">
        <ele>1798.76</ele>
        <time>2021-12-19T14:36:35Z</time>
      </trkpt>
      <trkpt lat="45.9623" lon="6.57156">
        <ele>1796.84</ele>
        <time>2021-12-19T14:36:36Z</time>
      </trkpt>
      <trkpt lat="45.96234" lon="6.57176">
        <ele>1793.96</ele>
        <time>2021-12-19T14:36:38Z</time>
      </trkpt>
      <trkpt lat="45.9624" lon="6.57183">
        <ele>1792.52</ele>
        <time>2021-12-19T14:36:39Z</time>
      </trkpt>
      <trkpt lat="45.96245" lon="6.57193">
        <ele>1790.59</ele>
        <time>2021-12-19T14:36:40Z</time>
      </trkpt>
      <trkpt lat="45.96249" lon="6.57203">
        <ele>1788.19</ele>
        <time>2021-12-19T14:36:41Z</time>
      </trkpt>
      <trkpt lat="45.96253" lon="6.57213">
        <ele>1786.27</ele>
        <time>2021-12-19T14:36:42Z</time>
      </trkpt>
      <trkpt lat="45.96259" lon="6.57222">
        <ele>1784.82</ele>
        <time>2021-12-19T14:36:43Z</time>
      </trkpt>
      <trkpt lat="45.96263" lon="6.57233">
        <ele>1782.9</ele>
        <time>2021-12-19T14:36:44Z</time>
      </trkpt>
      <trkpt lat="45.96265" lon="6.57246">
        <ele>1780.02</ele>
        <time>2021-12-19T14:36:45Z</time>
      </trkpt>
      <trkpt lat="45.96266" lon="6.57259">
        <ele>1777.61</ele>
        <time>2021-12-19T14:36:46Z</time>
      </trkpt>
      <trkpt lat="45.96269" lon="6.57271">
        <ele>1776.17</ele>
        <time>2021-12-19T14:36:47Z</time>
      </trkpt>
      <trkpt lat="45.96272" lon="6.57285">
        <ele>1774.73</ele>
        <time>2021-12-19T14:36:48Z</time>
      </trkpt>
      <trkpt lat="45.96273" lon="6.57298">
        <ele>1771.37</ele>
        <time>2021-12-19T14:36:49Z</time>
      </trkpt>
      <trkpt lat="45.96274" lon="6.57311">
        <ele>1768.96</ele>
        <time>2021-12-19T14:36:50Z</time>
      </trkpt>
      <trkpt lat="45.96279" lon="6.5732">
        <ele>1768</ele>
        <time>2021-12-19T14:36:51Z</time>
      </trkpt>
      <trkpt lat="45.96283" lon="6.57331">
        <ele>1765.6</ele>
        <time>2021-12-19T14:36:52Z</time>
      </trkpt>
      <trkpt lat="45.96286" lon="6.57342">
        <ele>1762.71</ele>
        <time>2021-12-19T14:36:53Z</time>
      </trkpt>
      <trkpt lat="45.9629" lon="6.57353">
        <ele>1761.75</ele>
        <time>2021-12-19T14:36:54Z</time>
      </trkpt>
      <trkpt lat="45.96296" lon="6.57362">
        <ele>1760.79</ele>
        <time>2021-12-19T14:36:55Z</time>
      </trkpt>
      <trkpt lat="45.96302" lon="6.57373">
        <ele>1757.43</ele>
        <time>2021-12-19T14:36:56Z</time>
      </trkpt>
      <trkpt lat="45.96306" lon="6.57386">
        <ele>1753.58</ele>
        <time>2021-12-19T14:36:57Z</time>
      </trkpt>
      <trkpt lat="45.96309" lon="6.574">
        <ele>1751.66</ele>
        <time>2021-12-19T14:36:58Z</time>
      </trkpt>
      <trkpt lat="45.96315" lon="6.57411">
        <ele>1750.7</ele>
        <time>2021-12-19T14:36:59Z</time>
      </trkpt>
      <trkpt lat="45.96327" lon="6.57432">
        <ele>1745.41</ele>
        <time>2021-12-19T14:37:01Z</time>
      </trkpt>
      <trkpt lat="45.9633" lon="6.57444">
        <ele>1743.49</ele>
        <time>2021-12-19T14:37:02Z</time>
      </trkpt>
      <trkpt lat="45.96333" lon="6.57454">
        <ele>1742.05</ele>
        <time>2021-12-19T14:37:03Z</time>
      </trkpt>
      <trkpt lat="45.9634" lon="6.57462">
        <ele>1740.6</ele>
        <time>2021-12-19T14:37:04Z</time>
      </trkpt>
      <trkpt lat="45.96345" lon="6.57473">
        <ele>1738.68</ele>
        <time>2021-12-19T14:37:05Z</time>
      </trkpt>
      <trkpt lat="45.9635" lon="6.57485">
        <ele>1735.32</ele>
        <time>2021-12-19T14:37:06Z</time>
      </trkpt>
      <trkpt lat="45.96355" lon="6.57497">
        <ele>1732.91</ele>
        <time>2021-12-19T14:37:07Z</time>
      </trkpt>
      <trkpt lat="45.96362" lon="6.57506">
        <ele>1731.47</ele>
        <time>2021-12-19T14:37:08Z</time>
      </trkpt>
      <trkpt lat="45.96368" lon="6.57516">
        <ele>1729.07</ele>
        <time>2021-12-19T14:37:09Z</time>
      </trkpt>
      <trkpt lat="45.96374" lon="6.57528">
        <ele>1725.7</ele>
        <time>2021-12-19T14:37:10Z</time>
      </trkpt>
      <trkpt lat="45.96378" lon="6.57541">
        <ele>1722.82</ele>
        <time>2021-12-19T14:37:11Z</time>
      </trkpt>
      <trkpt lat="45.96382" lon="6.57554">
        <ele>1720.9</ele>
        <time>2021-12-19T14:37:12Z</time>
      </trkpt>
      <trkpt lat="45.96389" lon="6.57564">
        <ele>1719.46</ele>
        <time>2021-12-19T14:37:13Z</time>
      </trkpt>
      <trkpt lat="45.96394" lon="6.57578">
        <ele>1717.53</ele>
        <time>2021-12-19T14:37:14Z</time>
      </trkpt>
      <trkpt lat="45.96397" lon="6.5759">
        <ele>1715.13</ele>
        <time>2021-12-19T14:37:15Z</time>
      </trkpt>
      <trkpt lat="45.96401" lon="6.57602">
        <ele>1713.21</ele>
        <time>2021-12-19T14:37:16Z</time>
      </trkpt>
      <trkpt lat="45.96408" lon="6.57611">
        <ele>1711.76</ele>
        <time>2021-12-19T14:37:17Z</time>
      </trkpt>
      <trkpt lat="45.96415" lon="6.57618">
        <ele>1709.36</ele>
        <time>2021-12-19T14:37:18Z</time>
      </trkpt>
      <trkpt lat="45.96419" lon="6.57627">
        <ele>1707.44</ele>
        <time>2021-12-19T14:37:19Z</time>
      </trkpt>
      <trkpt lat="45.96423" lon="6.57637">
        <ele>1705.04</ele>
        <time>2021-12-19T14:37:20Z</time>
      </trkpt>
      <trkpt lat="45.96428" lon="6.57644">
        <ele>1703.59</ele>
        <time>2021-12-19T14:37:21Z</time>
      </trkpt>
      <trkpt lat="45.96438" lon="6.5766">
        <ele>1698.31</ele>
        <time>2021-12-19T14:37:23Z</time>
      </trkpt>
      <trkpt lat="45.96443" lon="6.57666">
        <ele>1696.38</ele>
        <time>2021-12-19T14:37:24Z</time>
      </trkpt>
      <trkpt lat="45.96449" lon="6.57672">
        <ele>1694.94</ele>
        <time>2021-12-19T14:37:25Z</time>
      </trkpt>
      <trkpt lat="45.96451" lon="6.57679">
        <ele>1693.02</ele>
        <time>2021-12-19T14:37:26Z</time>
      </trkpt>
      <trkpt lat="45.96452" lon="6.57686">
        <ele>1691.58</ele>
        <time>2021-12-19T14:37:27Z</time>
      </trkpt>
      <trkpt lat="45.96454" lon="6.57692">
        <ele>1690.62</ele>
        <time>2021-12-19T14:37:28Z</time>
      </trkpt>
      <trkpt lat="45.96457" lon="6.57696">
        <ele>1689.65</ele>
        <time>2021-12-19T14:37:29Z</time>
      </trkpt>
      <trkpt lat="45.96458" lon="6.577">
        <ele>1689.17</ele>
        <time>2021-12-19T14:37:30Z</time>
      </trkpt>
      <trkpt lat="45.96459" lon="6.57701">
        <ele>1688.21</ele>
        <time>2021-12-19T14:37:32Z</time>
      </trkpt>
      <trkpt lat="45.96461" lon="6.57686">
        <ele>1687.73</ele>
        <time>2021-12-19T14:39:00Z</time>
      </trkpt>
      <trkpt lat="45.96464" lon="6.57692">
        <ele>1686.77</ele>
        <time>2021-12-19T14:40:04Z</time>
      </trkpt>
      <trkpt lat="45.96466" lon="6.57695">
        <ele>1686.29</ele>
        <time>2021-12-19T14:40:05Z</time>
      </trkpt>
      <trkpt lat="45.96468" lon="6.57697">
        <ele>1685.81</ele>
        <time>2021-12-19T14:40:06Z</time>
      </trkpt>
      <trkpt lat="45.96468" lon="6.577">
        <ele>1685.33</ele>
        <time>2021-12-19T14:40:07Z</time>
      </trkpt>
      <trkpt lat="45.96468" lon="6.57703">
        <ele>1684.85</ele>
        <time>2021-12-19T14:40:08Z</time>
      </trkpt>
      <trkpt lat="45.96469" lon="6.57705">
        <ele>1684.37</ele>
        <time>2021-12-19T14:40:09Z</time>
      </trkpt>
      <trkpt lat="45.9647" lon="6.57706">
        <ele>1683.89</ele>
        <time>2021-12-19T14:40:10Z</time>
      </trkpt>
      <trkpt lat="45.96472" lon="6.57706">
        <ele>1683.41</ele>
        <time>2021-12-19T14:40:11Z</time>
      </trkpt>
      <trkpt lat="45.96475" lon="6.57708">
        <ele>1682.93</ele>
        <time>2021-12-19T14:40:26Z</time>
      </trkpt>
      <trkpt lat="45.96475" lon="6.57711">
        <ele>1682.44</ele>
        <time>2021-12-19T14:40:27Z</time>
      </trkpt>
      <trkpt lat="45.96477" lon="6.57715">
        <ele>1681.96</ele>
        <time>2021-12-19T14:40:28Z</time>
      </trkpt>
      <trkpt lat="45.96479" lon="6.57719">
        <ele>1681.96</ele>
        <time>2021-12-19T14:40:29Z</time>
      </trkpt>
      <trkpt lat="45.96481" lon="6.57725">
        <ele>1681.48</ele>
        <time>2021-12-19T14:40:30Z</time>
      </trkpt>
      <trkpt lat="45.96483" lon="6.57732">
        <ele>1680.52</ele>
        <time>2021-12-19T14:40:31Z</time>
      </trkpt>
      <trkpt lat="45.96486" lon="6.57741">
        <ele>1679.08</ele>
        <time>2021-12-19T14:40:32Z</time>
      </trkpt>
      <trkpt lat="45.96491" lon="6.57759">
        <ele>1676.2</ele>
        <time>2021-12-19T14:40:34Z</time>
      </trkpt>
      <trkpt lat="45.96494" lon="6.57768">
        <ele>1674.75</ele>
        <time>2021-12-19T14:40:35Z</time>
      </trkpt>
      <trkpt lat="45.96498" lon="6.57776">
        <ele>1673.79</ele>
        <time>2021-12-19T14:40:36Z</time>
      </trkpt>
      <trkpt lat="45.96505" lon="6.57793">
        <ele>1670.43</ele>
        <time>2021-12-19T14:40:38Z</time>
      </trkpt>
      <trkpt lat="45.96509" lon="6.57803">
        <ele>1667.54</ele>
        <time>2021-12-19T14:40:39Z</time>
      </trkpt>
      <trkpt lat="45.96511" lon="6.57813">
        <ele>1665.62</ele>
        <time>2021-12-19T14:40:40Z</time>
      </trkpt>
      <trkpt lat="45.96514" lon="6.57821">
        <ele>1665.14</ele>
        <time>2021-12-19T14:40:41Z</time>
      </trkpt>
      <trkpt lat="45.96522" lon="6.57837">
        <ele>1662.26</ele>
        <time>2021-12-19T14:40:43Z</time>
      </trkpt>
      <trkpt lat="45.96525" lon="6.57846">
        <ele>1661.3</ele>
        <time>2021-12-19T14:40:44Z</time>
      </trkpt>
      <trkpt lat="45.96536" lon="6.57874">
        <ele>1659.37</ele>
        <time>2021-12-19T14:40:48Z</time>
      </trkpt>
      <trkpt lat="45.96538" lon="6.5788">
        <ele>1658.41</ele>
        <time>2021-12-19T14:40:49Z</time>
      </trkpt>
      <trkpt lat="45.9654" lon="6.57888">
        <ele>1657.45</ele>
        <time>2021-12-19T14:40:50Z</time>
      </trkpt>
      <trkpt lat="45.96542" lon="6.57896">
        <ele>1656.97</ele>
        <time>2021-12-19T14:40:51Z</time>
      </trkpt>
      <trkpt lat="45.96549" lon="6.57928">
        <ele>1653.6</ele>
        <time>2021-12-19T14:40:55Z</time>
      </trkpt>
      <trkpt lat="45.96554" lon="6.57935">
        <ele>1652.16</ele>
        <time>2021-12-19T14:40:56Z</time>
      </trkpt>
      <trkpt lat="45.96559" lon="6.57944">
        <ele>1650.24</ele>
        <time>2021-12-19T14:40:57Z</time>
      </trkpt>
      <trkpt lat="45.9656" lon="6.57955">
        <ele>1648.32</ele>
        <time>2021-12-19T14:40:58Z</time>
      </trkpt>
      <trkpt lat="45.96561" lon="6.57965">
        <ele>1645.43</ele>
        <time>2021-12-19T14:40:59Z</time>
      </trkpt>
      <trkpt lat="45.96563" lon="6.57974">
        <ele>1643.99</ele>
        <time>2021-12-19T14:41:00Z</time>
      </trkpt>
      <trkpt lat="45.96567" lon="6.57983">
        <ele>1643.51</ele>
        <time>2021-12-19T14:41:01Z</time>
      </trkpt>
      <trkpt lat="45.96573" lon="6.5799">
        <ele>1643.03</ele>
        <time>2021-12-19T14:41:02Z</time>
      </trkpt>
      <trkpt lat="45.96579" lon="6.57999">
        <ele>1640.63</ele>
        <time>2021-12-19T14:41:03Z</time>
      </trkpt>
      <trkpt lat="45.96584" lon="6.58008">
        <ele>1638.7</ele>
        <time>2021-12-19T14:41:04Z</time>
      </trkpt>
      <trkpt lat="45.96589" lon="6.58018">
        <ele>1637.74</ele>
        <time>2021-12-19T14:41:05Z</time>
      </trkpt>
      <trkpt lat="45.96593" lon="6.58028">
        <ele>1635.82</ele>
        <time>2021-12-19T14:41:06Z</time>
      </trkpt>
      <trkpt lat="45.96597" lon="6.58038">
        <ele>1633.9</ele>
        <time>2021-12-19T14:41:07Z</time>
      </trkpt>
      <trkpt lat="45.96601" lon="6.58048">
        <ele>1632.94</ele>
        <time>2021-12-19T14:41:08Z</time>
      </trkpt>
      <trkpt lat="45.96606" lon="6.58056">
        <ele>1631.01</ele>
        <time>2021-12-19T14:41:09Z</time>
      </trkpt>
      <trkpt lat="45.9661" lon="6.58065">
        <ele>1629.57</ele>
        <time>2021-12-19T14:41:10Z</time>
      </trkpt>
      <trkpt lat="45.96611" lon="6.58075">
        <ele>1628.13</ele>
        <time>2021-12-19T14:41:11Z</time>
      </trkpt>
      <trkpt lat="45.96612" lon="6.58084">
        <ele>1626.69</ele>
        <time>2021-12-19T14:41:12Z</time>
      </trkpt>
      <trkpt lat="45.96615" lon="6.58094">
        <ele>1625.25</ele>
        <time>2021-12-19T14:41:13Z</time>
      </trkpt>
      <trkpt lat="45.96618" lon="6.58103">
        <ele>1623.8</ele>
        <time>2021-12-19T14:41:14Z</time>
      </trkpt>
      <trkpt lat="45.96622" lon="6.58112">
        <ele>1622.36</ele>
        <time>2021-12-19T14:41:15Z</time>
      </trkpt>
      <trkpt lat="45.96625" lon="6.58121">
        <ele>1620.92</ele>
        <time>2021-12-19T14:41:16Z</time>
      </trkpt>
      <trkpt lat="45.9663" lon="6.58129">
        <ele>1620.44</ele>
        <time>2021-12-19T14:41:17Z</time>
      </trkpt>
      <trkpt lat="45.96634" lon="6.58137">
        <ele>1618.52</ele>
        <time>2021-12-19T14:41:18Z</time>
      </trkpt>
      <trkpt lat="45.96645" lon="6.58167">
        <ele>1613.71</ele>
        <time>2021-12-19T14:41:21Z</time>
      </trkpt>
      <trkpt lat="45.96649" lon="6.58175">
        <ele>1612.75</ele>
        <time>2021-12-19T14:41:22Z</time>
      </trkpt>
      <trkpt lat="45.96653" lon="6.58184">
        <ele>1610.83</ele>
        <time>2021-12-19T14:41:23Z</time>
      </trkpt>
      <trkpt lat="45.96664" lon="6.58211">
        <ele>1606.98</ele>
        <time>2021-12-19T14:41:26Z</time>
      </trkpt>
      <trkpt lat="45.96668" lon="6.5823">
        <ele>1605.06</ele>
        <time>2021-12-19T14:41:28Z</time>
      </trkpt>
      <trkpt lat="45.96672" lon="6.58238">
        <ele>1604.1</ele>
        <time>2021-12-19T14:41:29Z</time>
      </trkpt>
      <trkpt lat="45.96677" lon="6.58247">
        <ele>1603.14</ele>
        <time>2021-12-19T14:41:30Z</time>
      </trkpt>
      <trkpt lat="45.9668" lon="6.58256">
        <ele>1601.69</ele>
        <time>2021-12-19T14:41:31Z</time>
      </trkpt>
      <trkpt lat="45.96682" lon="6.58266">
        <ele>1600.73</ele>
        <time>2021-12-19T14:41:32Z</time>
      </trkpt>
      <trkpt lat="45.96685" lon="6.58276">
        <ele>1599.77</ele>
        <time>2021-12-19T14:41:33Z</time>
      </trkpt>
      <trkpt lat="45.96687" lon="6.58286">
        <ele>1598.33</ele>
        <time>2021-12-19T14:41:34Z</time>
      </trkpt>
      <trkpt lat="45.96693" lon="6.58307">
        <ele>1595.93</ele>
        <time>2021-12-19T14:41:36Z</time>
      </trkpt>
      <trkpt lat="45.96698" lon="6.58317">
        <ele>1594.96</ele>
        <time>2021-12-19T14:41:37Z</time>
      </trkpt>
      <trkpt lat="45.96701" lon="6.58328">
        <ele>1593.52</ele>
        <time>2021-12-19T14:41:38Z</time>
      </trkpt>
      <trkpt lat="45.96707" lon="6.58346">
        <ele>1591.6</ele>
        <time>2021-12-19T14:41:40Z</time>
      </trkpt>
      <trkpt lat="45.96712" lon="6.58354">
        <ele>1591.12</ele>
        <time>2021-12-19T14:41:41Z</time>
      </trkpt>
      <trkpt lat="45.96716" lon="6.58363">
        <ele>1589.2</ele>
        <time>2021-12-19T14:41:42Z</time>
      </trkpt>
      <trkpt lat="45.9672" lon="6.58372">
        <ele>1588.24</ele>
        <time>2021-12-19T14:41:43Z</time>
      </trkpt>
      <trkpt lat="45.96722" lon="6.5838">
        <ele>1586.79</ele>
        <time>2021-12-19T14:41:44Z</time>
      </trkpt>
      <trkpt lat="45.96732" lon="6.58412">
        <ele>1584.39</ele>
        <time>2021-12-19T14:41:48Z</time>
      </trkpt>
      <trkpt lat="45.96735" lon="6.58419">
        <ele>1583.91</ele>
        <time>2021-12-19T14:41:49Z</time>
      </trkpt>
      <trkpt lat="45.96739" lon="6.58434">
        <ele>1582.95</ele>
        <time>2021-12-19T14:41:51Z</time>
      </trkpt>
      <trkpt lat="45.96738" lon="6.58441">
        <ele>1582.47</ele>
        <time>2021-12-19T14:41:52Z</time>
      </trkpt>
      <trkpt lat="45.96739" lon="6.58448">
        <ele>1581.99</ele>
        <time>2021-12-19T14:41:53Z</time>
      </trkpt>
      <trkpt lat="45.96742" lon="6.58456">
        <ele>1580.54</ele>
        <time>2021-12-19T14:41:54Z</time>
      </trkpt>
      <trkpt lat="45.96746" lon="6.58464">
        <ele>1579.1</ele>
        <time>2021-12-19T14:41:55Z</time>
      </trkpt>
      <trkpt lat="45.96751" lon="6.58471">
        <ele>1578.14</ele>
        <time>2021-12-19T14:41:56Z</time>
      </trkpt>
      <trkpt lat="45.96766" lon="6.58498">
        <ele>1576.7</ele>
        <time>2021-12-19T14:42:01Z</time>
      </trkpt>
      <trkpt lat="45.96779" lon="6.58521">
        <ele>1574.78</ele>
        <time>2021-12-19T14:42:05Z</time>
      </trkpt>
      <trkpt lat="45.9679" lon="6.58548">
        <ele>1572.37</ele>
        <time>2021-12-19T14:42:09Z</time>
      </trkpt>
      <trkpt lat="45.968" lon="6.58577">
        <ele>1569.97</ele>
        <time>2021-12-19T14:42:13Z</time>
      </trkpt>
      <trkpt lat="45.96811" lon="6.58613">
        <ele>1567.57</ele>
        <time>2021-12-19T14:42:17Z</time>
      </trkpt>
      <trkpt lat="45.96813" lon="6.58623">
        <ele>1567.09</ele>
        <time>2021-12-19T14:42:18Z</time>
      </trkpt>
      <trkpt lat="45.96818" lon="6.58661">
        <ele>1565.16</ele>
        <time>2021-12-19T14:42:22Z</time>
      </trkpt>
      <trkpt lat="45.9682" lon="6.58679">
        <ele>1564.2</ele>
        <time>2021-12-19T14:42:24Z</time>
      </trkpt>
      <trkpt lat="45.96821" lon="6.58694">
        <ele>1563.72</ele>
        <time>2021-12-19T14:42:26Z</time>
      </trkpt>
      <trkpt lat="45.9682" lon="6.58701">
        <ele>1563.72</ele>
        <time>2021-12-19T14:42:27Z</time>
      </trkpt>
      <trkpt lat="45.96818" lon="6.58705">
        <ele>1563.72</ele>
        <time>2021-12-19T14:42:28Z</time>
      </trkpt>
      <trkpt lat="45.96806" lon="6.58718">
        <ele>1565.16</ele>
        <time>2021-12-19T14:43:29Z</time>
      </trkpt>
      <trkpt lat="45.96801" lon="6.58726">
        <ele>1567.09</ele>
        <time>2021-12-19T14:44:54Z</time>
      </trkpt>
      <trkpt lat="45.96805" lon="6.58745">
        <ele>1569.97</ele>
        <time>2021-12-19T14:45:35Z</time>
      </trkpt>
      <trkpt lat="45.96805" lon="6.58771">
        <ele>1572.85</ele>
        <time>2021-12-19T14:46:23Z</time>
      </trkpt>
      <trkpt lat="45.96805" lon="6.58772">
        <ele>1572.85</ele>
        <time>2021-12-19T14:46:25Z</time>
      </trkpt>
      <trkpt lat="45.96811" lon="6.58799">
        <ele>1575.26</ele>
        <time>2021-12-19T14:47:02Z</time>
      </trkpt>
      <trkpt lat="45.96811" lon="6.58803">
        <ele>1575.26</ele>
        <time>2021-12-19T14:47:08Z</time>
      </trkpt>
      <trkpt lat="45.96813" lon="6.5881">
        <ele>1575.74</ele>
        <time>2021-12-19T14:47:17Z</time>
      </trkpt>
      <trkpt lat="45.96819" lon="6.58815">
        <ele>1575.74</ele>
        <time>2021-12-19T14:48:15Z</time>
      </trkpt>
      <trkpt lat="45.9682" lon="6.58814">
        <ele>1575.74</ele>
        <time>2021-12-19T14:48:16Z</time>
      </trkpt>
      <trkpt lat="45.96815" lon="6.58819">
        <ele>1575.26</ele>
        <time>2021-12-19T14:49:21Z</time>
      </trkpt>
      <trkpt lat="45.96815" lon="6.58825">
        <ele>1575.26</ele>
        <time>2021-12-19T14:49:39Z</time>
      </trkpt>
      <trkpt lat="45.96815" lon="6.58827">
        <ele>1575.26</ele>
        <time>2021-12-19T14:49:40Z</time>
      </trkpt>
      <trkpt lat="45.96813" lon="6.58855">
        <ele>1572.85</ele>
        <time>2021-12-19T14:49:46Z</time>
      </trkpt>
      <trkpt lat="45.96812" lon="6.58886">
        <ele>1571.41</ele>
        <time>2021-12-19T14:49:52Z</time>
      </trkpt>
      <trkpt lat="45.96814" lon="6.58919">
        <ele>1569.97</ele>
        <time>2021-12-19T14:50:03Z</time>
      </trkpt>
      <trkpt lat="45.96814" lon="6.58942">
        <ele>1569.01</ele>
        <time>2021-12-19T14:50:07Z</time>
      </trkpt>
      <trkpt lat="45.96812" lon="6.58949">
        <ele>1568.53</ele>
        <time>2021-12-19T14:50:08Z</time>
      </trkpt>
      <trkpt lat="45.96811" lon="6.58956">
        <ele>1567.57</ele>
        <time>2021-12-19T14:50:09Z</time>
      </trkpt>
      <trkpt lat="45.96812" lon="6.58964">
        <ele>1566.61</ele>
        <time>2021-12-19T14:50:10Z</time>
      </trkpt>
      <trkpt lat="45.96814" lon="6.58972">
        <ele>1565.16</ele>
        <time>2021-12-19T14:50:11Z</time>
      </trkpt>
      <trkpt lat="45.9682" lon="6.58998">
        <ele>1561.8</ele>
        <time>2021-12-19T14:50:14Z</time>
      </trkpt>
      <trkpt lat="45.96824" lon="6.59008">
        <ele>1561.32</ele>
        <time>2021-12-19T14:50:15Z</time>
      </trkpt>
      <trkpt lat="45.96827" lon="6.59019">
        <ele>1560.84</ele>
        <time>2021-12-19T14:50:16Z</time>
      </trkpt>
      <trkpt lat="45.96834" lon="6.59049">
        <ele>1558.92</ele>
        <time>2021-12-19T14:50:19Z</time>
      </trkpt>
      <trkpt lat="45.96842" lon="6.59081">
        <ele>1557.47</ele>
        <time>2021-12-19T14:50:23Z</time>
      </trkpt>
      <trkpt lat="45.96844" lon="6.59095">
        <ele>1556.99</ele>
        <time>2021-12-19T14:50:25Z</time>
      </trkpt>
      <trkpt lat="45.96844" lon="6.59102">
        <ele>1556.51</ele>
        <time>2021-12-19T14:50:26Z</time>
      </trkpt>
      <trkpt lat="45.96843" lon="6.59117">
        <ele>1556.03</ele>
        <time>2021-12-19T14:50:28Z</time>
      </trkpt>
      <trkpt lat="45.9684" lon="6.59153">
        <ele>1552.67</ele>
        <time>2021-12-19T14:50:32Z</time>
      </trkpt>
      <trkpt lat="45.96835" lon="6.59184">
        <ele>1550.26</ele>
        <time>2021-12-19T14:50:35Z</time>
      </trkpt>
      <trkpt lat="45.96835" lon="6.59195">
        <ele>1549.78</ele>
        <time>2021-12-19T14:50:36Z</time>
      </trkpt>
      <trkpt lat="45.96835" lon="6.59207">
        <ele>1548.82</ele>
        <time>2021-12-19T14:50:37Z</time>
      </trkpt>
      <trkpt lat="45.96835" lon="6.59218">
        <ele>1547.38</ele>
        <time>2021-12-19T14:50:38Z</time>
      </trkpt>
      <trkpt lat="45.96836" lon="6.59228">
        <ele>1546.42</ele>
        <time>2021-12-19T14:50:39Z</time>
      </trkpt>
      <trkpt lat="45.96839" lon="6.59237">
        <ele>1545.46</ele>
        <time>2021-12-19T14:50:40Z</time>
      </trkpt>
      <trkpt lat="45.96842" lon="6.59246">
        <ele>1544.98</ele>
        <time>2021-12-19T14:50:41Z</time>
      </trkpt>
      <trkpt lat="45.96851" lon="6.59277">
        <ele>1543.05</ele>
        <time>2021-12-19T14:50:45Z</time>
      </trkpt>
      <trkpt lat="45.96857" lon="6.59305">
        <ele>1541.61</ele>
        <time>2021-12-19T14:50:50Z</time>
      </trkpt>
      <trkpt lat="45.96858" lon="6.59311">
        <ele>1540.65</ele>
        <time>2021-12-19T14:50:51Z</time>
      </trkpt>
      <trkpt lat="45.96859" lon="6.59319">
        <ele>1540.17</ele>
        <time>2021-12-19T14:50:52Z</time>
      </trkpt>
      <trkpt lat="45.9686" lon="6.59327">
        <ele>1539.21</ele>
        <time>2021-12-19T14:50:53Z</time>
      </trkpt>
      <trkpt lat="45.96861" lon="6.59335">
        <ele>1538.73</ele>
        <time>2021-12-19T14:50:54Z</time>
      </trkpt>
      <trkpt lat="45.96861" lon="6.59342">
        <ele>1538.25</ele>
        <time>2021-12-19T14:50:55Z</time>
      </trkpt>
      <trkpt lat="45.96864" lon="6.59376">
        <ele>1535.84</ele>
        <time>2021-12-19T14:51:01Z</time>
      </trkpt>
      <trkpt lat="45.96862" lon="6.59399">
        <ele>1534.4</ele>
        <time>2021-12-19T14:51:04Z</time>
      </trkpt>
      <trkpt lat="45.96856" lon="6.59427">
        <ele>1532</ele>
        <time>2021-12-19T14:51:11Z</time>
      </trkpt>
      <trkpt lat="45.96844" lon="6.59445">
        <ele>1527.67</ele>
        <time>2021-12-19T14:51:17Z</time>
      </trkpt>
      <trkpt lat="45.96841" lon="6.59451">
        <ele>1526.23</ele>
        <time>2021-12-19T14:51:18Z</time>
      </trkpt>
      <trkpt lat="45.96839" lon="6.59454">
        <ele>1525.75</ele>
        <time>2021-12-19T14:51:19Z</time>
      </trkpt>
      <trkpt lat="45.96838" lon="6.59456">
        <ele>1524.79</ele>
        <time>2021-12-19T14:51:21Z</time>
      </trkpt>
      <trkpt lat="45.96834" lon="6.59458">
        <ele>1524.79</ele>
        <time>2021-12-19T14:51:24Z</time>
      </trkpt>
      <trkpt lat="45.96832" lon="6.59459">
        <ele>1524.31</ele>
        <time>2021-12-19T14:51:25Z</time>
      </trkpt>
      <trkpt lat="45.96823" lon="6.59461">
        <ele>1521.42</ele>
        <time>2021-12-19T14:51:31Z</time>
      </trkpt>
      <trkpt lat="45.96822" lon="6.59461">
        <ele>1520.94</ele>
        <time>2021-12-19T14:51:32Z</time>
      </trkpt>
      <trkpt lat="45.96821" lon="6.59461">
        <ele>1519.98</ele>
        <time>2021-12-19T14:51:34Z</time>
      </trkpt>
      <trkpt lat="45.96819" lon="6.59461">
        <ele>1519.5</ele>
        <time>2021-12-19T14:51:36Z</time>
      </trkpt>
      <trkpt lat="45.96818" lon="6.59461">
        <ele>1519.5</ele>
        <time>2021-12-19T14:51:37Z</time>
      </trkpt>
      <trkpt lat="45.96816" lon="6.5946">
        <ele>1519.02</ele>
        <time>2021-12-19T14:51:38Z</time>
      </trkpt>
      <trkpt lat="45.96815" lon="6.5946">
        <ele>1518.54</ele>
        <time>2021-12-19T14:51:39Z</time>
      </trkpt>
      <trkpt lat="45.96807" lon="6.59458">
        <ele>1515.18</ele>
        <time>2021-12-19T14:51:49Z</time>
      </trkpt>
      <trkpt lat="45.968" lon="6.5946">
        <ele>1513.73</ele>
        <time>2021-12-19T14:51:53Z</time>
      </trkpt>
      <trkpt lat="45.96799" lon="6.59461">
        <ele>1512.77</ele>
        <time>2021-12-19T14:51:54Z</time>
      </trkpt>
      <trkpt lat="45.96797" lon="6.59462">
        <ele>1512.77</ele>
        <time>2021-12-19T14:51:55Z</time>
      </trkpt>
      <trkpt lat="45.96791" lon="6.59466">
        <ele>1510.85</ele>
        <time>2021-12-19T14:51:59Z</time>
      </trkpt>
      <trkpt lat="45.96783" lon="6.59467">
        <ele>1509.41</ele>
        <time>2021-12-19T14:52:16Z</time>
      </trkpt>
      <trkpt lat="45.96776" lon="6.5947">
        <ele>1508.93</ele>
        <time>2021-12-19T14:52:48Z</time>
      </trkpt>
      <trkpt lat="45.96774" lon="6.5947">
        <ele>1508.45</ele>
        <time>2021-12-19T14:52:49Z</time>
      </trkpt>
      <trkpt lat="45.96773" lon="6.59469">
        <ele>1507.97</ele>
        <time>2021-12-19T14:52:50Z</time>
      </trkpt>
      <trkpt lat="45.96771" lon="6.5947">
        <ele>1507.48</ele>
        <time>2021-12-19T14:52:51Z</time>
      </trkpt>
      <trkpt lat="45.9677" lon="6.59471">
        <ele>1507.48</ele>
        <time>2021-12-19T14:52:52Z</time>
      </trkpt>
      <trkpt lat="45.96769" lon="6.59471">
        <ele>1507</ele>
        <time>2021-12-19T14:52:53Z</time>
      </trkpt>
      <trkpt lat="45.96768" lon="6.59471">
        <ele>1506.52</ele>
        <time>2021-12-19T14:52:54Z</time>
      </trkpt>
      <trkpt lat="45.96755" lon="6.59474">
        <ele>1503.16</ele>
        <time>2021-12-19T14:53:01Z</time>
      </trkpt>
      <trkpt lat="45.96753" lon="6.59478">
        <ele>1502.2</ele>
        <time>2021-12-19T14:53:02Z</time>
      </trkpt>
      <trkpt lat="45.96752" lon="6.59481">
        <ele>1501.72</ele>
        <time>2021-12-19T14:53:03Z</time>
      </trkpt>
      <trkpt lat="45.96752" lon="6.59484">
        <ele>1501.24</ele>
        <time>2021-12-19T14:53:04Z</time>
      </trkpt>
      <trkpt lat="45.96753" lon="6.59492">
        <ele>1499.31</ele>
        <time>2021-12-19T14:53:10Z</time>
      </trkpt>
      <trkpt lat="45.96755" lon="6.59494">
        <ele>1498.35</ele>
        <time>2021-12-19T14:53:14Z</time>
      </trkpt>
      <trkpt lat="45.96756" lon="6.59494">
        <ele>1497.39</ele>
        <time>2021-12-19T14:53:15Z</time>
      </trkpt>
      <trkpt lat="45.96757" lon="6.59495">
        <ele>1497.39</ele>
        <time>2021-12-19T14:53:16Z</time>
      </trkpt>
      <trkpt lat="45.96759" lon="6.59496">
        <ele>1496.43</ele>
        <time>2021-12-19T14:53:18Z</time>
      </trkpt>
      <trkpt lat="45.9676" lon="6.59496">
        <ele>1495.95</ele>
        <time>2021-12-19T14:53:19Z</time>
      </trkpt>
      <trkpt lat="45.96762" lon="6.59497">
        <ele>1495.47</ele>
        <time>2021-12-19T14:53:20Z</time>
      </trkpt>
      <trkpt lat="45.96766" lon="6.59499">
        <ele>1494.51</ele>
        <time>2021-12-19T14:53:23Z</time>
      </trkpt>
      <trkpt lat="45.96776" lon="6.59511">
        <ele>1491.14</ele>
        <time>2021-12-19T14:53:34Z</time>
      </trkpt>
      <trkpt lat="45.96777" lon="6.59513">
        <ele>1490.66</ele>
        <time>2021-12-19T14:53:35Z</time>
      </trkpt>
      <trkpt lat="45.96778" lon="6.59515">
        <ele>1490.18</ele>
        <time>2021-12-19T14:53:36Z</time>
      </trkpt>
      <trkpt lat="45.9678" lon="6.59517">
        <ele>1489.7</ele>
        <time>2021-12-19T14:53:37Z</time>
      </trkpt>
      <trkpt lat="45.96781" lon="6.5952">
        <ele>1489.22</ele>
        <time>2021-12-19T14:53:38Z</time>
      </trkpt>
      <trkpt lat="45.96784" lon="6.59522">
        <ele>1488.26</ele>
        <time>2021-12-19T14:53:39Z</time>
      </trkpt>
      <trkpt lat="45.96786" lon="6.59523">
        <ele>1487.78</ele>
        <time>2021-12-19T14:53:40Z</time>
      </trkpt>
      <trkpt lat="45.96787" lon="6.59525">
        <ele>1487.78</ele>
        <time>2021-12-19T14:53:41Z</time>
      </trkpt>
      <trkpt lat="45.96789" lon="6.59526">
        <ele>1487.3</ele>
        <time>2021-12-19T14:53:42Z</time>
      </trkpt>
      <trkpt lat="45.96791" lon="6.59527">
        <ele>1486.82</ele>
        <time>2021-12-19T14:53:43Z</time>
      </trkpt>
      <trkpt lat="45.96793" lon="6.59528">
        <ele>1485.85</ele>
        <time>2021-12-19T14:53:44Z</time>
      </trkpt>
      <trkpt lat="45.96794" lon="6.5953">
        <ele>1485.37</ele>
        <time>2021-12-19T14:53:45Z</time>
      </trkpt>
      <trkpt lat="45.96795" lon="6.59531">
        <ele>1485.37</ele>
        <time>2021-12-19T14:53:46Z</time>
      </trkpt>
      <trkpt lat="45.96798" lon="6.59532">
        <ele>1484.89</ele>
        <time>2021-12-19T14:53:47Z</time>
      </trkpt>
      <trkpt lat="45.96804" lon="6.5954">
        <ele>1482.97</ele>
        <time>2021-12-19T14:53:50Z</time>
      </trkpt>
      <trkpt lat="45.96805" lon="6.59541">
        <ele>1482.49</ele>
        <time>2021-12-19T14:53:51Z</time>
      </trkpt>
      <trkpt lat="45.96805" lon="6.59541">
        <ele>1482.01</ele>
        <time>2021-12-19T14:53:52Z</time>
      </trkpt>
      <trkpt lat="45.96798" lon="6.59545">
        <ele>1478.65</ele>
        <time>2021-12-19T14:53:59Z</time>
      </trkpt>
      <trkpt lat="45.96797" lon="6.59543">
        <ele>1477.2</ele>
        <time>2021-12-19T14:54:02Z</time>
      </trkpt>
      <trkpt lat="45.96789" lon="6.59542">
        <ele>1474.32</ele>
        <time>2021-12-19T14:54:21Z</time>
      </trkpt>
      <trkpt lat="45.96786" lon="6.5955">
        <ele>1473.84</ele>
        <time>2021-12-19T14:54:24Z</time>
      </trkpt>
      <trkpt lat="45.96785" lon="6.59555">
        <ele>1473.36</ele>
        <time>2021-12-19T14:54:25Z</time>
      </trkpt>
      <trkpt lat="45.96783" lon="6.59565">
        <ele>1472.4</ele>
        <time>2021-12-19T14:54:26Z</time>
      </trkpt>
      <trkpt lat="45.96784" lon="6.59573">
        <ele>1471.44</ele>
        <time>2021-12-19T14:54:27Z</time>
      </trkpt>
      <trkpt lat="45.96786" lon="6.59578">
        <ele>1469.99</ele>
        <time>2021-12-19T14:54:28Z</time>
      </trkpt>
      <trkpt lat="45.96788" lon="6.59582">
        <ele>1469.03</ele>
        <time>2021-12-19T14:54:29Z</time>
      </trkpt>
      <trkpt lat="45.96791" lon="6.59583">
        <ele>1468.07</ele>
        <time>2021-12-19T14:54:30Z</time>
      </trkpt>
      <trkpt lat="45.96793" lon="6.59584">
        <ele>1467.59</ele>
        <time>2021-12-19T14:54:31Z</time>
      </trkpt>
      <trkpt lat="45.96796" lon="6.59584">
        <ele>1466.63</ele>
        <time>2021-12-19T14:54:32Z</time>
      </trkpt>
      <trkpt lat="45.96806" lon="6.59587">
        <ele>1463.74</ele>
        <time>2021-12-19T14:54:37Z</time>
      </trkpt>
      <trkpt lat="45.9682" lon="6.59598">
        <ele>1460.38</ele>
        <time>2021-12-19T14:54:44Z</time>
      </trkpt>
      <trkpt lat="45.96833" lon="6.59609">
        <ele>1457.02</ele>
        <time>2021-12-19T14:54:50Z</time>
      </trkpt>
      <trkpt lat="45.96834" lon="6.59615">
        <ele>1456.05</ele>
        <time>2021-12-19T14:54:51Z</time>
      </trkpt>
      <trkpt lat="45.96834" lon="6.59617">
        <ele>1455.57</ele>
        <time>2021-12-19T14:54:52Z</time>
      </trkpt>
      <trkpt lat="45.96833" lon="6.59618">
        <ele>1455.09</ele>
        <time>2021-12-19T14:54:53Z</time>
      </trkpt>
      <trkpt lat="45.9683" lon="6.59618">
        <ele>1454.13</ele>
        <time>2021-12-19T14:54:57Z</time>
      </trkpt>
      <trkpt lat="45.96828" lon="6.59618">
        <ele>1454.13</ele>
        <time>2021-12-19T14:54:58Z</time>
      </trkpt>
      <trkpt lat="45.96826" lon="6.59618">
        <ele>1453.17</ele>
        <time>2021-12-19T14:54:59Z</time>
      </trkpt>
      <trkpt lat="45.96818" lon="6.59614">
        <ele>1450.77</ele>
        <time>2021-12-19T14:55:06Z</time>
      </trkpt>
      <trkpt lat="45.96816" lon="6.59612">
        <ele>1450.29</ele>
        <time>2021-12-19T14:55:08Z</time>
      </trkpt>
      <trkpt lat="45.96814" lon="6.59611">
        <ele>1448.36</ele>
        <time>2021-12-19T14:55:14Z</time>
      </trkpt>
      <trkpt lat="45.96812" lon="6.59613">
        <ele>1448.36</ele>
        <time>2021-12-19T14:55:15Z</time>
      </trkpt>
      <trkpt lat="45.96811" lon="6.59615">
        <ele>1448.36</ele>
        <time>2021-12-19T14:55:16Z</time>
      </trkpt>
      <trkpt lat="45.96811" lon="6.59618">
        <ele>1447.88</ele>
        <time>2021-12-19T14:55:17Z</time>
      </trkpt>
      <trkpt lat="45.9681" lon="6.59621">
        <ele>1447.4</ele>
        <time>2021-12-19T14:55:18Z</time>
      </trkpt>
      <trkpt lat="45.96811" lon="6.59623">
        <ele>1446.92</ele>
        <time>2021-12-19T14:55:19Z</time>
      </trkpt>
      <trkpt lat="45.96812" lon="6.59623">
        <ele>1445.96</ele>
        <time>2021-12-19T14:55:40Z</time>
      </trkpt>
      <trkpt lat="45.96813" lon="6.59624">
        <ele>1445.96</ele>
        <time>2021-12-19T14:55:41Z</time>
      </trkpt>
      <trkpt lat="45.96814" lon="6.59625">
        <ele>1445.48</ele>
        <time>2021-12-19T14:55:42Z</time>
      </trkpt>
      <trkpt lat="45.96816" lon="6.59629">
        <ele>1444.04</ele>
        <time>2021-12-19T14:55:44Z</time>
      </trkpt>
      <trkpt lat="45.96816" lon="6.59631">
        <ele>1444.04</ele>
        <time>2021-12-19T14:55:45Z</time>
      </trkpt>
      <trkpt lat="45.96817" lon="6.59633">
        <ele>1443.56</ele>
        <time>2021-12-19T14:55:46Z</time>
      </trkpt>
      <trkpt lat="45.96818" lon="6.59636">
        <ele>1442.6</ele>
        <time>2021-12-19T14:55:47Z</time>
      </trkpt>
      <trkpt lat="45.96819" lon="6.59638">
        <ele>1442.6</ele>
        <time>2021-12-19T14:55:48Z</time>
      </trkpt>
      <trkpt lat="45.9682" lon="6.59641">
        <ele>1441.63</ele>
        <time>2021-12-19T14:55:49Z</time>
      </trkpt>
      <trkpt lat="45.96822" lon="6.59643">
        <ele>1441.15</ele>
        <time>2021-12-19T14:55:50Z</time>
      </trkpt>
      <trkpt lat="45.96831" lon="6.59659">
        <ele>1437.79</ele>
        <time>2021-12-19T14:55:55Z</time>
      </trkpt>
      <trkpt lat="45.96845" lon="6.59671">
        <ele>1432.98</ele>
        <time>2021-12-19T14:56:00Z</time>
      </trkpt>
      <trkpt lat="45.96848" lon="6.59675">
        <ele>1432.02</ele>
        <time>2021-12-19T14:56:01Z</time>
      </trkpt>
      <trkpt lat="45.96847" lon="6.59679">
        <ele>1431.06</ele>
        <time>2021-12-19T14:56:02Z</time>
      </trkpt>
      <trkpt lat="45.96847" lon="6.59682">
        <ele>1430.58</ele>
        <time>2021-12-19T14:56:03Z</time>
      </trkpt>
      <trkpt lat="45.96847" lon="6.59683">
        <ele>1430.1</ele>
        <time>2021-12-19T14:56:04Z</time>
      </trkpt>
      <trkpt lat="45.96847" lon="6.59684">
        <ele>1429.62</ele>
        <time>2021-12-19T14:56:05Z</time>
      </trkpt>
      <trkpt lat="45.96843" lon="6.59681">
        <ele>1428.18</ele>
        <time>2021-12-19T14:57:10Z</time>
      </trkpt>
      <trkpt lat="45.9684" lon="6.59683">
        <ele>1427.7</ele>
        <time>2021-12-19T14:57:13Z</time>
      </trkpt>
      <trkpt lat="45.96839" lon="6.59684">
        <ele>1427.21</ele>
        <time>2021-12-19T14:57:14Z</time>
      </trkpt>
      <trkpt lat="45.96837" lon="6.59685">
        <ele>1427.21</ele>
        <time>2021-12-19T14:57:15Z</time>
      </trkpt>
      <trkpt lat="45.96835" lon="6.59685">
        <ele>1426.73</ele>
        <time>2021-12-19T14:57:16Z</time>
      </trkpt>
      <trkpt lat="45.96833" lon="6.59685">
        <ele>1426.25</ele>
        <time>2021-12-19T14:57:17Z</time>
      </trkpt>
      <trkpt lat="45.96831" lon="6.59685">
        <ele>1425.77</ele>
        <time>2021-12-19T14:57:18Z</time>
      </trkpt>
      <trkpt lat="45.96829" lon="6.59686">
        <ele>1424.81</ele>
        <time>2021-12-19T14:57:19Z</time>
      </trkpt>
      <trkpt lat="45.96827" lon="6.59687">
        <ele>1423.85</ele>
        <time>2021-12-19T14:57:20Z</time>
      </trkpt>
      <trkpt lat="45.96825" lon="6.59688">
        <ele>1423.37</ele>
        <time>2021-12-19T14:57:21Z</time>
      </trkpt>
      <trkpt lat="45.96823" lon="6.59689">
        <ele>1422.41</ele>
        <time>2021-12-19T14:57:22Z</time>
      </trkpt>
      <trkpt lat="45.9682" lon="6.5969">
        <ele>1421.93</ele>
        <time>2021-12-19T14:57:23Z</time>
      </trkpt>
      <trkpt lat="45.96818" lon="6.5969">
        <ele>1420.97</ele>
        <time>2021-12-19T14:57:24Z</time>
      </trkpt>
      <trkpt lat="45.96816" lon="6.5969">
        <ele>1420.49</ele>
        <time>2021-12-19T14:57:25Z</time>
      </trkpt>
      <trkpt lat="45.96814" lon="6.59691">
        <ele>1419.52</ele>
        <time>2021-12-19T14:57:26Z</time>
      </trkpt>
      <trkpt lat="45.96812" lon="6.59692">
        <ele>1419.04</ele>
        <time>2021-12-19T14:57:27Z</time>
      </trkpt>
      <trkpt lat="45.9681" lon="6.59692">
        <ele>1418.08</ele>
        <time>2021-12-19T14:57:28Z</time>
      </trkpt>
      <trkpt lat="45.96808" lon="6.59692">
        <ele>1417.6</ele>
        <time>2021-12-19T14:57:29Z</time>
      </trkpt>
      <trkpt lat="45.96806" lon="6.59692">
        <ele>1416.64</ele>
        <time>2021-12-19T14:57:30Z</time>
      </trkpt>
      <trkpt lat="45.96804" lon="6.59692">
        <ele>1416.16</ele>
        <time>2021-12-19T14:57:31Z</time>
      </trkpt>
      <trkpt lat="45.96802" lon="6.59692">
        <ele>1415.2</ele>
        <time>2021-12-19T14:57:32Z</time>
      </trkpt>
      <trkpt lat="45.968" lon="6.59691">
        <ele>1413.76</ele>
        <time>2021-12-19T14:57:34Z</time>
      </trkpt>
      <trkpt lat="45.96799" lon="6.59691">
        <ele>1413.28</ele>
        <time>2021-12-19T14:57:35Z</time>
      </trkpt>
      <trkpt lat="45.96797" lon="6.59689">
        <ele>1412.79</ele>
        <time>2021-12-19T14:57:39Z</time>
      </trkpt>
      <trkpt lat="45.96794" lon="6.59685">
        <ele>1411.83</ele>
        <time>2021-12-19T14:57:42Z</time>
      </trkpt>
      <trkpt lat="45.96792" lon="6.59685">
        <ele>1410.87</ele>
        <time>2021-12-19T14:57:43Z</time>
      </trkpt>
      <trkpt lat="45.96789" lon="6.59683">
        <ele>1410.39</ele>
        <time>2021-12-19T14:57:44Z</time>
      </trkpt>
      <trkpt lat="45.96786" lon="6.59682">
        <ele>1409.43</ele>
        <time>2021-12-19T14:57:45Z</time>
      </trkpt>
      <trkpt lat="45.96783" lon="6.59681">
        <ele>1408.47</ele>
        <time>2021-12-19T14:57:46Z</time>
      </trkpt>
      <trkpt lat="45.96779" lon="6.5968">
        <ele>1407.51</ele>
        <time>2021-12-19T14:57:47Z</time>
      </trkpt>
      <trkpt lat="45.96777" lon="6.59679">
        <ele>1406.55</ele>
        <time>2021-12-19T14:57:48Z</time>
      </trkpt>
      <trkpt lat="45.96774" lon="6.59678">
        <ele>1406.07</ele>
        <time>2021-12-19T14:57:49Z</time>
      </trkpt>
      <trkpt lat="45.96773" lon="6.59679">
        <ele>1405.58</ele>
        <time>2021-12-19T14:57:50Z</time>
      </trkpt>
      <trkpt lat="45.96772" lon="6.59679">
        <ele>1405.1</ele>
        <time>2021-12-19T14:57:51Z</time>
      </trkpt>
      <trkpt lat="45.96771" lon="6.59679">
        <ele>1404.62</ele>
        <time>2021-12-19T14:57:52Z</time>
      </trkpt>
      <trkpt lat="45.9677" lon="6.59679">
        <ele>1404.62</ele>
        <time>2021-12-19T14:57:53Z</time>
      </trkpt>
      <trkpt lat="45.96767" lon="6.59678">
        <ele>1404.14</ele>
        <time>2021-12-19T14:57:54Z</time>
      </trkpt>
      <trkpt lat="45.96763" lon="6.59678">
        <ele>1403.66</ele>
        <time>2021-12-19T14:57:55Z</time>
      </trkpt>
      <trkpt lat="45.96759" lon="6.59676">
        <ele>1402.7</ele>
        <time>2021-12-19T14:57:56Z</time>
      </trkpt>
      <trkpt lat="45.96756" lon="6.59675">
        <ele>1402.22</ele>
        <time>2021-12-19T14:57:57Z</time>
      </trkpt>
      <trkpt lat="45.96753" lon="6.59673">
        <ele>1401.74</ele>
        <time>2021-12-19T14:57:58Z</time>
      </trkpt>
      <trkpt lat="45.96752" lon="6.59672">
        <ele>1401.74</ele>
        <time>2021-12-19T14:57:59Z</time>
      </trkpt>
      <trkpt lat="45.96747" lon="6.59667">
        <ele>1399.82</ele>
        <time>2021-12-19T14:58:09Z</time>
      </trkpt>
      <trkpt lat="45.96746" lon="6.59666">
        <ele>1399.82</ele>
        <time>2021-12-19T14:58:10Z</time>
      </trkpt>
      <trkpt lat="45.96744" lon="6.59664">
        <ele>1399.82</ele>
        <time>2021-12-19T14:58:18Z</time>
      </trkpt>
      <trkpt lat="45.96743" lon="6.59663">
        <ele>1399.82</ele>
        <time>2021-12-19T14:58:19Z</time>
      </trkpt>
      <trkpt lat="45.96741" lon="6.59661">
        <ele>1399.82</ele>
        <time>2021-12-19T14:58:20Z</time>
      </trkpt>
      <trkpt lat="45.96738" lon="6.5966">
        <ele>1399.82</ele>
        <time>2021-12-19T14:58:21Z</time>
      </trkpt>
      <trkpt lat="45.96736" lon="6.59657">
        <ele>1399.34</ele>
        <time>2021-12-19T14:58:22Z</time>
      </trkpt>
      <trkpt lat="45.96727" lon="6.59647">
        <ele>1397.41</ele>
        <time>2021-12-19T14:59:24Z</time>
      </trkpt>
      <trkpt lat="45.96724" lon="6.59644">
        <ele>1397.41</ele>
        <time>2021-12-19T14:59:25Z</time>
      </trkpt>
      <trkpt lat="45.96722" lon="6.59642">
        <ele>1396.45</ele>
        <time>2021-12-19T14:59:26Z</time>
      </trkpt>
      <trkpt lat="45.9672" lon="6.59643">
        <ele>1395.97</ele>
        <time>2021-12-19T14:59:30Z</time>
      </trkpt>
      <trkpt lat="45.9671" lon="6.59641">
        <ele>1393.09</ele>
        <time>2021-12-19T15:00:07Z</time>
      </trkpt>
      <trkpt lat="45.96707" lon="6.59641">
        <ele>1392.13</ele>
        <time>2021-12-19T15:00:08Z</time>
      </trkpt>
      <trkpt lat="45.96703" lon="6.59639">
        <ele>1391.17</ele>
        <time>2021-12-19T15:00:09Z</time>
      </trkpt>
      <trkpt lat="45.96699" lon="6.59638">
        <ele>1390.2</ele>
        <time>2021-12-19T15:00:10Z</time>
      </trkpt>
      <trkpt lat="45.96697" lon="6.59637">
        <ele>1389.24</ele>
        <time>2021-12-19T15:00:11Z</time>
      </trkpt>
      <trkpt lat="45.96695" lon="6.59639">
        <ele>1388.76</ele>
        <time>2021-12-19T15:00:12Z</time>
      </trkpt>
      <trkpt lat="45.96693" lon="6.59641">
        <ele>1388.76</ele>
        <time>2021-12-19T15:00:13Z</time>
      </trkpt>
      <trkpt lat="45.9669" lon="6.59643">
        <ele>1387.8</ele>
        <time>2021-12-19T15:00:14Z</time>
      </trkpt>
      <trkpt lat="45.96688" lon="6.59646">
        <ele>1386.84</ele>
        <time>2021-12-19T15:00:15Z</time>
      </trkpt>
      <trkpt lat="45.96686" lon="6.59648">
        <ele>1385.88</ele>
        <time>2021-12-19T15:00:16Z</time>
      </trkpt>
      <trkpt lat="45.96684" lon="6.59653">
        <ele>1385.4</ele>
        <time>2021-12-19T15:00:17Z</time>
      </trkpt>
      <trkpt lat="45.96683" lon="6.59659">
        <ele>1384.44</ele>
        <time>2021-12-19T15:00:18Z</time>
      </trkpt>
      <trkpt lat="45.96682" lon="6.59665">
        <ele>1383.47</ele>
        <time>2021-12-19T15:00:19Z</time>
      </trkpt>
      <trkpt lat="45.9668" lon="6.59671">
        <ele>1382.03</ele>
        <time>2021-12-19T15:00:20Z</time>
      </trkpt>
      <trkpt lat="45.96678" lon="6.59675">
        <ele>1381.07</ele>
        <time>2021-12-19T15:00:21Z</time>
      </trkpt>
      <trkpt lat="45.96676" lon="6.59676">
        <ele>1380.59</ele>
        <time>2021-12-19T15:00:22Z</time>
      </trkpt>
      <trkpt lat="45.96676" lon="6.59676">
        <ele>1379.63</ele>
        <time>2021-12-19T15:00:24Z</time>
      </trkpt>
      <trkpt lat="45.96665" lon="6.59677">
        <ele>1377.71</ele>
        <time>2021-12-19T15:01:14Z</time>
      </trkpt>
      <trkpt lat="45.96663" lon="6.59676">
        <ele>1377.23</ele>
        <time>2021-12-19T15:01:15Z</time>
      </trkpt>
      <trkpt lat="45.96662" lon="6.59677">
        <ele>1377.23</ele>
        <time>2021-12-19T15:01:16Z</time>
      </trkpt>
      <trkpt lat="45.96661" lon="6.59678">
        <ele>1376.26</ele>
        <time>2021-12-19T15:01:17Z</time>
      </trkpt>
      <trkpt lat="45.9666" lon="6.59679">
        <ele>1375.78</ele>
        <time>2021-12-19T15:01:18Z</time>
      </trkpt>
      <trkpt lat="45.96659" lon="6.59678">
        <ele>1375.78</ele>
        <time>2021-12-19T15:01:19Z</time>
      </trkpt>
      <trkpt lat="45.96658" lon="6.59677">
        <ele>1375.3</ele>
        <time>2021-12-19T15:01:20Z</time>
      </trkpt>
      <trkpt lat="45.96656" lon="6.59678">
        <ele>1374.82</ele>
        <time>2021-12-19T15:01:21Z</time>
      </trkpt>
      <trkpt lat="45.96654" lon="6.59678">
        <ele>1374.34</ele>
        <time>2021-12-19T15:01:22Z</time>
      </trkpt>
      <trkpt lat="45.96653" lon="6.59677">
        <ele>1373.38</ele>
        <time>2021-12-19T15:01:23Z</time>
      </trkpt>
      <trkpt lat="45.96652" lon="6.59677">
        <ele>1373.38</ele>
        <time>2021-12-19T15:01:24Z</time>
      </trkpt>
      <trkpt lat="45.9665" lon="6.59677">
        <ele>1372.9</ele>
        <time>2021-12-19T15:01:25Z</time>
      </trkpt>
      <trkpt lat="45.96648" lon="6.59675">
        <ele>1372.42</ele>
        <time>2021-12-19T15:01:26Z</time>
      </trkpt>
      <trkpt lat="45.96647" lon="6.59674">
        <ele>1371.94</ele>
        <time>2021-12-19T15:01:27Z</time>
      </trkpt>
      <trkpt lat="45.96645" lon="6.59673">
        <ele>1371.46</ele>
        <time>2021-12-19T15:01:28Z</time>
      </trkpt>
      <trkpt lat="45.96644" lon="6.59673">
        <ele>1370.98</ele>
        <time>2021-12-19T15:01:29Z</time>
      </trkpt>
      <trkpt lat="45.96643" lon="6.59673">
        <ele>1370.5</ele>
        <time>2021-12-19T15:01:30Z</time>
      </trkpt>
      <trkpt lat="45.96642" lon="6.59672">
        <ele>1370.02</ele>
        <time>2021-12-19T15:01:31Z</time>
      </trkpt>
      <trkpt lat="45.9664" lon="6.59671">
        <ele>1370.02</ele>
        <time>2021-12-19T15:01:32Z</time>
      </trkpt>
      <trkpt lat="45.96639" lon="6.59669">
        <ele>1369.54</ele>
        <time>2021-12-19T15:01:33Z</time>
      </trkpt>
      <trkpt lat="45.96638" lon="6.59666">
        <ele>1368.57</ele>
        <time>2021-12-19T15:01:34Z</time>
      </trkpt>
      <trkpt lat="45.96636" lon="6.59665">
        <ele>1367.61</ele>
        <time>2021-12-19T15:01:36Z</time>
      </trkpt>
      <trkpt lat="45.96635" lon="6.59666">
        <ele>1367.13</ele>
        <time>2021-12-19T15:01:37Z</time>
      </trkpt>
      <trkpt lat="45.96632" lon="6.59667">
        <ele>1367.13</ele>
        <time>2021-12-19T15:01:38Z</time>
      </trkpt>
      <trkpt lat="45.9663" lon="6.59668">
        <ele>1366.17</ele>
        <time>2021-12-19T15:01:39Z</time>
      </trkpt>
      <trkpt lat="45.9663" lon="6.5967">
        <ele>1365.69</ele>
        <time>2021-12-19T15:01:41Z</time>
      </trkpt>
      <trkpt lat="45.96634" lon="6.59675">
        <ele>1363.77</ele>
        <time>2021-12-19T15:03:01Z</time>
      </trkpt>
      <trkpt lat="45.96635" lon="6.59679">
        <ele>1362.81</ele>
        <time>2021-12-19T15:03:02Z</time>
      </trkpt>
      <trkpt lat="45.96635" lon="6.59683">
        <ele>1361.84</ele>
        <time>2021-12-19T15:03:03Z</time>
      </trkpt>
      <trkpt lat="45.96636" lon="6.59686">
        <ele>1361.36</ele>
        <time>2021-12-19T15:03:04Z</time>
      </trkpt>
      <trkpt lat="45.96638" lon="6.59689">
        <ele>1360.88</ele>
        <time>2021-12-19T15:03:05Z</time>
      </trkpt>
      <trkpt lat="45.96639" lon="6.59691">
        <ele>1360.4</ele>
        <time>2021-12-19T15:03:06Z</time>
      </trkpt>
      <trkpt lat="45.96642" lon="6.59694">
        <ele>1359.44</ele>
        <time>2021-12-19T15:03:08Z</time>
      </trkpt>
      <trkpt lat="45.96656" lon="6.59712">
        <ele>1356.08</ele>
        <time>2021-12-19T15:03:14Z</time>
      </trkpt>
      <trkpt lat="45.9666" lon="6.59714">
        <ele>1355.12</ele>
        <time>2021-12-19T15:03:15Z</time>
      </trkpt>
      <trkpt lat="45.9667" lon="6.59721">
        <ele>1351.75</ele>
        <time>2021-12-19T15:03:18Z</time>
      </trkpt>
      <trkpt lat="45.96674" lon="6.59722">
        <ele>1351.27</ele>
        <time>2021-12-19T15:03:19Z</time>
      </trkpt>
      <trkpt lat="45.96677" lon="6.59723">
        <ele>1349.83</ele>
        <time>2021-12-19T15:03:20Z</time>
      </trkpt>
      <trkpt lat="45.9668" lon="6.59727">
        <ele>1348.87</ele>
        <time>2021-12-19T15:03:21Z</time>
      </trkpt>
      <trkpt lat="45.9668" lon="6.59732">
        <ele>1347.91</ele>
        <time>2021-12-19T15:03:22Z</time>
      </trkpt>
      <trkpt lat="45.9668" lon="6.59733">
        <ele>1347.43</ele>
        <time>2021-12-19T15:03:23Z</time>
      </trkpt>
      <trkpt lat="45.96676" lon="6.59731">
        <ele>1345.5</ele>
        <time>2021-12-19T15:03:43Z</time>
      </trkpt>
      <trkpt lat="45.96674" lon="6.59732">
        <ele>1345.02</ele>
        <time>2021-12-19T15:03:44Z</time>
      </trkpt>
      <trkpt lat="45.96671" lon="6.59732">
        <ele>1344.54</ele>
        <time>2021-12-19T15:03:45Z</time>
      </trkpt>
      <trkpt lat="45.96658" lon="6.59738">
        <ele>1341.18</ele>
        <time>2021-12-19T15:03:49Z</time>
      </trkpt>
      <trkpt lat="45.96645" lon="6.59739">
        <ele>1336.85</ele>
        <time>2021-12-19T15:03:53Z</time>
      </trkpt>
      <trkpt lat="45.96632" lon="6.59743">
        <ele>1333.97</ele>
        <time>2021-12-19T15:03:56Z</time>
      </trkpt>
      <trkpt lat="45.96627" lon="6.59745">
        <ele>1333.01</ele>
        <time>2021-12-19T15:03:57Z</time>
      </trkpt>
      <trkpt lat="45.96623" lon="6.59747">
        <ele>1331.56</ele>
        <time>2021-12-19T15:03:58Z</time>
      </trkpt>
      <trkpt lat="45.9662" lon="6.59748">
        <ele>1330.6</ele>
        <time>2021-12-19T15:03:59Z</time>
      </trkpt>
      <trkpt lat="45.96615" lon="6.59747">
        <ele>1329.64</ele>
        <time>2021-12-19T15:04:00Z</time>
      </trkpt>
      <trkpt lat="45.96611" lon="6.59746">
        <ele>1328.68</ele>
        <time>2021-12-19T15:04:01Z</time>
      </trkpt>
      <trkpt lat="45.96606" lon="6.59747">
        <ele>1328.2</ele>
        <time>2021-12-19T15:04:02Z</time>
      </trkpt>
      <trkpt lat="45.96602" lon="6.59751">
        <ele>1327.72</ele>
        <time>2021-12-19T15:04:03Z</time>
      </trkpt>
      <trkpt lat="45.966" lon="6.59754">
        <ele>1326.28</ele>
        <time>2021-12-19T15:04:04Z</time>
      </trkpt>
      <trkpt lat="45.96602" lon="6.59757">
        <ele>1325.31</ele>
        <time>2021-12-19T15:04:05Z</time>
      </trkpt>
      <trkpt lat="45.96603" lon="6.59761">
        <ele>1324.35</ele>
        <time>2021-12-19T15:04:06Z</time>
      </trkpt>
      <trkpt lat="45.96605" lon="6.59766">
        <ele>1323.39</ele>
        <time>2021-12-19T15:04:07Z</time>
      </trkpt>
      <trkpt lat="45.96611" lon="6.59774">
        <ele>1321.47</ele>
        <time>2021-12-19T15:04:09Z</time>
      </trkpt>
      <trkpt lat="45.96614" lon="6.59778">
        <ele>1320.51</ele>
        <time>2021-12-19T15:04:10Z</time>
      </trkpt>
      <trkpt lat="45.96617" lon="6.59781">
        <ele>1319.55</ele>
        <time>2021-12-19T15:04:11Z</time>
      </trkpt>
      <trkpt lat="45.9662" lon="6.59783">
        <ele>1318.59</ele>
        <time>2021-12-19T15:04:12Z</time>
      </trkpt>
      <trkpt lat="45.96623" lon="6.59785">
        <ele>1317.62</ele>
        <time>2021-12-19T15:04:13Z</time>
      </trkpt>
      <trkpt lat="45.96627" lon="6.59787">
        <ele>1317.14</ele>
        <time>2021-12-19T15:04:14Z</time>
      </trkpt>
      <trkpt lat="45.96637" lon="6.59793">
        <ele>1314.26</ele>
        <time>2021-12-19T15:04:17Z</time>
      </trkpt>
      <trkpt lat="45.96645" lon="6.59798">
        <ele>1310.9</ele>
        <time>2021-12-19T15:04:26Z</time>
      </trkpt>
      <trkpt lat="45.96646" lon="6.59799">
        <ele>1310.9</ele>
        <time>2021-12-19T15:04:27Z</time>
      </trkpt>
      <trkpt lat="45.96649" lon="6.598">
        <ele>1309.93</ele>
        <time>2021-12-19T15:04:29Z</time>
      </trkpt>
      <trkpt lat="45.96651" lon="6.59799">
        <ele>1309.45</ele>
        <time>2021-12-19T15:04:31Z</time>
      </trkpt>
      <trkpt lat="45.96652" lon="6.598">
        <ele>1308.97</ele>
        <time>2021-12-19T15:04:32Z</time>
      </trkpt>
      <trkpt lat="45.96653" lon="6.598">
        <ele>1308.97</ele>
        <time>2021-12-19T15:04:33Z</time>
      </trkpt>
      <trkpt lat="45.96654" lon="6.59801">
        <ele>1308.97</ele>
        <time>2021-12-19T15:04:34Z</time>
      </trkpt>
      <trkpt lat="45.96656" lon="6.59802">
        <ele>1308.49</ele>
        <time>2021-12-19T15:04:35Z</time>
      </trkpt>
      <trkpt lat="45.96667" lon="6.59805">
        <ele>1306.09</ele>
        <time>2021-12-19T15:04:40Z</time>
      </trkpt>
      <trkpt lat="45.96682" lon="6.59809">
        <ele>1304.17</ele>
        <time>2021-12-19T15:04:44Z</time>
      </trkpt>
      <trkpt lat="45.96684" lon="6.59815">
        <ele>1302.72</ele>
        <time>2021-12-19T15:04:45Z</time>
      </trkpt>
      <trkpt lat="45.96684" lon="6.59818">
        <ele>1301.76</ele>
        <time>2021-12-19T15:04:46Z</time>
      </trkpt>
      <trkpt lat="45.96683" lon="6.59819">
        <ele>1301.28</ele>
        <time>2021-12-19T15:04:47Z</time>
      </trkpt>
      <trkpt lat="45.96682" lon="6.5982">
        <ele>1300.32</ele>
        <time>2021-12-19T15:04:48Z</time>
      </trkpt>
      <trkpt lat="45.96683" lon="6.59818">
        <ele>1299.36</ele>
        <time>2021-12-19T15:04:50Z</time>
      </trkpt>
      <trkpt lat="45.96681" lon="6.5982">
        <ele>1298.88</ele>
        <time>2021-12-19T15:04:54Z</time>
      </trkpt>
      <trkpt lat="45.96679" lon="6.59822">
        <ele>1298.4</ele>
        <time>2021-12-19T15:04:55Z</time>
      </trkpt>
      <trkpt lat="45.96677" lon="6.59822">
        <ele>1297.92</ele>
        <time>2021-12-19T15:04:56Z</time>
      </trkpt>
      <trkpt lat="45.96675" lon="6.59823">
        <ele>1296.96</ele>
        <time>2021-12-19T15:04:57Z</time>
      </trkpt>
      <trkpt lat="45.96673" lon="6.59824">
        <ele>1296.48</ele>
        <time>2021-12-19T15:04:58Z</time>
      </trkpt>
      <trkpt lat="45.96672" lon="6.59825">
        <ele>1295.99</ele>
        <time>2021-12-19T15:04:59Z</time>
      </trkpt>
      <trkpt lat="45.96671" lon="6.59827">
        <ele>1295.51</ele>
        <time>2021-12-19T15:05:00Z</time>
      </trkpt>
      <trkpt lat="45.96668" lon="6.59827">
        <ele>1295.03</ele>
        <time>2021-12-19T15:05:01Z</time>
      </trkpt>
      <trkpt lat="45.96665" lon="6.5983">
        <ele>1294.07</ele>
        <time>2021-12-19T15:05:02Z</time>
      </trkpt>
      <trkpt lat="45.96662" lon="6.59833">
        <ele>1293.59</ele>
        <time>2021-12-19T15:05:03Z</time>
      </trkpt>
      <trkpt lat="45.96659" lon="6.59837">
        <ele>1292.63</ele>
        <time>2021-12-19T15:05:04Z</time>
      </trkpt>
      <trkpt lat="45.96646" lon="6.59847">
        <ele>1289.75</ele>
        <time>2021-12-19T15:05:09Z</time>
      </trkpt>
      <trkpt lat="45.96633" lon="6.59855">
        <ele>1286.38</ele>
        <time>2021-12-19T15:05:15Z</time>
      </trkpt>
      <trkpt lat="45.96618" lon="6.59858">
        <ele>1283.02</ele>
        <time>2021-12-19T15:05:20Z</time>
      </trkpt>
      <trkpt lat="45.96604" lon="6.59866">
        <ele>1279.17</ele>
        <time>2021-12-19T15:05:24Z</time>
      </trkpt>
      <trkpt lat="45.966" lon="6.59868">
        <ele>1278.69</ele>
        <time>2021-12-19T15:05:25Z</time>
      </trkpt>
      <trkpt lat="45.96596" lon="6.59869">
        <ele>1277.73</ele>
        <time>2021-12-19T15:05:26Z</time>
      </trkpt>
      <trkpt lat="45.96592" lon="6.59868">
        <ele>1276.77</ele>
        <time>2021-12-19T15:05:27Z</time>
      </trkpt>
      <trkpt lat="45.96588" lon="6.59869">
        <ele>1275.81</ele>
        <time>2021-12-19T15:05:28Z</time>
      </trkpt>
      <trkpt lat="45.96584" lon="6.59869">
        <ele>1274.85</ele>
        <time>2021-12-19T15:05:29Z</time>
      </trkpt>
      <trkpt lat="45.9658" lon="6.5987">
        <ele>1273.88</ele>
        <time>2021-12-19T15:05:30Z</time>
      </trkpt>
      <trkpt lat="45.96575" lon="6.59872">
        <ele>1273.4</ele>
        <time>2021-12-19T15:05:31Z</time>
      </trkpt>
      <trkpt lat="45.96565" lon="6.59877">
        <ele>1270.04</ele>
        <time>2021-12-19T15:05:33Z</time>
      </trkpt>
      <trkpt lat="45.9656" lon="6.59878">
        <ele>1268.6</ele>
        <time>2021-12-19T15:05:34Z</time>
      </trkpt>
      <trkpt lat="45.96557" lon="6.59876">
        <ele>1267.64</ele>
        <time>2021-12-19T15:05:35Z</time>
      </trkpt>
      <trkpt lat="45.96553" lon="6.59874">
        <ele>1267.16</ele>
        <time>2021-12-19T15:05:36Z</time>
      </trkpt>
      <trkpt lat="45.96549" lon="6.59872">
        <ele>1266.67</ele>
        <time>2021-12-19T15:05:37Z</time>
      </trkpt>
      <trkpt lat="45.96545" lon="6.59871">
        <ele>1266.19</ele>
        <time>2021-12-19T15:05:38Z</time>
      </trkpt>
      <trkpt lat="45.96542" lon="6.59871">
        <ele>1265.23</ele>
        <time>2021-12-19T15:05:40Z</time>
      </trkpt>
      <trkpt lat="45.96543" lon="6.59861">
        <ele>1265.23</ele>
        <time>2021-12-19T15:07:08Z</time>
      </trkpt>
      <trkpt lat="45.96545" lon="6.59861">
        <ele>1265.23</ele>
        <time>2021-12-19T15:07:16Z</time>
      </trkpt>
      <trkpt lat="45.96545" lon="6.59861">
        <ele>1265.23</ele>
        <time>2021-12-19T15:08:55Z</time>
      </trkpt>
      <trkpt lat="45.96543" lon="6.59863">
        <ele>1265.23</ele>
        <time>2021-12-19T15:09:05Z</time>
      </trkpt>
      <trkpt lat="45.96542" lon="6.59861">
        <ele>1265.23</ele>
        <time>2021-12-19T15:10:46Z</time>
      </trkpt>
      <trkpt lat="45.9654" lon="6.59861">
        <ele>1265.23</ele>
        <time>2021-12-19T15:10:47Z</time>
      </trkpt>
      <trkpt lat="45.96536" lon="6.59863">
        <ele>1264.27</ele>
        <time>2021-12-19T15:10:48Z</time>
      </trkpt>
      <trkpt lat="45.96533" lon="6.59864">
        <ele>1263.79</ele>
        <time>2021-12-19T15:10:49Z</time>
      </trkpt>
      <trkpt lat="45.96529" lon="6.59865">
        <ele>1262.83</ele>
        <time>2021-12-19T15:10:50Z</time>
      </trkpt>
      <trkpt lat="45.96526" lon="6.59866">
        <ele>1261.87</ele>
        <time>2021-12-19T15:10:51Z</time>
      </trkpt>
      <trkpt lat="45.96523" lon="6.59866">
        <ele>1261.39</ele>
        <time>2021-12-19T15:10:52Z</time>
      </trkpt>
      <trkpt lat="45.9652" lon="6.59866">
        <ele>1260.43</ele>
        <time>2021-12-19T15:10:53Z</time>
      </trkpt>
      <trkpt lat="45.96518" lon="6.59864">
        <ele>1259.46</ele>
        <time>2021-12-19T15:10:54Z</time>
      </trkpt>
      <trkpt lat="45.96517" lon="6.59863">
        <ele>1258.98</ele>
        <time>2021-12-19T15:10:55Z</time>
      </trkpt>
      <trkpt lat="45.96513" lon="6.59861">
        <ele>1258.02</ele>
        <time>2021-12-19T15:13:25Z</time>
      </trkpt>
      <trkpt lat="45.9651" lon="6.59861">
        <ele>1257.54</ele>
        <time>2021-12-19T15:13:26Z</time>
      </trkpt>
      <trkpt lat="45.96503" lon="6.59861">
        <ele>1255.62</ele>
        <time>2021-12-19T15:13:29Z</time>
      </trkpt>
      <trkpt lat="45.96501" lon="6.59861">
        <ele>1255.14</ele>
        <time>2021-12-19T15:13:30Z</time>
      </trkpt>
      <trkpt lat="45.96499" lon="6.59861">
        <ele>1254.18</ele>
        <time>2021-12-19T15:13:31Z</time>
      </trkpt>
      <trkpt lat="45.96496" lon="6.59861">
        <ele>1253.7</ele>
        <time>2021-12-19T15:13:32Z</time>
      </trkpt>
      <trkpt lat="45.96493" lon="6.59862">
        <ele>1253.22</ele>
        <time>2021-12-19T15:13:33Z</time>
      </trkpt>
      <trkpt lat="45.96489" lon="6.59863">
        <ele>1252.25</ele>
        <time>2021-12-19T15:13:34Z</time>
      </trkpt>
      <trkpt lat="45.96486" lon="6.59866">
        <ele>1251.77</ele>
        <time>2021-12-19T15:13:35Z</time>
      </trkpt>
      <trkpt lat="45.96482" lon="6.59869">
        <ele>1250.33</ele>
        <time>2021-12-19T15:13:36Z</time>
      </trkpt>
      <trkpt lat="45.96478" lon="6.59874">
        <ele>1248.89</ele>
        <time>2021-12-19T15:13:37Z</time>
      </trkpt>
      <trkpt lat="45.96469" lon="6.59882">
        <ele>1246.49</ele>
        <time>2021-12-19T15:13:39Z</time>
      </trkpt>
      <trkpt lat="45.96465" lon="6.59883">
        <ele>1245.53</ele>
        <time>2021-12-19T15:13:40Z</time>
      </trkpt>
      <trkpt lat="45.96463" lon="6.59884">
        <ele>1244.56</ele>
        <time>2021-12-19T15:13:41Z</time>
      </trkpt>
      <trkpt lat="45.9646" lon="6.59885">
        <ele>1244.56</ele>
        <time>2021-12-19T15:13:42Z</time>
      </trkpt>
      <trkpt lat="45.96458" lon="6.59885">
        <ele>1244.08</ele>
        <time>2021-12-19T15:13:43Z</time>
      </trkpt>
      <trkpt lat="45.96456" lon="6.59886">
        <ele>1243.6</ele>
        <time>2021-12-19T15:13:44Z</time>
      </trkpt>
      <trkpt lat="45.96455" lon="6.59887">
        <ele>1243.6</ele>
        <time>2021-12-19T15:13:45Z</time>
      </trkpt>
      <trkpt lat="45.96447" lon="6.59895">
        <ele>1241.2</ele>
        <time>2021-12-19T15:13:53Z</time>
      </trkpt>
      <trkpt lat="45.96446" lon="6.59895">
        <ele>1241.2</ele>
        <time>2021-12-19T15:13:54Z</time>
      </trkpt>
      <trkpt lat="45.96428" lon="6.59904">
        <ele>1238.8</ele>
        <time>2021-12-19T15:14:01Z</time>
      </trkpt>
      <trkpt lat="45.96425" lon="6.59908">
        <ele>1238.8</ele>
        <time>2021-12-19T15:14:02Z</time>
      </trkpt>
      <trkpt lat="45.96422" lon="6.59911">
        <ele>1237.83</ele>
        <time>2021-12-19T15:14:03Z</time>
      </trkpt>
      <trkpt lat="45.96417" lon="6.59917">
        <ele>1236.87</ele>
        <time>2021-12-19T15:14:08Z</time>
      </trkpt>
      <trkpt lat="45.96416" lon="6.59917">
        <ele>1236.87</ele>
        <time>2021-12-19T15:14:09Z</time>
      </trkpt>
      <trkpt lat="45.96414" lon="6.59918">
        <ele>1236.87</ele>
        <time>2021-12-19T15:14:10Z</time>
      </trkpt>
      <trkpt lat="45.96411" lon="6.59919">
        <ele>1236.39</ele>
        <time>2021-12-19T15:14:11Z</time>
      </trkpt>
      <trkpt lat="45.96408" lon="6.59922">
        <ele>1235.43</ele>
        <time>2021-12-19T15:14:12Z</time>
      </trkpt>
      <trkpt lat="45.96405" lon="6.59925">
        <ele>1234.95</ele>
        <time>2021-12-19T15:14:13Z</time>
      </trkpt>
      <trkpt lat="45.96402" lon="6.59927">
        <ele>1233.99</ele>
        <time>2021-12-19T15:14:14Z</time>
      </trkpt>
      <trkpt lat="45.964" lon="6.59929">
        <ele>1233.99</ele>
        <time>2021-12-19T15:14:15Z</time>
      </trkpt>
      <trkpt lat="45.96391" lon="6.59937">
        <ele>1233.03</ele>
        <time>2021-12-19T15:14:18Z</time>
      </trkpt>
      <trkpt lat="45.9637" lon="6.59951">
        <ele>1229.18</ele>
        <time>2021-12-19T15:14:22Z</time>
      </trkpt>
      <trkpt lat="45.96366" lon="6.59953">
        <ele>1228.22</ele>
        <time>2021-12-19T15:14:23Z</time>
      </trkpt>
      <trkpt lat="45.96356" lon="6.59962">
        <ele>1226.78</ele>
        <time>2021-12-19T15:14:25Z</time>
      </trkpt>
      <trkpt lat="45.96336" lon="6.59982">
        <ele>1224.86</ele>
        <time>2021-12-19T15:14:29Z</time>
      </trkpt>
      <trkpt lat="45.96331" lon="6.59984">
        <ele>1223.9</ele>
        <time>2021-12-19T15:14:30Z</time>
      </trkpt>
      <trkpt lat="45.96327" lon="6.59987">
        <ele>1223.42</ele>
        <time>2021-12-19T15:14:31Z</time>
      </trkpt>
      <trkpt lat="45.96304" lon="6.60005">
        <ele>1219.57</ele>
        <time>2021-12-19T15:14:35Z</time>
      </trkpt>
      <trkpt lat="45.96296" lon="6.60009">
        <ele>1217.17</ele>
        <time>2021-12-19T15:14:36Z</time>
      </trkpt>
      <trkpt lat="45.96271" lon="6.60026">
        <ele>1212.36</ele>
        <time>2021-12-19T15:14:39Z</time>
      </trkpt>
      <trkpt lat="45.96263" lon="6.60031">
        <ele>1210.44</ele>
        <time>2021-12-19T15:14:40Z</time>
      </trkpt>
      <trkpt lat="45.96249" lon="6.60043">
        <ele>1210.44</ele>
        <time>2021-12-19T15:14:42Z</time>
      </trkpt>
      <trkpt lat="45.96245" lon="6.60047">
        <ele>1210.44</ele>
        <time>2021-12-19T15:14:43Z</time>
      </trkpt>
      <trkpt lat="45.96242" lon="6.60051">
        <ele>1209.48</ele>
        <time>2021-12-19T15:14:44Z</time>
      </trkpt>
      <trkpt lat="45.96238" lon="6.60055">
        <ele>1209.96</ele>
        <time>2021-12-19T15:14:45Z</time>
      </trkpt>
      <trkpt lat="45.96234" lon="6.60059">
        <ele>1209.96</ele>
        <time>2021-12-19T15:14:46Z</time>
      </trkpt>
      <trkpt lat="45.96227" lon="6.60068">
        <ele>1209.48</ele>
        <time>2021-12-19T15:14:48Z</time>
      </trkpt>
      <trkpt lat="45.96223" lon="6.60075">
        <ele>1208.51</ele>
        <time>2021-12-19T15:14:49Z</time>
      </trkpt>
      <trkpt lat="45.96214" lon="6.60092">
        <ele>1205.63</ele>
        <time>2021-12-19T15:14:51Z</time>
      </trkpt>
      <trkpt lat="45.96204" lon="6.60108">
        <ele>1203.23</ele>
        <time>2021-12-19T15:14:53Z</time>
      </trkpt>
      <trkpt lat="45.96196" lon="6.60113">
        <ele>1201.3</ele>
        <time>2021-12-19T15:14:54Z</time>
      </trkpt>
      <trkpt lat="45.96176" lon="6.60128">
        <ele>1197.46</ele>
        <time>2021-12-19T15:14:57Z</time>
      </trkpt>
      <trkpt lat="45.96159" lon="6.60144">
        <ele>1194.58</ele>
        <time>2021-12-19T15:15:00Z</time>
      </trkpt>
      <trkpt lat="45.96159" lon="6.60152">
        <ele>1194.09</ele>
        <time>2021-12-19T15:15:01Z</time>
      </trkpt>
      <trkpt lat="45.96161" lon="6.60158">
        <ele>1192.65</ele>
        <time>2021-12-19T15:15:02Z</time>
      </trkpt>
      <trkpt lat="45.96164" lon="6.60164">
        <ele>1191.69</ele>
        <time>2021-12-19T15:15:03Z</time>
      </trkpt>
      <trkpt lat="45.96168" lon="6.60168">
        <ele>1189.77</ele>
        <time>2021-12-19T15:15:04Z</time>
      </trkpt>
      <trkpt lat="45.96171" lon="6.6017">
        <ele>1188.81</ele>
        <time>2021-12-19T15:15:05Z</time>
      </trkpt>
      <trkpt lat="45.96172" lon="6.6017">
        <ele>1188.33</ele>
        <time>2021-12-19T15:15:07Z</time>
      </trkpt>
      <trkpt lat="45.96176" lon="6.60166">
        <ele>1188.33</ele>
        <time>2021-12-19T15:15:30Z</time>
      </trkpt>
      <trkpt lat="45.96176" lon="6.60165">
        <ele>1188.33</ele>
        <time>2021-12-19T15:15:33Z</time>
      </trkpt>
      <trkpt lat="45.96177" lon="6.60182">
        <ele>1187.37</ele>
        <time>2021-12-19T15:16:00Z</time>
      </trkpt>
      <trkpt lat="45.96177" lon="6.60188">
        <ele>1185.92</ele>
        <time>2021-12-19T15:16:01Z</time>
      </trkpt>
      <trkpt lat="45.96176" lon="6.60194">
        <ele>1184.48</ele>
        <time>2021-12-19T15:16:02Z</time>
      </trkpt>
      <trkpt lat="45.96178" lon="6.60199">
        <ele>1183.04</ele>
        <time>2021-12-19T15:16:03Z</time>
      </trkpt>
      <trkpt lat="45.96177" lon="6.60205">
        <ele>1181.6</ele>
        <time>2021-12-19T15:16:04Z</time>
      </trkpt>
      <trkpt lat="45.96175" lon="6.60209">
        <ele>1180.64</ele>
        <time>2021-12-19T15:16:05Z</time>
      </trkpt>
      <trkpt lat="45.96175" lon="6.60213">
        <ele>1179.19</ele>
        <time>2021-12-19T15:16:06Z</time>
      </trkpt>
      <trkpt lat="45.96172" lon="6.6022">
        <ele>1177.75</ele>
        <time>2021-12-19T15:16:07Z</time>
      </trkpt>
      <trkpt lat="45.9617" lon="6.60226">
        <ele>1175.83</ele>
        <time>2021-12-19T15:16:08Z</time>
      </trkpt>
      <trkpt lat="45.96167" lon="6.60231">
        <ele>1174.39</ele>
        <time>2021-12-19T15:16:09Z</time>
      </trkpt>
      <trkpt lat="45.96166" lon="6.60236">
        <ele>1173.43</ele>
        <time>2021-12-19T15:16:10Z</time>
      </trkpt>
      <trkpt lat="45.96165" lon="6.60241">
        <ele>1171.98</ele>
        <time>2021-12-19T15:16:11Z</time>
      </trkpt>
      <trkpt lat="45.96163" lon="6.60245">
        <ele>1170.54</ele>
        <time>2021-12-19T15:16:12Z</time>
      </trkpt>
      <trkpt lat="45.9616" lon="6.60246">
        <ele>1169.58</ele>
        <time>2021-12-19T15:16:13Z</time>
      </trkpt>
      <trkpt lat="45.96157" lon="6.60247">
        <ele>1169.1</ele>
        <time>2021-12-19T15:16:14Z</time>
      </trkpt>
      <trkpt lat="45.96153" lon="6.60248">
        <ele>1168.14</ele>
        <time>2021-12-19T15:16:15Z</time>
      </trkpt>
      <trkpt lat="45.96149" lon="6.6025">
        <ele>1167.18</ele>
        <time>2021-12-19T15:16:16Z</time>
      </trkpt>
      <trkpt lat="45.96145" lon="6.60253">
        <ele>1166.22</ele>
        <time>2021-12-19T15:16:17Z</time>
      </trkpt>
      <trkpt lat="45.96142" lon="6.60257">
        <ele>1165.26</ele>
        <time>2021-12-19T15:16:18Z</time>
      </trkpt>
      <trkpt lat="45.9614" lon="6.60262">
        <ele>1164.77</ele>
        <time>2021-12-19T15:16:19Z</time>
      </trkpt>
      <trkpt lat="45.96138" lon="6.60269">
        <ele>1164.29</ele>
        <time>2021-12-19T15:16:20Z</time>
      </trkpt>
      <trkpt lat="45.96131" lon="6.60296">
        <ele>1160.93</ele>
        <time>2021-12-19T15:16:24Z</time>
      </trkpt>
      <trkpt lat="45.96132" lon="6.60304">
        <ele>1159.97</ele>
        <time>2021-12-19T15:16:25Z</time>
      </trkpt>
      <trkpt lat="45.96133" lon="6.60311">
        <ele>1157.56</ele>
        <time>2021-12-19T15:16:26Z</time>
      </trkpt>
      <trkpt lat="45.96133" lon="6.60317">
        <ele>1156.6</ele>
        <time>2021-12-19T15:16:27Z</time>
      </trkpt>
      <trkpt lat="45.96133" lon="6.60323">
        <ele>1155.64</ele>
        <time>2021-12-19T15:16:28Z</time>
      </trkpt>
      <trkpt lat="45.96135" lon="6.60324">
        <ele>1154.68</ele>
        <time>2021-12-19T15:16:29Z</time>
      </trkpt>
      <trkpt lat="45.96137" lon="6.60324">
        <ele>1154.2</ele>
        <time>2021-12-19T15:16:30Z</time>
      </trkpt>
      <trkpt lat="45.96137" lon="6.60325">
        <ele>1153.72</ele>
        <time>2021-12-19T15:16:31Z</time>
      </trkpt>
      <trkpt lat="45.96137" lon="6.60328">
        <ele>1153.24</ele>
        <time>2021-12-19T15:16:32Z</time>
      </trkpt>
      <trkpt lat="45.96137" lon="6.60331">
        <ele>1153.24</ele>
        <time>2021-12-19T15:16:33Z</time>
      </trkpt>
      <trkpt lat="45.96135" lon="6.60335">
        <ele>1152.76</ele>
        <time>2021-12-19T15:16:34Z</time>
      </trkpt>
      <trkpt lat="45.96134" lon="6.60338">
        <ele>1151.8</ele>
        <time>2021-12-19T15:16:35Z</time>
      </trkpt>
      <trkpt lat="45.96133" lon="6.60342">
        <ele>1151.32</ele>
        <time>2021-12-19T15:16:36Z</time>
      </trkpt>
      <trkpt lat="45.96134" lon="6.60345">
        <ele>1150.84</ele>
        <time>2021-12-19T15:16:37Z</time>
      </trkpt>
      <trkpt lat="45.96135" lon="6.6035">
        <ele>1150.35</ele>
        <time>2021-12-19T15:16:38Z</time>
      </trkpt>
      <trkpt lat="45.96136" lon="6.60356">
        <ele>1149.39</ele>
        <time>2021-12-19T15:16:39Z</time>
      </trkpt>
      <trkpt lat="45.96136" lon="6.60361">
        <ele>1148.91</ele>
        <time>2021-12-19T15:16:40Z</time>
      </trkpt>
      <trkpt lat="45.96137" lon="6.60364">
        <ele>1148.43</ele>
        <time>2021-12-19T15:16:41Z</time>
      </trkpt>
      <trkpt lat="45.96137" lon="6.60366">
        <ele>1147.95</ele>
        <time>2021-12-19T15:16:42Z</time>
      </trkpt>
      <trkpt lat="45.96136" lon="6.60386">
        <ele>1145.55</ele>
        <time>2021-12-19T15:16:50Z</time>
      </trkpt>
      <trkpt lat="45.96135" lon="6.60388">
        <ele>1145.07</ele>
        <time>2021-12-19T15:16:51Z</time>
      </trkpt>
      <trkpt lat="45.96134" lon="6.60394">
        <ele>1144.59</ele>
        <time>2021-12-19T15:16:53Z</time>
      </trkpt>
      <trkpt lat="45.96133" lon="6.60397">
        <ele>1144.59</ele>
        <time>2021-12-19T15:16:54Z</time>
      </trkpt>
      <trkpt lat="45.96121" lon="6.60428">
        <ele>1141.22</ele>
        <time>2021-12-19T15:17:02Z</time>
      </trkpt>
      <trkpt lat="45.96118" lon="6.60435">
        <ele>1139.78</ele>
        <time>2021-12-19T15:17:03Z</time>
      </trkpt>
      <trkpt lat="45.96107" lon="6.60451">
        <ele>1136.42</ele>
        <time>2021-12-19T15:17:06Z</time>
      </trkpt>
      <trkpt lat="45.96103" lon="6.60454">
        <ele>1136.42</ele>
        <time>2021-12-19T15:17:07Z</time>
      </trkpt>
      <trkpt lat="45.96086" lon="6.60468">
        <ele>1134.01</ele>
        <time>2021-12-19T15:17:13Z</time>
      </trkpt>
      <trkpt lat="45.96072" lon="6.60489">
        <ele>1130.17</ele>
        <time>2021-12-19T15:17:19Z</time>
      </trkpt>
      <trkpt lat="45.9607" lon="6.60495">
        <ele>1128.73</ele>
        <time>2021-12-19T15:17:20Z</time>
      </trkpt>
      <trkpt lat="45.96066" lon="6.60505">
        <ele>1127.76</ele>
        <time>2021-12-19T15:17:21Z</time>
      </trkpt>
      <trkpt lat="45.96066" lon="6.6051">
        <ele>1126.8</ele>
        <time>2021-12-19T15:17:22Z</time>
      </trkpt>
      <trkpt lat="45.96063" lon="6.60516">
        <ele>1125.36</ele>
        <time>2021-12-19T15:17:23Z</time>
      </trkpt>
      <trkpt lat="45.96061" lon="6.60522">
        <ele>1124.4</ele>
        <time>2021-12-19T15:17:24Z</time>
      </trkpt>
      <trkpt lat="45.96054" lon="6.60542">
        <ele>1121.03</ele>
        <time>2021-12-19T15:17:27Z</time>
      </trkpt>
      <trkpt lat="45.96052" lon="6.60549">
        <ele>1119.59</ele>
        <time>2021-12-19T15:17:28Z</time>
      </trkpt>
      <trkpt lat="45.96049" lon="6.60557">
        <ele>1118.63</ele>
        <time>2021-12-19T15:17:29Z</time>
      </trkpt>
      <trkpt lat="45.96046" lon="6.60564">
        <ele>1116.71</ele>
        <time>2021-12-19T15:17:30Z</time>
      </trkpt>
      <trkpt lat="45.96042" lon="6.60571">
        <ele>1116.23</ele>
        <time>2021-12-19T15:17:31Z</time>
      </trkpt>
      <trkpt lat="45.96039" lon="6.60578">
        <ele>1115.27</ele>
        <time>2021-12-19T15:17:32Z</time>
      </trkpt>
      <trkpt lat="45.96035" lon="6.60591">
        <ele>1114.31</ele>
        <time>2021-12-19T15:17:34Z</time>
      </trkpt>
      <trkpt lat="45.96032" lon="6.60596">
        <ele>1113.82</ele>
        <time>2021-12-19T15:17:35Z</time>
      </trkpt>
      <trkpt lat="45.96029" lon="6.60602">
        <ele>1112.86</ele>
        <time>2021-12-19T15:17:36Z</time>
      </trkpt>
      <trkpt lat="45.96025" lon="6.60606">
        <ele>1112.38</ele>
        <time>2021-12-19T15:17:37Z</time>
      </trkpt>
      <trkpt lat="45.96021" lon="6.60608">
        <ele>1111.9</ele>
        <time>2021-12-19T15:17:38Z</time>
      </trkpt>
      <trkpt lat="45.96018" lon="6.60611">
        <ele>1111.9</ele>
        <time>2021-12-19T15:17:39Z</time>
      </trkpt>
      <trkpt lat="45.96014" lon="6.60619">
        <ele>1110.46</ele>
        <time>2021-12-19T15:17:41Z</time>
      </trkpt>
      <trkpt lat="45.9601" lon="6.60631">
        <ele>1107.58</ele>
        <time>2021-12-19T15:18:34Z</time>
      </trkpt>
      <trkpt lat="45.96003" lon="6.6064">
        <ele>1105.65</ele>
        <time>2021-12-19T15:18:38Z</time>
      </trkpt>
      <trkpt lat="45.96001" lon="6.60645">
        <ele>1104.69</ele>
        <time>2021-12-19T15:18:39Z</time>
      </trkpt>
      <trkpt lat="45.96" lon="6.60651">
        <ele>1104.21</ele>
        <time>2021-12-19T15:18:40Z</time>
      </trkpt>
      <trkpt lat="45.96003" lon="6.60657">
        <ele>1102.77</ele>
        <time>2021-12-19T15:18:41Z</time>
      </trkpt>
      <trkpt lat="45.96005" lon="6.60665">
        <ele>1100.37</ele>
        <time>2021-12-19T15:18:42Z</time>
      </trkpt>
      <trkpt lat="45.96004" lon="6.60676">
        <ele>1098.44</ele>
        <time>2021-12-19T15:18:43Z</time>
      </trkpt>
      <trkpt lat="45.96001" lon="6.60684">
        <ele>1096.04</ele>
        <time>2021-12-19T15:18:44Z</time>
      </trkpt>
      <trkpt lat="45.95998" lon="6.60689">
        <ele>1094.6</ele>
        <time>2021-12-19T15:18:45Z</time>
      </trkpt>
      <trkpt lat="45.95995" lon="6.60695">
        <ele>1093.16</ele>
        <time>2021-12-19T15:18:46Z</time>
      </trkpt>
      <trkpt lat="45.95994" lon="6.60703">
        <ele>1091.71</ele>
        <time>2021-12-19T15:18:47Z</time>
      </trkpt>
      <trkpt lat="45.95996" lon="6.6071">
        <ele>1090.75</ele>
        <time>2021-12-19T15:18:48Z</time>
      </trkpt>
      <trkpt lat="45.96" lon="6.60716">
        <ele>1089.79</ele>
        <time>2021-12-19T15:18:49Z</time>
      </trkpt>
      <trkpt lat="45.96004" lon="6.60722">
        <ele>1087.87</ele>
        <time>2021-12-19T15:18:50Z</time>
      </trkpt>
      <trkpt lat="45.96004" lon="6.60726">
        <ele>1086.91</ele>
        <time>2021-12-19T15:18:51Z</time>
      </trkpt>
      <trkpt lat="45.96003" lon="6.60729">
        <ele>1085.95</ele>
        <time>2021-12-19T15:18:52Z</time>
      </trkpt>
      <trkpt lat="45.96001" lon="6.60732">
        <ele>1084.99</ele>
        <time>2021-12-19T15:18:53Z</time>
      </trkpt>
      <trkpt lat="45.96" lon="6.60735">
        <ele>1084.99</ele>
        <time>2021-12-19T15:18:54Z</time>
      </trkpt>
      <trkpt lat="45.96001" lon="6.60739">
        <ele>1084.5</ele>
        <time>2021-12-19T15:18:55Z</time>
      </trkpt>
      <trkpt lat="45.96003" lon="6.60742">
        <ele>1084.02</ele>
        <time>2021-12-19T15:18:56Z</time>
      </trkpt>
      <trkpt lat="45.96004" lon="6.60747">
        <ele>1082.1</ele>
        <time>2021-12-19T15:18:57Z</time>
      </trkpt>
      <trkpt lat="45.96004" lon="6.60751">
        <ele>1080.66</ele>
        <time>2021-12-19T15:18:58Z</time>
      </trkpt>
      <trkpt lat="45.96003" lon="6.60756">
        <ele>1079.22</ele>
        <time>2021-12-19T15:18:59Z</time>
      </trkpt>
      <trkpt lat="45.96" lon="6.6076">
        <ele>1077.78</ele>
        <time>2021-12-19T15:19:00Z</time>
      </trkpt>
      <trkpt lat="45.95998" lon="6.60765">
        <ele>1076.33</ele>
        <time>2021-12-19T15:19:01Z</time>
      </trkpt>
      <trkpt lat="45.95998" lon="6.60772">
        <ele>1075.37</ele>
        <time>2021-12-19T15:19:02Z</time>
      </trkpt>
      <trkpt lat="45.95998" lon="6.60778">
        <ele>1074.41</ele>
        <time>2021-12-19T15:19:03Z</time>
      </trkpt>
      <trkpt lat="45.95998" lon="6.60782">
        <ele>1073.45</ele>
        <time>2021-12-19T15:19:04Z</time>
      </trkpt>
      <trkpt lat="45.95998" lon="6.60785">
        <ele>1072.97</ele>
        <time>2021-12-19T15:19:05Z</time>
      </trkpt>
      <trkpt lat="45.95998" lon="6.60789">
        <ele>1072.01</ele>
        <time>2021-12-19T15:19:09Z</time>
      </trkpt>
      <trkpt lat="45.95996" lon="6.60796">
        <ele>1072.01</ele>
        <time>2021-12-19T15:20:23Z</time>
      </trkpt>
      <trkpt lat="45.95993" lon="6.608">
        <ele>1071.05</ele>
        <time>2021-12-19T15:20:24Z</time>
      </trkpt>
      <trkpt lat="45.95978" lon="6.60814">
        <ele>1067.68</ele>
        <time>2021-12-19T15:20:27Z</time>
      </trkpt>
      <trkpt lat="45.95964" lon="6.60825">
        <ele>1063.36</ele>
        <time>2021-12-19T15:20:29Z</time>
      </trkpt>
      <trkpt lat="45.95959" lon="6.60831">
        <ele>1061.91</ele>
        <time>2021-12-19T15:20:30Z</time>
      </trkpt>
      <trkpt lat="45.95955" lon="6.60836">
        <ele>1060.95</ele>
        <time>2021-12-19T15:20:31Z</time>
      </trkpt>
      <trkpt lat="45.95952" lon="6.6084">
        <ele>1059.99</ele>
        <time>2021-12-19T15:20:32Z</time>
      </trkpt>
      <trkpt lat="45.95949" lon="6.60845">
        <ele>1059.99</ele>
        <time>2021-12-19T15:20:33Z</time>
      </trkpt>
      <trkpt lat="45.95942" lon="6.60866">
        <ele>1057.11</ele>
        <time>2021-12-19T15:20:38Z</time>
      </trkpt>
      <trkpt lat="45.95943" lon="6.60878">
        <ele>1054.7</ele>
        <time>2021-12-19T15:20:40Z</time>
      </trkpt>
      <trkpt lat="45.95941" lon="6.60882">
        <ele>1053.74</ele>
        <time>2021-12-19T15:20:41Z</time>
      </trkpt>
      <trkpt lat="45.95938" lon="6.60886">
        <ele>1052.78</ele>
        <time>2021-12-19T15:20:42Z</time>
      </trkpt>
      <trkpt lat="45.95938" lon="6.60891">
        <ele>1051.82</ele>
        <time>2021-12-19T15:20:43Z</time>
      </trkpt>
      <trkpt lat="45.95938" lon="6.60896">
        <ele>1050.38</ele>
        <time>2021-12-19T15:20:44Z</time>
      </trkpt>
      <trkpt lat="45.95936" lon="6.60899">
        <ele>1049.42</ele>
        <time>2021-12-19T15:20:45Z</time>
      </trkpt>
      <trkpt lat="45.95935" lon="6.60899">
        <ele>1048.94</ele>
        <time>2021-12-19T15:20:46Z</time>
      </trkpt>
      <trkpt lat="45.95933" lon="6.609">
        <ele>1048.45</ele>
        <time>2021-12-19T15:20:47Z</time>
      </trkpt>
      <trkpt lat="45.95928" lon="6.60902">
        <ele>1046.53</ele>
        <time>2021-12-19T15:20:51Z</time>
      </trkpt>
      <trkpt lat="45.95926" lon="6.60902">
        <ele>1046.05</ele>
        <time>2021-12-19T15:20:52Z</time>
      </trkpt>
      <trkpt lat="45.95919" lon="6.60905">
        <ele>1045.09</ele>
        <time>2021-12-19T15:21:11Z</time>
      </trkpt>
      <trkpt lat="45.95918" lon="6.60906">
        <ele>1045.09</ele>
        <time>2021-12-19T15:21:12Z</time>
      </trkpt>
      <trkpt lat="45.95917" lon="6.60908">
        <ele>1044.61</ele>
        <time>2021-12-19T15:21:13Z</time>
      </trkpt>
      <trkpt lat="45.95915" lon="6.60909">
        <ele>1044.61</ele>
        <time>2021-12-19T15:21:14Z</time>
      </trkpt>
      <trkpt lat="45.95914" lon="6.60911">
        <ele>1044.61</ele>
        <time>2021-12-19T15:21:15Z</time>
      </trkpt>
      <trkpt lat="45.95912" lon="6.60913">
        <ele>1044.61</ele>
        <time>2021-12-19T15:21:16Z</time>
      </trkpt>
      <trkpt lat="45.9591" lon="6.60914">
        <ele>1044.61</ele>
        <time>2021-12-19T15:21:17Z</time>
      </trkpt>
      <trkpt lat="45.95909" lon="6.60916">
        <ele>1044.61</ele>
        <time>2021-12-19T15:21:18Z</time>
      </trkpt>
      <trkpt lat="45.95907" lon="6.60917">
        <ele>1044.61</ele>
        <time>2021-12-19T15:21:19Z</time>
      </trkpt>
      <trkpt lat="45.95907" lon="6.60918">
        <ele>1044.61</ele>
        <time>2021-12-19T15:21:20Z</time>
      </trkpt>
      <trkpt lat="45.95888" lon="6.60933">
        <ele>1044.13</ele>
        <time>2021-12-19T15:21:40Z</time>
      </trkpt>
      <trkpt lat="45.95869" lon="6.60946">
        <ele>1042.21</ele>
        <time>2021-12-19T15:21:46Z</time>
      </trkpt>
      <trkpt lat="45.95864" lon="6.60947">
        <ele>1041.73</ele>
        <time>2021-12-19T15:21:47Z</time>
      </trkpt>
      <trkpt lat="45.95846" lon="6.60951">
        <ele>1038.36</ele>
        <time>2021-12-19T15:21:50Z</time>
      </trkpt>
      <trkpt lat="45.95841" lon="6.60954">
        <ele>1037.4</ele>
        <time>2021-12-19T15:21:51Z</time>
      </trkpt>
      <trkpt lat="45.9582" lon="6.60964">
        <ele>1037.4</ele>
        <time>2021-12-19T15:21:56Z</time>
      </trkpt>
      <trkpt lat="45.95809" lon="6.60969">
        <ele>1036.44</ele>
        <time>2021-12-19T15:22:06Z</time>
      </trkpt>
      <trkpt lat="45.95807" lon="6.6097">
        <ele>1035.96</ele>
        <time>2021-12-19T15:22:07Z</time>
      </trkpt>
      <trkpt lat="45.95791" lon="6.60988">
        <ele>1034.04</ele>
        <time>2021-12-19T15:22:17Z</time>
      </trkpt>
      <trkpt lat="45.95789" lon="6.60991">
        <ele>1033.07</ele>
        <time>2021-12-19T15:22:19Z</time>
      </trkpt>
      <trkpt lat="45.95788" lon="6.60994">
        <ele>1032.59</ele>
        <time>2021-12-19T15:22:20Z</time>
      </trkpt>
      <trkpt lat="45.95789" lon="6.60997">
        <ele>1032.59</ele>
        <time>2021-12-19T15:22:21Z</time>
      </trkpt>
      <trkpt lat="45.9579" lon="6.61">
        <ele>1032.11</ele>
        <time>2021-12-19T15:22:22Z</time>
      </trkpt>
      <trkpt lat="45.95791" lon="6.61001">
        <ele>1031.63</ele>
        <time>2021-12-19T15:22:23Z</time>
      </trkpt>
      <trkpt lat="45.95807" lon="6.61012">
        <ele>1028.75</ele>
        <time>2021-12-19T15:22:37Z</time>
      </trkpt>
      <trkpt lat="45.95812" lon="6.61019">
        <ele>1027.79</ele>
        <time>2021-12-19T15:22:42Z</time>
      </trkpt>
      <trkpt lat="45.95831" lon="6.61032">
        <ele>1025.86</ele>
        <time>2021-12-19T15:23:00Z</time>
      </trkpt>
      <trkpt lat="45.95835" lon="6.61036">
        <ele>1024.9</ele>
        <time>2021-12-19T15:23:39Z</time>
      </trkpt>
    </trkseg>
  </trk>
</gpx>